[[{"header":{"parameterUnit":"m.s-1","parameterCategory":1,"la1":30.6,"la2":29.2853,"lo1":-89.7004,"lo2":-87.6739,"dy":0.0162,"dx":0.0183,"nx":112,"ny":82,"refTime":"2024-05-29T06:00:00:Z","depth":0,"parameterNumber":2,"parameterNumberName":"U-component_of_WINDS"},"data":[0.0,0.0,0.0,0.0,0.0,0.0,0.0,0.0,0.0,0.0,0.0,0.0,0.0,0.0,0.0,0.0,0.0,0.0,0.0,0.0,0.0,0.0,0.0,0.0,0.0,0.0,0.0,0.0,0.0,0.0,0.0,0.0,0.0,0.0,0.0,0.0,0.0,0.0,0.0,0.0,0.0,0.0,0.0,0.0,0.0,0.0,0.0,0.0,0.0,0.0,0.0,0.0,0.0,0.0,0.0,0.0,0.0,0.0,0.0,0.0,0.0,0.0,0.0,0.0,0.0,0.0,0.0,0.0,0.0,0.0,0.0,0.0,0.0,0.0,0.0,0.0,0.0,0.0,0.0,0.0,0.0,0.0,0.0,0.0,0.0,0.0,0.0,0.0,0.0,0.0,-2.7919,-3.2616,-3.5166,-3.6831,-3.76,-3.5126,-3.1786,-2.7706,0.0,0.0,0.0,0.0,0.0,0.0,0.0,0.0,0.0,0.0,0.0,0.0,0.0,0.0,0.0,0.0,0.0,0.0,0.0,0.0,0.0,0.0,0.0,0.0,0.0,0.0,0.0,0.0,0.0,0.0,0.0,0.0,0.0,0.0,0.0,0.0,0.0,0.0,0.0,0.0,0.0,0.0,0.0,0.0,0.0,0.0,0.0,0.0,0.0,0.0,0.0,0.0,0.0,0.0,0.0,0.0,0.0,0.0,0.0,0.0,0.0,0.0,0.0,0.0,0.0,0.0,0.0,0.0,0.0,0.0,0.0,0.0,0.0,0.0,0.0,0.0,0.0,0.0,0.0,0.0,0.0,0.0,0.0,0.0,0.0,0.0,0.0,0.0,0.0,0.0,0.0,0.0,0.0,0.0,0.0,0.0,0.0,0.0,0.0,0.0,0.0,0.0,0.0,0.0,-2.8676,-3.5198,-3.6842,-3.7487,-3.7462,-3.5135,-3.1822,-2.7447,0.0,0.0,0.0,0.0,0.0,0.0,0.0,0.0,0.0,0.0,0.0,0.0,0.0,0.0,0.0,0.0,0.0,0.0,0.0,0.0,0.0,0.0,0.0,0.0,0.0,0.0,0.0,0.0,0.0,0.0,0.0,0.0,0.0,0.0,0.0,0.0,0.0,0.0,0.0,0.0,0.0,0.0,0.0,0.0,0.0,0.0,0.0,0.0,0.0,0.0,0.0,0.0,0.0,0.0,0.0,0.0,0.0,0.0,0.0,0.0,0.0,0.0,0.0,0.0,0.0,0.0,0.0,0.0,0.0,0.0,0.0,0.0,0.0,0.0,0.0,0.0,0.0,0.0,0.0,0.0,0.0,0.0,0.0,0.0,0.0,0.0,0.0,0.0,0.0,0.0,0.0,0.0,0.0,0.0,0.0,0.0,0.0,0.0,0.0,0.0,0.0,0.0,0.0,-2.8229,-3.1089,-3.6517,-3.7041,-3.7097,-3.7336,-3.4566,-3.1214,-2.7399,-2.5918,0.0,0.0,0.0,0.0,0.0,0.0,0.0,0.0,0.0,0.0,0.0,0.0,0.0,0.0,0.0,0.0,0.0,0.0,0.0,0.0,0.0,0.0,0.0,0.0,0.0,0.0,0.0,0.0,0.0,0.0,0.0,0.0,0.0,0.0,0.0,0.0,0.0,0.0,0.0,0.0,0.0,0.0,0.0,0.0,0.0,0.0,0.0,0.0,0.0,0.0,0.0,0.0,0.0,0.0,0.0,0.0,0.0,0.0,0.0,0.0,0.0,0.0,0.0,0.0,0.0,0.0,0.0,0.0,0.0,0.0,0.0,0.0,0.0,0.0,0.0,0.0,0.0,0.0,0.0,0.0,0.0,0.0,0.0,0.0,0.0,0.0,0.0,0.0,0.0,0.0,0.0,0.0,0.0,0.0,0.0,0.0,0.0,0.0,0.0,0.0,0.0,0.0,-3.1028,-3.3587,-3.7155,-3.6973,-3.6786,-3.7188,-3.3711,-3.0265,-2.7317,-2.491,0.0,0.0,0.0,0.0,0.0,0.0,0.0,0.0,0.0,0.0,0.0,0.0,0.0,0.0,0.0,0.0,0.0,0.0,0.0,0.0,0.0,0.0,0.0,0.0,0.0,0.0,0.0,0.0,0.0,0.0,0.0,0.0,0.0,0.0,0.0,0.0,0.0,0.0,0.0,0.0,0.0,0.0,0.0,0.0,0.0,0.0,0.0,0.0,0.0,0.0,0.0,0.0,0.0,0.0,0.0,0.0,0.0,0.0,0.0,0.0,0.0,0.0,0.0,0.0,0.0,0.0,0.0,0.0,0.0,0.0,0.0,0.0,0.0,0.0,0.0,0.0,0.0,0.0,0.0,0.0,0.0,0.0,0.0,0.0,0.0,0.0,0.0,0.0,0.0,0.0,0.0,0.0,0.0,0.0,0.0,0.0,0.0,0.0,0.0,0.0,0.0,0.0,-3.1634,-3.5344,-3.7126,-3.7259,-3.7177,-3.7036,-3.2575,-2.8952,-2.7037,-2.3165,0.0,0.0,0.0,0.0,0.0,0.0,0.0,0.0,0.0,0.0,0.0,0.0,0.0,0.0,0.0,0.0,0.0,0.0,0.0,0.0,0.0,0.0,0.0,0.0,0.0,0.0,0.0,0.0,0.0,0.0,0.0,0.0,0.0,0.0,0.0,0.0,0.0,0.0,0.0,0.0,0.0,0.0,0.0,0.0,0.0,0.0,0.0,0.0,0.0,0.0,0.0,0.0,0.0,0.0,0.0,0.0,0.0,0.0,0.0,0.0,0.0,0.0,0.0,0.0,0.0,0.0,0.0,0.0,0.0,0.0,0.0,0.0,0.0,0.0,0.0,0.0,0.0,0.0,0.0,0.0,0.0,0.0,0.0,0.0,0.0,0.0,0.0,0.0,0.0,0.0,0.0,0.0,0.0,0.0,0.0,0.0,0.0,0.0,0.0,0.0,0.0,0.0,-2.9994,-3.3092,0.0,-3.6188,-3.5958,-3.6175,-3.3064,-2.965,-2.6246,0.0,0.0,0.0,0.0,0.0,0.0,0.0,0.0,0.0,0.0,0.0,0.0,0.0,0.0,0.0,0.0,0.0,0.0,0.0,0.0,0.0,0.0,0.0,0.0,0.0,0.0,0.0,0.0,0.0,0.0,0.0,0.0,0.0,0.0,0.0,0.0,0.0,0.0,0.0,0.0,0.0,0.0,0.0,0.0,0.0,0.0,0.0,0.0,0.0,0.0,0.0,0.0,0.0,0.0,0.0,0.0,0.0,0.0,0.0,0.0,0.0,0.0,0.0,0.0,0.0,0.0,0.0,0.0,0.0,0.0,0.0,0.0,0.0,0.0,0.0,0.0,0.0,0.0,0.0,0.0,0.0,0.0,0.0,0.0,0.0,0.0,0.0,0.0,0.0,0.0,0.0,0.0,0.0,0.0,0.0,0.0,0.0,0.0,0.0,0.0,0.0,0.0,-2.6865,-2.9446,-3.2297,0.0,-3.5511,-3.5202,-3.5184,-3.2441,-2.9211,-2.5716,0.0,0.0,0.0,0.0,0.0,0.0,0.0,0.0,0.0,0.0,0.0,0.0,0.0,0.0,0.0,0.0,0.0,0.0,0.0,0.0,0.0,0.0,0.0,0.0,0.0,0.0,0.0,0.0,0.0,0.0,0.0,0.0,0.0,0.0,0.0,0.0,0.0,0.0,0.0,0.0,0.0,0.0,0.0,0.0,0.0,0.0,0.0,0.0,0.0,0.0,0.0,0.0,0.0,0.0,0.0,0.0,0.0,0.0,0.0,0.0,0.0,0.0,0.0,0.0,0.0,0.0,0.0,0.0,0.0,0.0,0.0,0.0,0.0,0.0,0.0,0.0,0.0,0.0,0.0,0.0,0.0,0.0,0.0,0.0,0.0,0.0,0.0,0.0,0.0,0.0,0.0,0.0,0.0,0.0,0.0,0.0,0.0,0.0,0.0,0.0,0.0,0.0,-2.65,-3.0498,-3.3727,-3.514,-3.5473,-3.5187,-3.4166,-3.0289,-2.7235,0.0,0.0,0.0,0.0,0.0,0.0,0.0,0.0,0.0,0.0,0.0,0.0,0.0,0.0,0.0,0.0,0.0,0.0,0.0,0.0,0.0,0.0,0.0,0.0,0.0,0.0,0.0,0.0,0.0,0.0,0.0,0.0,0.0,0.0,0.0,0.0,0.0,0.0,0.0,0.0,0.0,0.0,0.0,0.0,0.0,0.0,0.0,0.0,0.0,0.0,0.0,0.0,0.0,0.0,0.0,0.0,0.0,0.0,0.0,0.0,0.0,0.0,0.0,0.0,0.0,0.0,0.0,0.0,0.0,0.0,0.0,0.0,0.0,0.0,0.0,0.0,0.0,0.0,0.0,0.0,0.0,0.0,0.0,0.0,0.0,0.0,0.0,0.0,0.0,0.0,0.0,0.0,0.0,0.0,0.0,0.0,0.0,0.0,0.0,0.0,0.0,0.0,0.0,-2.6746,-3.0078,-3.2885,-3.4622,-3.4817,-3.4413,-3.3415,-3.1158,-2.831,-2.4799,0.0,0.0,0.0,0.0,0.0,0.0,0.0,0.0,0.0,0.0,0.0,0.0,0.0,0.0,0.0,0.0,0.0,0.0,0.0,0.0,0.0,0.0,0.0,0.0,0.0,0.0,0.0,0.0,0.0,0.0,0.0,0.0,0.0,0.0,0.0,0.0,0.0,0.0,0.0,0.0,0.0,0.0,0.0,0.0,0.0,0.0,0.0,0.0,0.0,0.0,0.0,0.0,0.0,0.0,0.0,0.0,0.0,0.0,0.0,0.0,0.0,0.0,0.0,0.0,0.0,0.0,0.0,0.0,0.0,0.0,0.0,0.0,0.0,0.0,0.0,0.0,0.0,0.0,0.0,0.0,0.0,0.0,0.0,0.0,0.0,0.0,0.0,0.0,0.0,0.0,0.0,0.0,0.0,0.0,0.0,0.0,0.0,0.0,0.0,0.0,0.0,0.0,-2.6691,-2.9832,-3.2445,-3.4104,-3.405,-3.3482,-3.2455,-3.0587,-2.797,-2.442,0.0,0.0,0.0,0.0,0.0,0.0,0.0,0.0,0.0,0.0,0.0,0.0,0.0,0.0,0.0,0.0,0.0,0.0,0.0,0.0,0.0,0.0,0.0,0.0,0.0,0.0,0.0,0.0,0.0,0.0,0.0,0.0,0.0,0.0,0.0,0.0,0.0,0.0,0.0,0.0,0.0,0.0,0.0,0.0,0.0,0.0,0.0,0.0,0.0,0.0,0.0,0.0,0.0,0.0,0.0,0.0,0.0,0.0,0.0,0.0,0.0,0.0,0.0,0.0,0.0,0.0,0.0,0.0,0.0,0.0,0.0,0.0,0.0,0.0,0.0,0.0,0.0,0.0,0.0,0.0,0.0,0.0,0.0,0.0,0.0,0.0,0.0,0.0,0.0,0.0,0.0,0.0,0.0,0.0,0.0,0.0,0.0,0.0,0.0,0.0,0.0,0.0,-2.6477,-2.9707,-3.2265,-3.354,-3.3253,-3.2538,-3.1483,-2.9267,-2.6869,-2.4465,0.0,0.0,0.0,0.0,0.0,0.0,0.0,0.0,0.0,0.0,0.0,0.0,0.0,0.0,0.0,0.0,0.0,0.0,0.0,0.0,0.0,0.0,0.0,0.0,0.0,0.0,0.0,0.0,0.0,0.0,0.0,0.0,0.0,0.0,0.0,0.0,0.0,0.0,0.0,0.0,0.0,0.0,0.0,0.0,0.0,0.0,0.0,0.0,0.0,0.0,0.0,0.0,0.0,0.0,0.0,0.0,0.0,0.0,0.0,0.0,-2.6717,0.0,0.0,0.0,0.0,0.0,0.0,0.0,0.0,0.0,0.0,0.0,0.0,0.0,0.0,0.0,0.0,0.0,0.0,0.0,0.0,0.0,0.0,0.0,0.0,0.0,0.0,0.0,0.0,0.0,0.0,0.0,0.0,0.0,0.0,0.0,0.0,0.0,0.0,0.0,0.0,0.0,-2.6467,-2.9544,-3.1845,-3.2761,-3.2744,-3.2347,-3.147,-2.9769,-2.7714,-2.5301,-2.1896,0.0,0.0,0.0,0.0,0.0,0.0,0.0,0.0,0.0,0.0,0.0,0.0,0.0,0.0,0.0,0.0,0.0,0.0,0.0,0.0,0.0,0.0,0.0,0.0,0.0,0.0,0.0,0.0,0.0,0.0,0.0,0.0,0.0,0.0,0.0,0.0,0.0,0.0,0.0,0.0,0.0,0.0,0.0,0.0,0.0,0.0,0.0,0.0,0.0,0.0,0.0,0.0,0.0,0.0,0.0,0.0,0.0,0.0,0.0,0.0,-2.8721,0.0,0.0,0.0,0.0,0.0,0.0,0.0,0.0,0.0,0.0,0.0,0.0,0.0,0.0,0.0,0.0,0.0,0.0,0.0,0.0,0.0,0.0,0.0,0.0,0.0,0.0,0.0,0.0,0.0,0.0,0.0,0.0,0.0,0.0,0.0,0.0,0.0,0.0,0.0,0.0,-2.6485,-2.9487,-3.1549,-3.1971,-3.2027,-3.1696,-3.0889,-2.9312,-2.7523,-2.5491,-2.3015,0.0,0.0,0.0,0.0,0.0,0.0,0.0,0.0,0.0,0.0,0.0,0.0,0.0,0.0,0.0,0.0,0.0,0.0,0.0,0.0,0.0,0.0,0.0,0.0,0.0,0.0,0.0,0.0,0.0,0.0,0.0,0.0,0.0,0.0,0.0,0.0,0.0,0.0,0.0,0.0,0.0,0.0,0.0,0.0,0.0,0.0,0.0,0.0,0.0,0.0,0.0,0.0,0.0,-3.6029,-3.6319,-3.6319,-3.6319,-3.6678,-3.7127,-3.3978,-3.268,-3.2553,-2.961,0.0,0.0,0.0,0.0,0.0,0.0,0.0,0.0,0.0,0.0,0.0,0.0,0.0,0.0,0.0,0.0,0.0,0.0,0.0,0.0,0.0,0.0,0.0,0.0,-2.9908,-2.924,0.0,0.0,0.0,0.0,0.0,0.0,0.0,0.0,0.0,0.0,0.0,0.0,-2.6445,-2.9313,-3.1157,-3.1157,-3.1157,-3.0901,-3.0228,-2.8759,-2.7273,-2.5795,-2.4184,-2.2328,0.0,0.0,0.0,0.0,0.0,0.0,0.0,0.0,0.0,0.0,0.0,0.0,0.0,0.0,0.0,0.0,0.0,0.0,0.0,0.0,0.0,0.0,0.0,0.0,0.0,0.0,0.0,0.0,0.0,0.0,0.0,0.0,-2.7467,-2.7663,0.0,0.0,0.0,0.0,0.0,0.0,0.0,0.0,0.0,0.0,0.0,0.0,0.0,-3.5761,-3.7216,-3.7307,-3.8043,-3.9426,-3.9535,-3.957,-3.957,-3.957,-3.9642,-3.9714,-3.9193,0.0,-3.4916,-3.3101,0.0,0.0,0.0,0.0,0.0,0.0,0.0,0.0,0.0,0.0,0.0,0.0,0.0,0.0,0.0,0.0,0.0,0.0,0.0,0.0,0.0,0.0,-3.2484,-3.19,-3.1827,-3.1537,0.0,-2.7428,-2.5048,-2.4512,-2.2383,0.0,0.0,0.0,0.0,0.0,0.0,0.0,-2.6322,-2.8638,-3.0178,-3.0178,-3.0178,-3.0142,-3.0038,-2.9187,-2.8263,-2.7344,-2.5783,-2.4452,-2.3411,-2.0696,0.0,0.0,0.0,0.0,0.0,0.0,0.0,0.0,0.0,0.0,0.0,0.0,0.0,0.0,0.0,0.0,0.0,0.0,0.0,0.0,0.0,0.0,0.0,0.0,0.0,0.0,0.0,0.0,0.0,-2.704,-2.9437,-2.9385,-3.0166,-3.0075,0.0,0.0,0.0,0.0,0.0,0.0,0.0,0.0,0.0,-3.7577,-3.8385,-3.9354,-4.0485,-4.0878,-4.1414,-4.2131,-4.2483,-4.2678,-4.266,-4.2248,-4.2051,-4.2034,-4.1588,-4.0334,-3.8508,-3.6538,-3.4379,-3.2164,0.0,0.0,0.0,0.0,-2.9629,-3.0007,-3.0599,-3.1046,0.0,-3.0885,0.0,0.0,0.0,0.0,0.0,0.0,0.0,0.0,0.0,0.0,-3.4099,-3.4208,-3.4226,-3.4135,-3.3773,-3.1646,-2.9147,0.0,-2.5739,-2.4642,-2.3201,0.0,0.0,0.0,0.0,-2.6359,-2.7588,-2.9065,-2.9995,-2.9995,-2.9995,-2.9813,-2.9363,-2.8974,-2.8203,-2.6952,-2.6202,-2.5045,-2.3343,-2.1953,-2.0456,0.0,0.0,0.0,0.0,0.0,0.0,0.0,0.0,0.0,0.0,0.0,0.0,0.0,0.0,0.0,0.0,0.0,0.0,0.0,0.0,0.0,0.0,0.0,0.0,0.0,0.0,0.0,0.0,-2.9173,-3.1102,-3.1163,-3.2546,-3.2721,0.0,0.0,0.0,0.0,0.0,0.0,-3.7703,-3.8743,-3.9909,-4.1269,-4.2113,-4.2902,-4.3709,-4.4023,-4.416,-4.416,-4.445,-4.4603,-4.4567,-4.4014,-4.3675,-4.3483,-4.2876,-4.2144,-4.1254,-3.9189,-3.7219,-3.5407,-3.4582,-3.3575,-3.2588,-3.318,-3.3414,-3.3591,-3.4887,-3.5299,-3.5229,-3.4963,0.0,-3.188,-3.0256,0.0,0.0,0.0,0.0,-3.2234,-3.3647,-3.4606,-3.5367,-3.5965,-3.6109,-3.6109,-3.6109,-3.5005,-3.3027,0.0,-2.8989,-2.8239,-2.5888,0.0,0.0,0.0,0.0,-2.7724,-2.8894,-2.958,-2.9944,-2.9944,-2.9762,-2.9398,-2.8803,-2.8712,-2.8088,-2.6665,-2.64,-2.539,-2.3365,-2.2951,-2.1944,-2.0182,0.0,0.0,0.0,0.0,0.0,0.0,0.0,0.0,0.0,0.0,0.0,0.0,0.0,0.0,0.0,0.0,0.0,0.0,0.0,0.0,0.0,0.0,0.0,0.0,0.0,0.0,0.0,0.0,0.0,-3.3528,-3.6058,0.0,0.0,0.0,0.0,-3.7072,-3.8848,-4.0233,-4.0926,-4.2447,-4.3641,-4.4357,-4.516,-4.5985,-4.677,-4.6034,-4.5677,-4.5677,-4.4963,-4.4603,-4.4603,-4.4549,-4.4157,-4.3497,-4.3444,-4.2983,-4.2111,-4.0467,-3.9364,-3.8598,-3.7793,-3.7452,-3.7451,-3.7487,-3.7505,-3.754,-3.7735,-3.7753,-3.7756,-3.8635,-3.7299,-3.5063,-3.3457,-3.2488,0.0,0.0,-3.3773,-3.4609,-3.546,-3.6272,-3.6886,-3.6941,-3.6941,-3.6941,-3.6941,-3.6272,-3.517,0.0,-3.1288,-2.9694,-2.9531,0.0,-2.8445,-2.8377,-2.9134,-2.9722,-2.9743,-2.9797,-2.9816,-2.9816,-2.9132,-2.8648,-2.86,-2.86,-2.8238,-2.7399,-2.6638,-2.5805,-2.4918,-2.3487,-2.2716,-2.2703,-2.0258,0.0,0.0,0.0,0.0,0.0,0.0,0.0,0.0,0.0,0.0,0.0,0.0,0.0,0.0,0.0,0.0,0.0,0.0,0.0,0.0,0.0,0.0,0.0,0.0,0.0,0.0,0.0,0.0,-3.6408,-3.872,0.0,-3.813,-3.8948,-3.9866,-4.0497,-4.2174,-4.3665,-4.4868,-4.5976,-4.69,-4.7599,-4.7884,-4.8187,-4.8496,-4.7711,-4.7342,-4.7342,-4.6516,-4.6141,-4.6123,-4.5624,-4.4963,-4.4175,-4.3693,-4.3036,-4.2272,-4.168,-4.1004,-4.0292,-3.9988,-3.9579,-3.9151,-3.9151,-3.9151,-3.917,-3.9299,-3.9317,-3.9263,-3.9229,-3.8616,-3.7731,-3.6714,-3.6256,-3.6234,-3.7033,-3.7087,-3.7105,-3.7902,-3.7938,-3.7774,-3.7774,-3.7774,-3.7774,-3.7774,-3.714,-3.6399,-3.5835,-3.377,-3.1944,-3.1419,-3.069,-2.9997,-2.9445,-3.0087,-3.0794,-3.1288,-3.0889,-3.0581,-3.0581,-2.9857,-2.9156,-2.8636,-2.8129,-2.7477,-2.6681,-2.5878,-2.5063,-2.4248,-2.3705,-2.321,-2.2781,-2.1379,-1.9439,0.0,0.0,0.0,0.0,0.0,0.0,0.0,0.0,0.0,0.0,0.0,0.0,0.0,0.0,0.0,0.0,0.0,0.0,0.0,0.0,0.0,0.0,0.0,0.0,0.0,0.0,-3.8252,-3.9483,-4.1674,-4.2785,-4.1958,-4.2938,-4.3817,-4.4253,-4.5547,-4.6726,-4.7711,-4.8282,-4.8925,-4.9668,-4.9685,-4.9685,-4.9685,-4.921,-4.8716,-4.8199,-4.7663,-4.727,-4.6962,-4.6444,-4.5766,-4.4942,-4.4193,-4.3429,-4.268,-4.2394,-4.1984,-4.1502,-4.1502,-4.1181,-4.0717,-4.0717,-4.0717,-4.0717,-4.0814,-4.087,-4.0784,-4.0072,-3.9876,-3.9769,-3.9049,-3.8885,-3.9045,-3.9588,-3.937,-3.9097,-3.9623,-3.9188,-3.8607,-3.8607,-3.8408,-3.8209,-3.8209,-3.7792,-3.7393,-3.7393,-3.5675,-3.3954,-3.3158,-3.256,-3.1926,-3.1143,-3.1473,-3.1999,-3.2542,-3.189,-3.1401,-3.1401,-3.0437,-2.9585,-2.9047,-2.802,-2.7061,-2.6258,-2.5443,-2.4646,-2.3831,-2.3806,-2.3591,-2.3171,-2.2173,-2.0343,-1.7676,0.0,0.0,0.0,0.0,0.0,0.0,0.0,0.0,0.0,0.0,0.0,0.0,0.0,0.0,0.0,0.0,0.0,0.0,0.0,0.0,0.0,0.0,0.0,-3.5728,-3.8184,-4.0676,-4.2668,-4.4923,-4.6176,-4.5936,-4.7301,-4.8234,-4.8234,-4.8925,-4.9329,-4.9329,-4.9364,-4.9721,-5.0513,-5.0548,-5.0548,-5.0548,-5.0513,-4.9745,-4.8234,-4.8216,-4.7788,-4.6998,-4.6998,-4.6551,-4.5766,-4.4977,-4.4193,-4.3426,-4.2662,-4.2325,-4.2308,-4.2308,-4.2308,-4.2308,-4.2308,-4.2308,-4.2308,-4.2308,-4.2405,-4.2358,-4.1435,-4.1223,-4.1176,-4.0407,-4.0306,-4.0473,-4.0473,-4.051,-4.0528,-4.0528,-4.0003,-3.9423,-3.9405,-3.8807,-3.8227,-3.8209,-3.8209,-3.8209,-3.8209,-3.6942,-3.5623,-3.4808,-3.4643,-3.4353,-3.3556,-3.3429,0.0,-3.3393,-3.2723,-3.2234,-3.2198,-3.0817,-2.9857,-2.9802,-2.8323,-2.7061,-2.6258,-2.5425,-2.461,-2.3831,-2.3806,-2.3899,-2.4097,-2.271,-2.1102,-1.9273,0.0,0.0,0.0,0.0,0.0,0.0,0.0,0.0,0.0,0.0,0.0,0.0,0.0,0.0,0.0,0.0,0.0,0.0,0.0,0.0,0.0,0.0,-3.7853,-3.8068,-4.0954,-4.36,-4.5104,-4.715,-4.8419,-4.8348,-4.8746,-4.9014,-4.9014,-4.9745,-5.0174,-5.0174,-5.0727,-5.1137,-5.1351,-5.1369,-5.1369,-5.1369,-5.0798,-4.9995,-4.8996,-4.8466,-4.7788,-4.6998,-4.6998,-4.6551,-4.5784,-4.557,-4.4732,-4.3479,-4.3268,-4.2822,-4.2308,-4.2308,-4.2308,-4.2308,-4.2308,-4.2308,-4.2308,-4.2308,-4.2308,-4.2331,-4.2174,-4.2123,-4.2127,-4.1974,-4.1943,-4.2038,-4.2115,-4.172,-4.1305,-4.1361,-4.0782,-4.0057,-3.9532,-3.9224,-3.8898,-3.8336,-3.8209,-3.8209,-3.8209,-3.783,-3.7268,-3.6488,-3.5367,-3.4519,-3.4283,-3.3773,0.0,-3.3393,-3.3212,-3.285,-3.2252,-3.1799,-3.1071,-2.9893,-2.8323,-2.7061,-2.6258,-2.49,-2.4031,-2.3824,-2.3806,-2.3827,-2.3888,-2.2447,-2.1534,0.0,0.0,0.0,0.0,0.0,0.0,0.0,0.0,0.0,0.0,0.0,0.0,0.0,0.0,0.0,0.0,0.0,0.0,0.0,0.0,0.0,0.0,-3.9243,-4.1121,-4.2023,-4.3852,-4.5813,-4.7773,-4.9077,-4.9942,-5.0281,-5.0316,-5.0316,-5.0316,-5.0744,-5.0994,-5.0994,-5.144,-5.169,-5.169,-5.169,-5.169,-5.169,-5.1244,-5.0602,-4.9799,-4.9032,-4.8247,-4.7502,-4.7163,-4.673,-4.6284,-4.5945,-4.5302,-4.4428,-4.3765,-4.3233,0.0,0.0,0.0,0.0,0.0,-4.2308,-4.2308,-4.2308,-4.2308,-4.2308,-4.2387,-4.2425,-4.2425,-4.245,-4.253,-4.2609,-4.2688,-4.2441,-4.2156,-4.2193,-4.1596,-4.089,-4.0474,-3.9858,-3.926,-3.8807,-3.8444,-3.8209,-3.8209,-3.8209,0.0,-3.7575,-3.6451,-3.5385,-3.4715,-3.4208,-3.3791,-3.3447,-3.3393,-3.323,-3.2741,-3.2397,-3.1673,-3.0418,-2.883,0.0,0.0,0.0,-2.4139,-2.3813,-2.3888,0.0,0.0,0.0,0.0,0.0,0.0,0.0,0.0,-2.1274,-2.1244,0.0,0.0,0.0,0.0,0.0,0.0,0.0,0.0,0.0,0.0,0.0,0.0,0.0,0.0,0.0,0.0,-4.194,-4.4405,-4.6546,-4.6646,-4.7495,-5.0171,-5.0584,-5.0923,-5.1619,-5.169,-5.169,-5.169,-5.169,-5.169,-5.169,0.0,0.0,0.0,0.0,-5.1726,-5.1815,-5.1833,-5.1422,-5.0637,-4.981,-4.9014,-4.8181,-4.7377,-4.6998,-4.6944,-4.6248,-4.5873,-4.5695,-4.4339,-4.3658,-4.3429,-4.2608,-4.2308,-4.2308,-4.2308,-4.2308,-4.2308,-4.2308,0.0,0.0,-4.2308,-4.2308,-4.2308,-4.2308,-4.243,-4.257,-4.2589,-4.2709,-4.2863,-4.2882,-4.2356,-4.1813,-4.1723,-4.0637,-3.9604,-3.9441,-3.8826,-3.8317,-3.8227,-3.8209,-3.8209,-3.8209,-3.7538,-3.6524,-3.5095,-3.4733,-3.4353,-3.3628,-3.3465,-3.3393,-3.3393,0.0,0.0,-3.1197,-2.9663,-2.8382,-2.7586,-2.6041,-2.4809,-2.4103,-2.4235,-2.4253,-2.4067,-2.4421,-2.4422,-2.4099,-2.4659,-2.5248,-2.578,-2.3046,-2.3026,0.0,0.0,0.0,0.0,0.0,0.0,0.0,0.0,0.0,0.0,0.0,0.0,0.0,0.0,0.0,-4.2139,-4.3662,-4.5525,-4.8581,-4.8605,-4.8853,-5.0318,-5.1066,-5.153,-5.1672,-5.169,-5.169,-5.169,-5.169,-5.169,-5.169,-5.169,-5.169,-5.169,-5.169,-5.1993,-5.2661,-5.2679,-5.2243,-5.1458,0.0,0.0,-4.8181,-4.7377,-4.6998,-4.698,-4.6837,-4.6391,-4.5784,-4.5481,-4.4624,-4.3429,-4.2608,-4.2308,-4.2308,-4.2308,-4.2308,-4.2308,-4.2308,-4.2308,-4.2308,-4.2308,-4.2308,-4.2308,-4.2308,-4.2328,0.0,-4.2486,-4.2588,-4.2688,-4.2785,-4.2735,-4.2502,-4.185,-4.1469,-4.0908,-3.9659,-3.9278,-3.8988,-3.8336,-3.8209,-3.8209,-3.8209,-3.7538,-3.6886,-3.6578,-3.5421,-3.4537,-3.4389,-3.381,-3.3393,-3.3393,-3.3266,-3.2832,-3.2035,-3.0477,-2.921,-2.8419,-2.6862,-2.5896,-2.5751,-2.5767,-2.5756,-2.5664,-2.5771,-2.5878,-2.5903,-2.6225,-2.6543,-2.6798,-2.5736,-2.5875,0.0,0.0,0.0,0.0,0.0,0.0,0.0,0.0,0.0,0.0,0.0,-3.6555,0.0,0.0,-4.2382,-4.5144,-4.5963,-4.7191,-4.9843,-4.9963,-5.0126,-5.0984,-5.1458,-5.169,-5.169,-5.169,-5.169,-5.169,-5.169,-5.169,-5.169,-5.169,-5.169,-5.169,-5.169,-5.1886,-5.2304,-5.2304,-5.2083,-5.1672,-5.0477,-4.9513,-4.871,-4.7533,-4.6998,-4.6998,-4.6998,-4.6766,-4.6373,-4.5963,-4.4892,-4.3444,-4.3054,-4.2644,-4.2308,-4.2308,-4.2308,-4.2308,-4.2308,-4.2308,-4.2308,-4.2308,-4.2308,-4.2308,-4.2308,-4.2346,-4.2425,-4.2483,-4.2606,-4.2725,-4.2783,-4.2861,-4.2792,-4.2393,-4.1976,-4.1488,-4.0727,-3.9948,-3.9278,-3.8879,-3.848,-3.8209,-3.8209,-3.7865,-3.7466,-3.7067,-3.6325,-3.5512,-3.4715,-3.4262,-3.3846,-3.3447,-3.3393,-3.3067,-3.227,-3.0726,-2.9277,-2.8075,-2.7242,-2.662,-2.6222,-2.6204,-2.6181,-2.6157,-2.6181,-2.6306,-2.6504,-2.6596,-2.7027,-2.773,-2.7439,-2.7584,0.0,0.0,0.0,0.0,0.0,0.0,0.0,0.0,-3.4442,-3.6042,-3.7914,-3.9835,-4.1707,-4.3234,-4.4973,-4.7258,-4.7828,-4.8626,-5.0352,-5.0721,-5.1017,-5.164,-5.169,-5.169,-5.169,-5.169,-5.169,-5.169,-5.169,-5.169,-5.169,-5.169,-5.169,-5.169,-5.169,-5.1779,-5.1922,-5.1922,-5.1922,-5.1904,-5.0316,-4.9436,-4.924,-4.7693,-4.6998,-4.6998,-4.6998,-4.6998,-4.6926,-4.6123,-4.5071,-4.3929,-4.3604,-4.3108,-4.2501,-4.2361,-4.2308,-4.2308,-4.2308,-4.2308,-4.2308,-4.2308,-4.2308,-4.2308,-4.2308,-4.2366,-4.2463,-4.2483,-4.2625,-4.2764,-4.2783,-4.2861,-4.2901,-4.2901,-4.2393,-4.1886,-4.1723,-4.0709,-3.9767,-3.946,-3.8879,-3.839,-3.8227,-3.8209,-3.7991,-3.7339,-3.7104,-3.6488,-3.5023,-3.4715,-3.4298,-3.3502,-3.3393,-3.3067,-3.227,-3.0871,-2.9422,-2.796,-2.7713,-2.7333,-2.6681,-2.6651,-2.6651,-2.6651,-2.6651,-2.6745,-2.6948,-2.6987,-2.754,-2.8549,-2.865,-2.8774,-3.0075,-3.0191,-3.1019,-3.3723,-3.3972,-3.4568,0.0,0.0,-3.9166,-4.1226,-4.2357,-4.328,-4.4158,-4.5533,-4.6641,-4.6937,-4.8006,-4.9056,-4.9804,-5.0422,-5.1017,-5.164,-5.169,-5.169,-5.169,-5.169,-5.169,-5.169,-5.169,-5.169,-5.169,-5.169,-5.169,-5.169,-5.169,-5.2029,-5.2768,-5.2768,-5.2768,-5.2751,-5.1137,-4.9971,-4.924,-4.7693,-4.6998,-4.6998,-4.6998,-4.6998,-4.6926,-4.6123,-4.5713,-4.541,-4.4036,-4.3426,-4.3286,-4.2555,-4.2308,-4.2308,-4.2308,-4.2308,-4.2308,-4.2308,-4.2308,-4.2308,-4.2308,-4.2308,-4.2346,-4.2463,-4.2566,-4.2649,-4.2764,-4.2861,-4.2901,-4.2901,-4.2828,-4.2574,-4.185,-4.156,-4.1035,-3.9659,-3.9315,-3.9025,-3.8317,-3.8209,-3.8172,-3.8082,-3.7466,-3.6687,-3.5768,-3.5025,-3.4298,-3.3502,-3.3393,-3.3067,-3.227,-3.1365,-3.0491,-2.9585,-2.8853,-2.8437,-2.8346,-2.8278,-2.8234,-2.8234,-2.8234,-2.8227,-2.8206,-2.8622,-2.8915,-2.9113,-2.9476,-2.9691,-3.2829,-3.3375,-3.4104,-3.5777,-3.6589,-3.7608,-3.9895,-4.0448,-4.1028,-4.2771,-4.4092,-4.5119,-4.5831,-4.6841,-4.7761,0.0,-4.8772,-4.9381,-5.0723,-5.0839,-5.0858,-5.0973,-5.1405,-5.169,-5.169,-5.169,-5.169,-5.169,-5.169,-5.169,-5.169,-5.169,-5.169,-5.169,-5.169,-5.1851,-5.219,-5.219,-5.219,-5.2197,-5.1048,-5.0084,-4.9257,-4.8193,-4.7449,-4.6998,-4.6998,-4.6998,-4.6962,-4.6641,-4.6212,-4.5749,-4.5088,-4.4303,-4.3411,-4.259,-4.2308,-4.2308,-4.2308,-4.2308,-4.2308,-4.2308,-4.2308,-4.2308,-4.2308,-4.2308,-4.2308,-4.2366,-4.2488,-4.2609,-4.2625,-4.2765,-4.29,-4.2861,-4.2862,-4.281,-4.2427,-4.1974,-4.1431,-4.0708,-3.9878,-3.9191,-3.8848,-3.8395,-3.807,-3.807,-3.7867,-3.7412,-3.6598,-3.5802,-3.4808,-3.3538,-3.3393,-3.3067,-3.227,-3.189,-3.1161,-2.9875,-2.9494,-2.907,-2.8567,-2.8505,-2.8492,-2.8492,-2.8492,-2.8538,-2.8633,-2.8719,-2.8943,-2.9341,-2.989,-3.0302,-3.4601,-3.5595,-3.6539,-3.7466,-3.8791,-4.005,-4.0796,-4.1508,-4.2357,-4.3661,-4.4754,-4.5777,-4.6695,-4.746,-4.8306,-4.9325,-4.9468,-4.9896,-5.1271,-5.1042,-5.0751,-5.082,-5.1155,-5.1458,-5.1672,-5.169,-5.169,-5.169,-5.169,-5.169,-5.169,-5.169,-5.169,-5.169,-5.169,-5.169,-5.169,-5.169,-5.169,-5.169,-5.0887,-5.0191,-4.9596,-4.8639,-4.777,-4.6998,-4.6998,-4.6998,-4.6998,-4.6998,-4.6659,-4.6105,-4.5891,-4.5124,-4.4018,-4.3001,-4.2483,-4.2308,-4.2308,-4.2308,-4.2308,-4.2308,-4.2308,-4.2308,-4.2308,-4.2308,-4.2308,-4.2328,-4.2468,-4.2568,-4.2526,-4.2668,-4.2805,-4.2764,-4.2785,-4.2805,-4.2764,-4.2294,-4.1788,-4.1459,-4.0543,-3.968,-3.9247,-3.8688,-3.822,-3.8003,-3.8072,-3.7834,-3.7054,-3.6059,-3.4904,-3.3463,-3.3319,-3.3084,-3.2488,-3.2253,-3.1667,-3.0505,-3.0229,-2.9718,-2.8871,-2.8804,-2.8701,-2.8484,-2.844,-2.8621,-2.8991,-2.8907,-2.9204,-2.985,-3.0457,-3.0903,-3.4883,-3.5959,-3.7417,-3.8884,-4.0282,-4.1541,-4.2258,-4.3002,-4.3731,-4.4506,-4.4688,-4.515,-4.6469,-4.7314,-4.8014,-4.8627,-4.9858,-5.0749,-5.0803,-5.0642,-5.0791,-5.1565,-5.0994,-5.0834,0.0,-5.169,-5.169,-5.169,-5.169,-5.169,-5.169,-5.169,-5.169,-5.169,-5.169,-5.169,-5.169,-5.169,-5.169,-5.169,-5.0887,-5.0495,-5.0423,-4.8895,-4.777,-4.6998,-4.6998,-4.6998,-4.6998,-4.6998,-4.7002,-4.6873,-4.6105,-4.5766,-4.5552,-4.4014,-4.2965,-4.2308,-4.2308,-4.2308,-4.2308,-4.2308,-4.2308,-4.2308,-4.2308,-4.2308,-4.2346,-4.2463,-4.2503,-4.2524,-4.257,-4.2609,-4.2609,-4.2609,-4.2609,-4.2609,-4.2609,-4.2591,-4.234,-4.1566,-4.1369,-4.0865,-3.9355,-3.9085,-3.8798,-3.8025,-3.7899,-3.7646,-3.6886,-3.5493,-3.4181,-3.3206,-3.3101,-3.3101,-3.3065,-3.2415,-3.2013,-3.2029,-3.1307,-3.0495,-2.9701,-2.9593,-2.9193,-2.8411,-2.834,-2.869,-2.9474,-2.9665,-3.0178,-3.0947,-3.1378,-3.1651,-3.6224,-3.7433,-3.8891,-4.0332,-4.1425,-4.2307,-4.3052,-4.3416,-4.3664,-4.3926,-4.3976,-4.4119,-4.456,-4.5564,-4.6719,-4.7851,-4.9139,-5.0339,-5.1252,-5.1358,-5.1191,-5.0941,-5.1137,0.0,0.0,0.0,0.0,-5.169,-5.169,-5.169,-5.169,-5.169,-5.169,-5.169,-5.169,-5.169,-5.169,-5.169,-5.169,-5.169,-5.0887,-5.0513,-5.0459,-4.8889,-4.8056,-4.777,-4.7212,-4.6998,-4.6998,-4.6998,-4.6998,-4.6962,-4.6694,-4.6266,-4.5677,-4.4603,-4.3747,-4.3019,-4.2504,-4.2308,-4.2308,-4.2308,-4.2308,-4.2308,-4.2308,-4.2308,-4.2308,-4.2346,-4.2425,-4.2465,-4.2409,-4.251,-4.2589,-4.2528,-4.2568,-4.2589,-4.2546,-4.2526,-4.2416,-4.2069,-4.1644,-4.1002,-3.9944,-3.9317,-3.8689,-3.79,-3.7828,-3.7611,-3.6836,-3.581,-3.4841,-3.3982,-3.3425,-3.3101,-3.3101,-3.2868,-3.2523,-3.2049,-3.1779,-3.1261,-3.0413,-3.0331,-3.0191,-2.9926,-2.9912,-3.0023,-3.0292,-3.0363,-3.0552,-3.0875,-3.1641,-3.2087,-3.7615,-3.8941,-4.0332,-4.1508,-4.234,-4.3019,-4.3482,-4.356,-4.3394,-4.3127,-4.286,-4.2819,-4.3185,-4.4041,-4.5397,-4.7535,-4.8774,-5.0006,-5.1479,-5.144,-5.1191,-5.0959,-5.1137,-5.1173,0.0,0.0,0.0,-5.169,-5.169,-5.169,-5.169,-5.169,-5.169,-5.169,-5.169,-5.169,-5.169,-5.169,-5.169,-5.169,-5.1173,-5.078,-5.0459,-4.9174,-4.8443,-4.8163,-4.7359,-4.6998,-4.6998,-4.6998,-4.6998,-4.6998,-4.6998,-4.6676,-4.6105,-4.4995,-4.43,-4.375,-4.2662,-4.2308,-4.2308,-4.2308,-4.2308,-4.2308,-4.2308,-4.2308,-4.2308,-4.2308,-4.2366,-4.2405,-4.2308,-4.2389,-4.247,-4.2445,-4.2468,-4.247,-4.2445,-4.2425,-4.2405,-4.2308,-4.1955,-4.1405,-4.0599,-3.9581,-3.8579,-3.7775,-3.7739,-3.7524,-3.6769,-3.6212,-3.5477,-3.4351,-3.3761,-3.3347,-3.306,-3.3024,-3.2842,-3.2391,-3.2355,-3.1981,-3.113,-3.1079,-3.0939,-3.0624,-3.0624,-3.0767,-3.1053,-3.1053,-3.1237,-3.1574,-3.2246,-3.2637,-3.9017,-4.0398,-4.1612,-4.2357,-4.3069,-4.3582,-4.3549,-4.3387,-4.2962,-4.2126,-4.142,-4.1248,0.0,0.0,-4.4171,-4.7464,-4.8722,-4.987,-5.1476,-5.1048,-5.0834,0.0,0.0,0.0,0.0,0.0,0.0,-5.169,0.0,-5.169,-5.169,-5.169,-5.169,-5.169,-5.169,-5.169,-5.169,-5.169,-5.169,-5.169,-5.169,-5.1298,-5.053,-4.9685,-4.8925,-4.8216,-4.7377,-4.6998,-4.6998,-4.6998,-4.6998,-4.6998,-4.6998,-4.6998,-4.6801,-4.5173,-4.4603,-4.4371,-4.2822,-4.2308,-4.2308,-4.2308,-4.2308,-4.2308,-4.2308,-4.2308,-4.2308,-4.2308,-4.2308,-4.2308,-4.2308,-4.2308,-4.2308,-4.2308,-4.2308,-4.2308,-4.2308,-4.2308,-4.2308,-4.2308,-4.2272,-4.2004,-4.1234,-3.9825,-3.854,-3.7791,-3.7631,-3.7363,-3.6719,-3.6629,-3.5985,-3.4383,-3.4151,-3.3794,-3.3025,-3.2918,-3.2932,-3.2979,-3.2979,-3.2655,-3.1882,-3.1846,-3.1476,-3.0636,-3.0618,-3.1011,-3.176,-3.176,-3.215,-3.29,-3.3101,-3.319,-4.0481,-4.1541,-4.239,-4.3135,-4.3449,-4.3449,-4.2903,-4.2306,-4.1522,-4.0267,-3.9671,-3.9123,0.0,0.0,0.0,-4.4741,-4.7429,0.0,-5.1476,-5.1512,0.0,-5.1672,0.0,-5.1476,-5.1672,-5.169,0.0,0.0,-5.169,-5.169,-5.169,-5.169,-5.169,-5.169,-5.169,-5.169,-5.169,-5.169,-5.169,-5.169,-5.169,-5.1583,-5.1351,-4.9935,-4.9186,-4.8942,-4.7586,-4.6998,-4.6998,-4.6998,-4.6998,-4.6998,-4.6998,-4.6998,-4.6801,-4.5173,-4.4603,-4.4371,-4.2822,-4.2308,-4.2308,-4.2308,-4.2308,-4.2308,-4.2308,-4.2308,-4.2308,-4.2308,-4.2308,-4.2308,-4.2308,-4.2308,-4.2308,-4.2308,-4.2308,-4.2308,-4.2308,-4.2308,-4.2308,-4.2308,-4.1805,-4.1341,-4.1145,-3.9825,-3.8718,-3.8522,-3.7969,-3.7541,-3.7381,-3.6809,-3.6291,-3.5864,-3.4793,-3.4026,-3.3812,-3.3239,-3.29,-3.2916,-3.2932,-3.2842,-3.2628,-3.2628,-3.2523,-3.2293,-3.2293,-3.24,-3.2596,-3.2596,-3.2704,-3.29,-3.2945,-3.2995,-4.1994,-4.2819,-4.3487,-4.3905,-4.391,-4.3513,-4.2302,-4.1554,-4.0557,-3.8572,-3.7884,-3.7382,-3.6423,-3.8668,-4.1341,0.0,0.0,0.0,-5.0905,-5.1476,-5.169,0.0,-5.169,0.0,-5.169,-5.169,-5.169,0.0,-5.169,-5.169,-5.169,-5.169,-5.169,-5.169,-5.169,-5.169,-5.169,-5.169,-5.169,-5.169,-5.169,-5.169,-5.1654,-5.0405,-4.9614,-4.9222,0.0,-4.7342,-4.6998,-4.6998,-4.6998,-4.6998,-4.6998,-4.6998,-4.6837,-4.5588,-4.4888,-4.4424,-4.3251,-4.259,-4.2308,-4.2308,-4.2308,-4.2308,-4.2308,-4.2308,-4.2308,-4.2308,-4.2308,-4.2308,-4.2308,-4.2308,-4.2308,-4.2308,-4.2308,-4.2308,-4.2308,-4.2308,-4.2308,-4.2308,-4.193,-4.1502,-4.1163,-4.0092,-3.9163,-3.8861,-3.8112,-3.7595,-3.7595,-3.722,-3.6774,-3.6435,-3.5632,-3.4847,-3.4169,-3.3687,-3.3293,-3.2918,-3.29,-3.29,-3.29,-3.29,-3.29,-3.29,-3.29,-3.29,-3.29,-3.29,-3.29,-3.29,-3.29,-3.29,-4.3437,-4.4133,-4.4614,-4.4614,-4.4356,-4.3631,-4.1871,-4.0968,-3.9731,-3.7108,-3.6241,-3.5861,-3.547,-3.6941,-3.9287,-4.2635,0.0,-4.7693,-5.0156,-5.1101,-5.1583,-5.1672,-5.169,-5.169,-5.169,-5.169,-5.169,-5.169,-5.169,-5.169,-5.169,-5.169,-5.169,-5.169,-5.169,-5.169,-5.169,-5.169,-5.169,-5.169,-5.169,-5.169,-5.1672,-5.0869,-5.0066,-4.9257,-4.8538,0.0,-4.6998,-4.6998,-4.6998,-4.6998,-4.6998,-4.6998,-4.689,-4.6105,-4.5302,-4.4478,-4.3747,-4.2965,-4.2308,-4.2308,-4.2308,-4.2308,-4.2308,-4.2308,-4.2308,-4.2308,-4.2308,-4.2308,-4.2308,-4.2308,-4.2308,-4.2308,-4.2308,-4.2308,-4.2308,-4.2308,-4.2308,-4.2308,-4.2308,-4.2073,-4.1377,-4.0592,-3.9825,-3.9056,-3.8272,-3.772,-3.7613,-3.7595,-3.7345,-3.6631,-3.6453,-3.5864,-3.4526,-3.4311,-3.3919,-3.3114,-3.3061,-3.3007,-3.29,-3.29,-3.29,-3.29,-3.29,-3.29,-3.29,-3.29,-3.29,-3.29,-3.29,-3.29,-4.4775,-4.5058,-4.5161,-4.5161,-4.4629,-4.37,-4.2141,-4.0268,0.0,0.0,-3.5291,-3.4551,-3.3523,-3.6257,-3.9302,-4.1196,-4.4036,-4.7069,-5.0084,-5.062,-5.0959,0.0,-5.169,-5.169,-5.169,-5.169,0.0,0.0,-5.169,-5.169,-5.169,-5.169,-5.169,-5.169,-5.169,-5.169,-5.169,-5.169,-5.169,-5.169,-5.169,-5.169,-5.1672,-5.0869,-5.0066,-4.9257,-4.8538,0.0,-4.6998,-4.6998,-4.6998,-4.6998,-4.6998,-4.6998,-4.689,-4.6105,-4.5302,-4.4478,-4.3747,-4.2965,-4.2308,-4.2308,-4.2308,-4.2308,-4.2308,-4.2308,-4.2308,-4.2308,-4.2308,-4.2308,-4.2308,-4.2308,-4.2308,-4.2308,-4.2308,-4.2308,-4.2308,-4.2308,-4.2308,-4.2308,-4.2308,-4.2272,-4.2129,-4.1413,-4.0628,-3.9823,-3.9075,-3.8344,-3.7702,-3.7595,-3.7559,-3.7416,-3.6792,-3.6292,-3.6024,-3.54,-3.4687,-3.3937,-3.3901,-3.358,-3.2936,-3.29,-3.29,-3.29,-3.29,-3.29,-3.29,-3.29,-3.29,-3.29,-3.29,-3.29,-4.5567,-4.5776,-4.5776,-4.5776,-4.4782,-4.3232,-4.1166,0.0,0.0,0.0,-3.406,-3.3685,-3.2717,-3.5294,-3.7933,-3.9093,-4.1912,-4.5071,-4.8229,-4.9032,-4.9888,-5.1494,-5.169,-5.169,0.0,-5.169,-5.169,-5.169,-5.169,-5.169,-5.169,-5.169,-5.169,-5.169,-5.169,-5.169,-5.169,-5.169,-5.169,-5.169,-5.169,-5.169,-5.1672,-5.1298,-5.0459,-4.9275,-4.8942,0.0,-4.6998,-4.6998,-4.6998,-4.6998,-4.6998,-4.6998,-4.6944,-4.6569,-4.5927,-4.5124,-4.4335,-4.3572,-4.2858,-4.243,-4.2308,-4.2308,-4.2308,-4.2308,-4.2308,-4.2308,-4.2308,-4.2308,-4.2308,-4.2308,-4.2308,-4.2308,-4.2308,-4.2308,-4.2308,-4.2308,-4.2308,-4.2308,-4.2308,-4.2308,-4.2308,-4.1627,-4.0967,-4.0592,-3.9878,-3.9074,-3.8326,-3.8219,-3.8058,-3.7648,-3.7256,-3.6845,-3.6435,-3.6042,-3.5489,-3.4722,-3.4669,-3.4329,-3.3562,-3.3508,-3.3328,-3.29,-3.29,-3.29,-3.29,-3.29,-3.29,-3.29,-3.29,-3.29,-4.5951,-4.6233,-4.6357,-4.6357,-4.4923,-4.2882,-4.0463,-3.83,0.0,-3.3476,-3.3122,-3.309,-3.2423,-3.4287,-3.6274,0.0,-3.9951,-4.2947,-4.6266,-4.7592,-4.902,0.0,-5.1601,0.0,-5.169,-5.169,0.0,-5.169,0.0,0.0,-5.169,-5.169,-5.169,-5.169,-5.169,-5.169,-5.169,-5.169,-5.169,-5.169,-5.169,-5.169,-5.169,-5.169,-5.0816,-4.9293,-4.9293,0.0,0.0,-4.6998,-4.6998,-4.6998,-4.6998,-4.6998,-4.6998,-4.6998,-4.648,-4.5677,-4.487,-4.4103,-4.3375,-4.2555,-4.2308,-4.2308,-4.2308,-4.2308,-4.2308,-4.2308,-4.2308,-4.2308,-4.2308,-4.2308,-4.2308,-4.2308,-4.2308,-4.2308,-4.2308,-4.2308,-4.2308,-4.2308,-4.2308,-4.2308,-4.2308,-4.177,-4.1306,-4.1127,-4.0574,-3.9877,-3.9128,-3.8915,-3.8558,-3.7916,-3.7702,-3.7345,-3.6702,-3.6649,-3.631,-3.5525,-3.5471,-3.5115,-3.4383,-3.4347,-3.4044,-3.3418,-3.34,-3.34,-3.34,-3.3239,-3.3168,-3.315,-3.2971,-3.29,-4.5847,-4.6359,-4.6911,-4.6911,-4.5187,-4.3051,-4.1347,0.0,-3.5883,-3.3846,-3.3173,-3.281,-3.2387,-3.3402,-3.5025,-3.7238,0.0,-4.1484,-4.5374,-4.7212,-4.8805,-5.0423,0.0,0.0,-5.169,-5.169,0.0,-5.169,0.0,0.0,-5.169,-5.169,-5.169,-5.169,-5.169,-5.169,-5.169,-5.169,-5.169,-5.169,-5.169,-5.169,-5.169,-5.169,-5.0816,-4.9293,-4.9293,0.0,0.0,-4.6998,-4.6998,-4.6998,-4.6998,-4.6998,-4.6998,-4.6998,-4.648,-4.5677,-4.487,-4.4103,-4.3375,-4.2555,-4.2308,-4.2308,-4.2308,-4.2308,-4.2308,-4.2308,-4.2308,-4.2308,-4.2308,-4.2308,-4.2308,-4.2308,-4.2308,-4.2308,-4.2308,-4.2308,-4.2308,-4.2308,-4.2308,-4.2308,-4.2308,-4.2254,-4.193,-4.1217,-4.1038,-4.0699,-3.9895,-3.9199,-3.8753,-3.8701,-3.8041,-3.7577,-3.7506,-3.7488,-3.7149,-3.6345,-3.6292,-3.5935,-3.5115,-3.5114,-3.5062,-3.4989,-3.4989,-3.4989,-3.4989,-3.4329,-3.399,-3.3972,-3.3239,-3.29,-4.5684,-4.6503,-4.6963,-4.6413,-4.45,-4.2234,-4.0182,-3.763,-3.5205,-3.3486,-3.3017,-3.2852,-3.2688,-3.3446,-3.4561,-3.5935,-3.7077,-3.9022,-4.2483,-4.3929,-4.5771,-4.8746,-4.9799,0.0,0.0,0.0,-5.169,-5.169,0.0,0.0,-5.169,-5.169,-5.169,-5.169,-5.169,-5.169,-5.169,-5.169,-5.169,-5.169,-5.169,-5.169,-5.1672,-5.1191,-5.037,-4.9275,-4.8835,0.0,0.0,-4.6998,-4.6998,-4.6998,-4.6998,-4.6998,-4.6998,-4.6998,-4.6801,-4.6409,-4.5606,-4.4799,-4.4032,-4.3268,-4.268,-4.2308,-4.2308,-4.2308,-4.2308,-4.2308,-4.2308,-4.2308,-4.2308,-4.2308,-4.2308,-4.2308,-4.2308,-4.2308,-4.2308,-4.2308,-4.2308,-4.2308,-4.2308,-4.2308,-4.2308,-4.2308,-4.22,-4.1859,-4.1805,-4.152,-4.0735,-3.993,-3.9288,-3.8861,-3.8076,-3.7595,-3.7595,-3.7595,-3.747,-3.7149,-3.7131,-3.6756,-3.5953,-3.5917,-3.5703,-3.5204,-3.5186,-3.5186,-3.5186,-3.4901,-3.4758,-3.4741,-3.4436,-3.4276,-4.4644,-4.5753,-4.6398,-4.5738,-4.3781,-4.1455,-3.931,-3.6952,-3.4757,-3.3221,-3.29,-3.29,-3.29,-3.3364,-3.399,-3.4757,-3.5739,-3.7416,-4.0342,-4.1841,-4.3857,-4.711,0.0,-4.9513,0.0,-5.1422,-5.169,0.0,0.0,0.0,-5.169,-5.169,-5.169,-5.169,-5.169,-5.169,-5.169,-5.169,-5.169,-5.169,-5.169,-5.169,-5.1672,-5.0869,-5.0066,-4.9257,-4.8538,0.0,0.0,-4.6998,-4.6998,-4.6998,-4.6998,-4.6998,-4.6998,-4.6998,-4.6998,-4.6873,-4.6088,-4.5445,-4.4781,-4.3818,-4.3126,-4.2608,-4.2358,-4.2308,-4.2308,-4.2308,-4.2308,-4.2308,-4.2308,-4.2308,-4.2308,-4.2308,-4.2308,-4.2308,-4.2308,-4.2308,-4.2308,-4.2308,-4.2308,-4.2308,-4.2308,-4.2308,-4.2308,-4.2308,-4.2308,-4.2111,-4.152,-4.0753,-3.9948,-3.9218,-3.8415,-3.7863,-3.7631,-3.7595,-3.7595,-3.7595,-3.7595,-3.7345,-3.6774,-3.6738,-3.6488,-3.5917,-3.5917,-3.5917,-3.5917,-3.5685,-3.556,-3.556,-3.5311,-3.5346,-4.2449,-4.3814,-4.5018,-4.5018,-4.314,-4.0893,-3.9262,-3.6988,-3.4757,-3.3221,-3.29,-3.29,-3.29,-3.29,-3.3186,-3.399,-3.54,-3.722,-3.9574,-4.1963,-4.4089,0.0,0.0,-4.8496,-4.924,-5.078,-5.169,0.0,0.0,0.0,-5.169,-5.169,-5.169,-5.169,-5.169,-5.169,-5.169,-5.169,-5.169,-5.169,-5.169,-5.169,-5.1672,-5.0869,-5.0066,0.0,0.0,0.0,0.0,-4.6998,-4.6998,-4.6998,-4.6998,-4.6998,-4.6998,-4.6998,-4.6998,-4.6873,-4.6088,-4.5802,-4.5534,-4.3996,-4.3479,-4.3358,-4.2537,-4.2308,-4.2308,-4.2308,-4.2308,-4.2308,-4.2308,-4.2308,-4.2308,-4.2308,-4.2308,-4.2308,-4.2308,-4.2308,-4.2308,-4.2308,-4.2308,-4.2308,-4.2308,-4.2308,-4.2308,-4.2308,-4.2308,-4.2308,-4.2308,-4.1591,-4.0788,-3.9966,-3.9236,-3.8469,-3.7666,-3.7595,-3.7595,-3.7595,-3.7595,-3.7595,-3.7595,-3.7595,-3.7577,-3.7577,-3.7577,-3.7577,-3.7577,-3.6774,-3.6381,-3.6363,-3.5578,-3.5632,-4.0095,-4.1445,-4.24,-4.1188,-4.0268,-3.91,-3.6987,-3.5844,-3.4757,-3.3221,-3.29,-3.29,-3.29,-3.29,-3.3685,-3.6096,-3.6899,0.0,-4.0396,0.0,0.0,-4.5677,-4.8639,-5.0673,0.0,0.0,0.0,0.0,0.0,0.0,-5.169,-5.169,-5.169,-5.169,-5.169,-5.169,-5.169,-5.169,-5.169,-5.169,-5.169,-5.1405,-5.0852,-5.0066,-4.9281,0.0,0.0,0.0,0.0,-4.6998,-4.6998,-4.6998,-4.6998,-4.6998,-4.6998,-4.6998,-4.6998,-4.6944,-4.6712,-4.6266,-4.5641,-4.4585,-4.3907,-4.3358,-4.2537,-4.2308,-4.2308,-4.2308,-4.2308,-4.2308,-4.2308,-4.2308,-4.2308,-4.2308,-4.2308,-4.2308,-4.2308,-4.2308,-4.2308,-4.2308,-4.2308,-4.2308,-4.2308,-4.2308,-4.2308,-4.2308,-4.2308,-4.2308,-4.2308,-4.1591,-4.1002,-4.0753,-3.9575,-3.8469,-3.7666,-3.7595,-3.7595,-3.7595,-3.7595,-3.7595,-3.7595,-3.7595,-3.7595,-3.7595,-3.7595,-3.7595,-3.7595,-3.7345,-3.722,-3.722,-3.697,-3.6988,-3.7475,-3.9083,-4.0059,-3.8959,-3.8384,-3.7613,-3.5837,-3.4876,-3.4062,-3.3096,-3.2668,-3.2543,-3.2846,-3.29,-3.365,-3.5899,-3.6506,0.0,0.0,0.0,0.0,-4.6462,0.0,0.0,0.0,-5.1512,0.0,0.0,0.0,0.0,-5.169,-5.169,-5.169,-5.169,-5.169,-5.169,-5.169,-5.169,-5.169,-5.169,-5.1387,-5.0976,-5.0459,-4.9388,-4.8621,0.0,0.0,0.0,0.0,-4.6998,-4.6998,-4.6998,-4.6998,-4.6998,-4.6998,-4.6998,-4.6998,-4.6998,-4.6998,-4.6659,-4.6123,-4.532,-4.4335,-4.3358,-4.2537,-4.2308,-4.2308,-4.2308,-4.2308,-4.2308,-4.2308,-4.2308,-4.2308,-4.2308,-4.2308,-4.2308,-4.2308,-4.2308,-4.2308,-4.2308,-4.2308,-4.2308,-4.2308,-4.2308,-4.2308,-4.2308,-4.2308,-4.2308,-4.2308,-4.1859,-4.1431,-4.1127,-4.0253,-3.9343,-3.854,-3.7934,-3.7595,-3.7595,-3.7595,-3.7595,-3.7595,-3.7595,-3.7595,-3.7595,-3.7595,-3.7595,-3.7595,-3.7595,-3.7595,-3.7595,-3.7595,-3.7595,0.0,-3.6544,-3.7756,-3.7701,-3.7027,-3.6155,-3.5344,-3.394,0.0,-3.2739,-3.2186,-3.1954,-3.2757,-3.2953,-3.3311,-3.4276,-3.5044,0.0,0.0,-4.1109,0.0,0.0,-4.9049,0.0,-5.0513,0.0,0.0,0.0,0.0,0.0,-5.169,-5.1637,-5.1601,-5.1601,-5.1547,-5.1583,-5.169,-5.169,-5.1672,-5.1601,-5.0869,-5.0441,-5.0298,-4.8859,-4.8181,0.0,0.0,0.0,0.0,-4.6998,-4.6998,-4.6998,-4.6998,-4.6998,-4.6998,-4.6998,-4.6998,-4.6998,-4.6998,-4.6998,-4.6855,-4.5998,-4.4714,-4.3358,-4.2537,-4.2308,-4.2308,-4.2308,-4.2308,-4.2308,-4.2308,-4.2308,-4.2308,-4.2308,-4.2308,-4.2308,-4.2308,-4.2308,-4.2308,-4.2308,-4.2308,-4.2308,-4.2308,-4.2308,-4.2308,-4.2308,-4.2308,-4.2308,-4.2308,-4.2308,-4.2002,-4.127,-4.1127,-4.0806,-4.0037,-3.8611,-3.7773,-3.7773,-3.772,-3.7702,-3.7702,-3.7631,-3.7595,-3.7595,-3.7595,-3.7595,-3.7595,-3.7595,-3.7595,-3.7595,-3.7595,-3.7595,-3.0998,0.0,-3.3447,-3.2864,-3.2895,-3.2901,0.0,-3.1936,-3.1811,-3.1189,-3.1403,-3.1954,-3.2757,-3.3384,-3.4668,-3.7255,0.0,-3.9432,-4.1217,0.0,0.0,-5.0477,-5.103,-5.1208,-5.1387,0.0,0.0,0.0,0.0,-5.169,-5.169,-5.1119,-5.078,-5.078,-5.0191,-5.0459,-5.1672,-5.169,-5.1387,-5.078,-5.0602,-4.987,-4.8734,-4.8377,-4.7859,0.0,0.0,0.0,-4.6998,-4.6998,-4.6998,-4.6998,-4.6998,-4.6998,-4.6998,-4.6998,-4.6998,-4.6998,-4.6998,-4.6998,-4.6766,-4.5356,-4.4246,-4.3358,-4.2537,-4.2308,-4.2308,-4.2308,-4.2308,-4.2308,-4.2308,-4.2308,-4.2308,-4.2308,-4.2308,-4.2308,-4.2308,-4.2308,-4.2308,-4.2308,-4.2308,-4.2308,-4.2308,-4.2308,-4.2308,-4.2308,-4.2308,-4.2308,-4.2308,-4.2308,-4.2236,-4.2037,-4.1466,-4.102,-4.0842,-3.9932,-3.9361,-3.9361,-3.8826,-3.8522,-3.8522,-3.7934,-3.7595,-3.7595,-3.7595,-3.7595,-3.7595,-3.7595,-3.7595,-3.7595,-3.7595,-3.7595,-2.8703,-3.0677,-3.2651,-3.2198,-3.2332,-3.2448,-3.1999,-3.1255,-3.0725,-3.0993,-3.11,-3.1617,-3.3169,-3.3812,-3.5007,-3.7809,-3.8576,0.0,0.0,0.0,-4.8591,-5.1369,-5.169,-5.169,0.0,0.0,0.0,0.0,0.0,-5.1155,-5.1155,-5.0388,-4.9959,-4.9959,-4.9525,-4.9703,-5.0602,-5.0602,-5.0388,-4.9959,-4.9603,-4.8996,-4.8181,-4.7824,-4.7413,0.0,0.0,0.0,-4.6998,-4.6998,-4.6998,-4.6998,-4.6998,-4.6998,-4.6998,-4.6998,-4.6998,-4.6998,-4.6998,-4.6748,-4.6248,-4.4995,-4.4086,-4.3358,-4.2537,-4.2308,-4.2308,-4.2308,-4.2308,-4.2308,-4.2308,-4.2308,-4.2308,-4.2308,-4.2308,-4.2308,-4.2308,-4.2308,-4.2308,-4.2308,-4.2308,-4.2308,-4.2308,-4.2308,-4.2308,-4.2308,-4.2308,-4.2308,-4.2308,-4.2308,-4.2308,-4.2308,-4.1895,-4.1645,-4.1645,-4.1252,-4.0699,-3.9948,-3.952,-3.9288,-3.9288,-3.8897,-3.8504,-3.8148,-3.7791,-3.7595,-3.7595,-3.7595,-3.7595,-3.7595,-3.7595,-3.7595,-2.7658,-3.0441,-3.3158,-3.2904,-3.2928,-3.2985,-3.2859,-3.1145,-2.994,-3.1242,-3.1171,-3.1528,-3.3705,-3.4401,0.0,0.0,0.0,0.0,-4.5445,-4.7342,-4.9073,-5.1405,-5.169,0.0,0.0,0.0,0.0,0.0,0.0,-5.0334,-5.0334,-4.9543,-4.9115,-4.9115,-4.9008,-4.8936,-4.8936,-4.9168,-4.924,-4.9139,-4.852,-4.8145,-4.7984,-4.7324,-4.6998,-4.6998,0.0,0.0,-4.6998,-4.6998,-4.6998,-4.6998,-4.6998,-4.6998,-4.6998,-4.6998,-4.6998,-4.6998,-4.6998,-4.6462,-4.5677,-4.4852,-4.4086,-4.3358,-4.2537,-4.2308,-4.2308,-4.2308,-4.2308,-4.2308,-4.2308,-4.2308,-4.2308,-4.2308,-4.2308,-4.2308,-4.2308,-4.2308,-4.2308,-4.2308,-4.2308,-4.2308,-4.2308,-4.2308,-4.2308,-4.2308,-4.2308,-4.2308,-4.2308,-4.2308,-4.2308,-4.2308,-4.2308,-4.2308,-4.2308,-4.2308,-4.1716,-4.036,-4.0164,-4.0019,-3.9895,-3.9895,-3.9609,-3.8986,-3.8183,-3.7791,-3.7791,-3.7666,-3.7595,-3.7595,-3.7595,-3.7595,-2.8866,-3.0876,-3.2053,-3.069,-3.1285,-3.2013,-3.1319,-3.0721,-3.0404,-3.0654,-3.1671,-3.2864,-3.3919,-3.5721,-3.7613,0.0,0.0,-4.3822,0.0,0.0,-4.9073,-5.1405,0.0,0.0,0.0,0.0,0.0,0.0,0.0,-4.9471,-4.9471,-4.8782,-4.8377,-4.8377,-4.7693,-4.7354,-4.7354,-4.8657,-4.8996,-4.8377,-4.8252,-4.7841,-4.7176,-4.7074,-4.6998,-4.6998,0.0,-4.6998,-4.6998,-4.6998,-4.6998,-4.6998,-4.6998,-4.6998,-4.6998,-4.6998,-4.6998,-4.6998,-4.6998,-4.6462,-4.5677,-4.4852,-4.4086,-4.3358,-4.2537,-4.2308,-4.2308,-4.2308,-4.2308,-4.2308,-4.2308,-4.2308,-4.2308,-4.2308,-4.2308,-4.2308,-4.2308,-4.2308,-4.2308,-4.2308,-4.2308,-4.2308,-4.2308,-4.2308,-4.2308,-4.2308,-4.2308,-4.2308,-4.2308,-4.2308,-4.2308,-4.2308,-4.2308,-4.2308,-4.2308,-4.2308,-4.218,-4.1948,-4.1288,-4.061,-3.993,-3.9895,-3.9841,-3.9716,-3.9004,-3.8629,-3.8611,-3.7916,-3.7595,-3.7595,-3.7595,-3.7595,-2.6892,-2.8985,-3.0785,-3.0464,-3.2162,-3.3782,-3.3378,-3.2514,-3.192,-3.2367,-3.3027,-3.3919,0.0,0.0,-3.8398,-4.0806,0.0,-4.5552,-4.7877,-4.8532,-4.9513,0.0,0.0,0.0,0.0,0.0,0.0,0.0,0.0,0.0,-4.871,-4.7961,-4.7556,-4.7556,-4.7176,-4.6998,-4.6998,-4.7693,-4.789,-4.7556,-4.7556,-4.7377,-4.6998,-4.6998,-4.6998,-4.6998,0.0,-4.6998,-4.6998,-4.6998,-4.6998,-4.6998,-4.6998,-4.6998,-4.6998,-4.6998,-4.6998,-4.6998,-4.6998,-4.6195,-4.5106,-4.471,-4.3822,-4.2769,-4.2394,-4.2308,-4.2308,-4.2308,-4.2308,-4.2308,-4.2308,-4.2308,-4.2308,-4.2308,-4.2308,-4.2308,-4.2308,-4.2308,-4.2308,-4.2308,-4.2308,-4.2308,-4.2308,-4.2308,-4.2308,-4.2308,-4.2308,-4.2308,-4.2308,-4.2308,-4.2308,-4.2308,-4.2308,-4.2308,-4.2308,-4.2308,-4.2308,-4.2308,-4.1948,-4.1573,-4.1217,-4.0788,-4.0556,-4.0556,-3.9807,-3.9199,-3.8808,-3.8433,-3.8005,-3.7595,-3.7595,-3.7595,-2.5751,-2.7887,-3.022,-3.1174,-3.3327,-3.5277,-3.5589,-3.4503,-3.3721,-3.4704,-3.5079,0.0,0.0,-3.8058,0.0,-4.2412,-4.466,-4.6569,-4.8002,-4.8693,-4.9567,-5.0976,0.0,0.0,0.0,0.0,0.0,0.0,0.0,0.0,-4.7931,-4.7342,-4.6998,-4.6998,-4.6998,-4.6998,-4.6998,-4.6998,-4.6998,-4.6998,-4.6998,-4.6998,-4.6998,-4.6998,-4.6998,-4.6998,-4.6998,-4.6998,-4.6998,-4.6998,-4.6998,-4.6998,-4.6998,-4.6998,-4.6998,-4.6998,-4.6998,-4.6998,-4.6998,-4.5945,-4.4603,-4.4603,-4.3554,-4.2308,-4.2308,-4.2308,-4.2308,-4.2308,-4.2308,-4.2308,-4.2308,-4.2308,-4.2308,-4.2308,-4.2308,-4.2308,-4.2308,-4.2308,-4.2308,-4.2308,-4.2308,-4.2308,-4.2308,-4.2308,-4.2308,-4.2308,-4.2308,-4.2308,-4.2308,-4.2308,-4.2308,-4.2308,-4.2308,-4.2308,-4.2308,-4.2308,-4.2308,-4.2308,-4.2308,-4.2308,-4.2308,-4.1698,-4.1377,-4.1377,-4.0592,-3.9914,-3.9343,-3.9146,-3.8736,-3.813,-3.7951,-3.788,-2.793,-2.9595,-3.1233,-3.2607,-3.3627,-3.4673,-3.6109,-3.5701,-3.5471,-3.7041,-3.7933,-3.8504,0.0,-4.1054,-4.3354,-4.4282,-4.5838,-4.7194,-4.8074,0.0,-4.8568,0.0,0.0,0.0,0.0,0.0,0.0,0.0,0.0,0.0,-4.7087,-4.7015,-4.6998,-4.6998,-4.6998,-4.6998,-4.6998,-4.6998,-4.6998,-4.6998,-4.6998,-4.6998,-4.6998,-4.6998,-4.6998,-4.6998,-4.6998,-4.6998,-4.6998,-4.6998,-4.6998,-4.6998,-4.6998,-4.6998,-4.6998,-4.6998,-4.6998,-4.6998,-4.6998,-4.5945,-4.4603,-4.4603,-4.3554,-4.2308,-4.2308,-4.2308,-4.2308,-4.2308,-4.2308,-4.2308,-4.2308,-4.2308,-4.2308,-4.2308,-4.2308,-4.2308,-4.2308,-4.2308,-4.2308,-4.2308,-4.2308,-4.2308,-4.2308,-4.2308,-4.2308,-4.2308,-4.2308,-4.2308,-4.2308,-4.2308,-4.2308,-4.2308,-4.2308,-4.2308,-4.2308,-4.2308,-4.2308,-4.2308,-4.2308,-4.2308,-4.2308,-4.2234,-4.2218,-4.2218,-4.1413,-4.0985,-4.0931,-4.018,-3.9788,-3.9736,-3.904,-3.8719,-2.6934,-2.8972,-3.1177,-3.2113,-3.3667,-3.534,-3.6845,-3.7666,-3.8432,-3.9539,-4.0021,-4.0235,0.0,0.0,-4.3161,-4.4389,-4.5534,-4.6712,-4.802,-4.8199,0.0,0.0,0.0,0.0,0.0,0.0,0.0,0.0,0.0,0.0,-4.6998,-4.6998,-4.6998,-4.6998,-4.6998,-4.6998,-4.6998,-4.6998,-4.6998,-4.6998,-4.6998,-4.6998,-4.6998,-4.6998,-4.6998,-4.6998,-4.6998,-4.6998,-4.6998,-4.6998,-4.6998,-4.6998,-4.6998,-4.6998,-4.6998,-4.6998,-4.6998,-4.6998,-4.6998,-4.5945,-4.4603,-4.4603,-4.3554,-4.2308,-4.2308,-4.2308,-4.2308,-4.2308,-4.2308,-4.2308,-4.2308,-4.2308,-4.2308,-4.2308,-4.2308,-4.2308,-4.2308,-4.2308,-4.2308,-4.2308,-4.2308,-4.2308,-4.2308,-4.2308,-4.2308,-4.2308,-4.2308,-4.2308,-4.2308,-4.2308,-4.2308,-4.2308,-4.2308,-4.2308,-4.2308,-4.2002,-4.1941,-4.2287,-4.2308,-4.2308,-4.2308,-4.2308,-4.2308,-4.2308,-4.1984,-4.1591,-4.1092,-4.0788,-4.0396,-3.9877,-3.9609,-3.9235,-2.7025,-2.9099,-3.1412,-3.1789,-3.388,-3.6198,-3.7649,-3.8808,-4.0003,-4.1538,-4.1859,-4.1859,-4.1859,0.0,0.0,0.0,-4.5499,-4.6551,-4.7681,0.0,0.0,0.0,0.0,0.0,0.0,0.0,0.0,0.0,0.0,0.0,0.0,-4.6998,-4.6998,-4.6998,-4.6998,-4.6998,-4.6998,-4.6998,-4.6998,-4.6998,-4.6998,-4.6998,-4.6998,-4.6998,-4.6998,-4.6998,-4.6998,-4.6998,-4.6998,-4.6998,-4.6998,-4.6998,-4.6998,-4.6998,-4.6998,-4.6998,-4.6998,-4.6944,-4.6712,-4.5731,-4.4549,-4.4317,-4.3375,-4.2308,-4.2308,-4.2308,-4.2308,-4.2308,-4.2308,-4.2308,-4.2308,-4.2308,-4.2308,-4.2308,-4.2308,-4.2308,-4.2308,-4.2308,-4.2308,-4.2308,-4.2308,-4.2308,-4.2308,-4.2308,-4.2308,-4.2308,-4.2308,-4.2308,-4.2308,-4.2145,-4.198,-4.1835,-4.1831,-4.1831,-4.1831,-4.149,-4.1445,-4.1792,-4.1831,-4.1959,-4.2287,-4.2145,-4.2044,-4.2044,-4.1917,-4.163,-4.1224,-4.1224,-4.104,-4.0646,-4.0414,-4.0021,-2.8835,-3.0355,-3.2173,-3.1977,-3.4341,-3.7092,-3.8506,-3.8843,-3.9736,-4.2837,-4.3497,-4.3497,-4.35,-4.4086,0.0,-4.4603,-4.5945,-4.698,0.0,0.0,0.0,0.0,0.0,0.0,0.0,0.0,0.0,0.0,0.0,0.0,0.0,-4.6998,-4.698,-4.6998,-4.6998,-4.6998,-4.6998,-4.6998,-4.6998,-4.6998,-4.6998,-4.6998,-4.6998,-4.6998,-4.6998,-4.6998,-4.6998,-4.6998,-4.6998,-4.6998,-4.6998,-4.6998,-4.6998,-4.6998,-4.6998,-4.6998,-4.6998,-4.6855,-4.6088,-4.5285,-4.446,-4.3729,-4.2965,-4.2308,-4.2308,-4.2308,-4.2308,-4.2308,-4.2308,-4.2308,-4.2308,-4.2308,-4.2308,-4.2308,-4.2308,-4.2308,-4.2308,-4.2308,-4.2308,-4.2308,-4.2308,-4.2308,-4.2287,-4.2287,-4.2308,-4.2287,-4.2287,-4.2287,-4.2287,-4.1813,-4.1333,-4.0849,-4.0802,-4.0802,-4.0802,-4.0802,-4.0802,-4.0802,-4.0802,-4.1243,-4.2267,-4.1792,-4.1512,-4.1494,-4.1059,-4.1036,-4.1494,-4.1494,-4.177,-4.2269,-4.1484,-4.1109,-2.9513,-3.1142,-3.3148,-3.4195,-3.6357,-3.8617,-4.0076,-4.086,-4.168,-4.3176,-4.3497,-4.334,-4.2751,-4.3304,0.0,-4.4514,-4.5481,-4.6355,0.0,0.0,0.0,0.0,0.0,0.0,0.0,0.0,0.0,0.0,0.0,0.0,0.0,-4.6637,-4.6613,-4.6998,-4.6998,-4.6998,-4.6998,-4.6998,-4.6998,-4.6998,-4.6998,-4.6998,-4.6998,-4.6998,-4.6998,-4.6998,-4.6998,-4.6998,-4.6998,-4.6998,-4.6998,-4.6998,-4.6998,-4.6998,-4.6998,-4.6998,-4.6641,-4.6123,-4.5873,-4.4946,-4.3782,-4.3568,-4.2965,-4.2308,-4.2308,-4.2308,-4.2308,-4.2308,-4.2308,-4.2308,-4.2308,-4.2308,-4.2308,-4.2308,-4.2308,-4.2308,-4.2308,-4.2308,-4.2308,-4.2308,-4.2308,-4.2187,-4.1813,-4.2044,-4.2166,-4.1792,-4.1749,-4.1622,-4.1288,-4.1105,-4.0949,-4.0825,-4.0802,-4.0802,-4.0802,-4.0449,-4.04,-4.0778,-4.0449,-4.0696,-4.1687,-4.1265,-4.1157,-4.1494,-4.1059,-4.0873,-4.1013,-4.1013,-4.1265,-4.1731,-4.1502,-4.1283,-3.098,-3.2665,-3.4508,-3.6083,-3.7936,-3.9761,-4.1237,-4.2198,-4.2912,-4.3411,-4.3497,-4.3337,-4.2876,-4.3179,0.0,-4.4086,-4.4821,-4.5499,0.0,0.0,0.0,0.0,0.0,0.0,0.0,0.0,0.0,0.0,0.0,0.0,0.0,-4.5785,-4.5734,-4.5762,-4.5944,-4.6052,-4.6052,-4.6355,-4.6516,-4.6516,-4.6338,-4.6406,-4.6684,-4.6911,-4.6998,-4.6962,-4.6659,-4.6516,-4.6498,-4.6177,-4.6052,-4.6052,-4.6052,-4.6052,-4.6052,-4.6052,-4.5749,-4.5285,-4.4999,-4.4285,-4.3465,-4.3126,-4.2697,-4.2308,-4.2308,-4.2308,-4.2308,-4.2308,-4.2308,-4.2308,-4.2308,-4.2308,-4.2308,-4.2308,-4.2308,-4.2246,-4.2023,-4.198,-4.1938,-4.1749,-4.1705,-4.16,-4.1288,-4.149,-4.1578,-4.1271,-4.1225,-4.1042,-4.0546,-4.0473,-4.0417,-4.022,-4.0195,-4.0195,-4.0195,-3.991,-3.9859,-4.0187,-3.991,-4.0078,-4.0885,-4.0642,-4.0618,-4.0908,-4.0424,-4.0294,-4.0473,-4.0473,-4.0737,-4.1225,-4.1225,-4.1244,-3.2651,-3.4421,-3.5986,-3.7611,-3.9174,-4.0654,-4.1986,-4.2876,-4.3372,-4.3372,0.0,-4.3372,-4.3372,-4.3444,-4.3497,-4.3497,-4.4103,0.0,0.0,0.0,0.0,0.0,0.0,0.0,0.0,0.0,0.0,0.0,0.0,0.0,0.0,-4.4523,-4.4493,-4.3933,-4.4303,-4.4541,-4.4541,-4.5254,-4.5588,-4.5543,-4.5117,-4.5273,-4.5951,-4.6495,-4.6781,-4.6791,-4.6012,-4.5695,-4.5641,-4.4888,-4.4603,-4.4603,-4.4603,-4.4603,-4.4603,-4.4603,-4.4549,-4.4389,-4.3729,-4.3444,-4.3286,-4.2537,-4.2308,-4.2308,-4.2308,-4.2308,-4.2308,-4.2308,-4.2308,-4.2308,-4.2308,-4.2267,-4.2246,-4.2246,-4.2246,-4.2065,-4.1556,-4.1445,-4.1316,-4.0896,-4.0802,-4.0778,-4.0731,-4.0778,-4.0778,-4.0731,-4.0731,-4.0538,-4.0003,-3.9944,-3.9765,-3.9352,-3.9299,-3.9299,-3.9299,-3.9299,-3.9299,-3.9299,-3.9299,-3.9478,-3.9919,-3.9944,-3.9969,-4.0003,-3.9556,-3.9504,-3.9944,-3.9944,-4.0203,-4.0731,-4.0731,-4.0972,-3.1962,-3.3944,-3.603,-3.8223,-4.03,-4.1917,-4.2236,-4.243,-4.2555,-4.2555,-4.2555,-4.2555,-4.2555,-4.3072,-4.3497,-4.3497,0.0,0.0,0.0,0.0,0.0,0.0,0.0,0.0,0.0,0.0,0.0,0.0,0.0,0.0,-4.3318,-4.3057,-4.3191,-4.3875,-4.399,-4.4054,-4.4054,-4.4212,-4.4097,0.0,-4.359,-4.3603,-4.3776,-4.4501,-4.5026,-4.5405,-4.5018,-4.4852,-4.4835,-4.4656,-4.4603,-4.4603,-4.4603,-4.4603,-4.4603,-4.4603,-4.4228,-4.3711,-4.3551,-4.309,-4.2519,-4.2361,-4.2308,-4.2308,-4.2308,-4.2308,-4.2308,-4.2308,-4.2308,-4.2308,-4.2308,-4.198,-4.1666,-4.1666,-4.1666,-4.1534,-4.1059,-4.0966,-4.0919,-4.0825,-4.0802,-4.0683,-4.0252,-4.0521,-4.0659,-4.0228,-4.0178,-3.9995,-3.9504,-3.9468,-3.9415,-3.9299,-3.9299,-3.9299,-3.9299,-3.9299,-3.9299,-3.9299,-3.9299,-3.9352,-3.9441,-3.9468,-3.9618,-4.0003,-3.9556,-3.9352,-3.9468,-3.9468,-3.9696,-4.0178,-4.0178,-4.0449,-3.1546,-3.3849,-3.628,-3.9336,-4.121,-4.2308,-4.2308,-4.2308,-4.2308,-4.2308,-4.2308,-4.2308,-4.2308,-4.2626,-4.2929,-4.2929,0.0,0.0,0.0,0.0,0.0,0.0,0.0,0.0,0.0,0.0,0.0,0.0,0.0,-4.2163,-4.1816,-4.1764,-4.1827,-4.2047,-4.2287,-4.2422,-4.2422,-4.2811,-4.2867,-4.2583,-4.2318,-4.2065,-4.1859,-4.3091,-4.3831,-4.4066,-4.3807,-4.3691,-4.3696,-4.3558,-4.35,-4.35,-4.35,-4.35,-4.35,-4.35,-4.3268,-4.2929,-4.2929,-4.2644,-4.2308,-4.2308,-4.2308,-4.2308,-4.2308,-4.2308,-4.2308,-4.2308,-4.2124,-4.1917,-4.1917,-4.1534,-4.1111,-4.0838,-4.0995,-4.1019,-4.0521,-4.0424,-4.0351,-4.0137,-4.0087,-3.9986,-3.9705,-3.9885,-3.9986,-3.9722,-3.9653,-3.9582,-3.9325,-3.9299,-3.9299,-3.9299,-3.9299,-3.9299,-3.9299,-3.9299,-3.9299,-3.9299,-3.9299,-3.9299,-3.9299,-3.9299,-3.9415,-3.967,-3.9415,-3.9299,-3.9299,-3.9299,-3.9441,-3.9653,-3.9653,-3.9935,-3.0785,-3.3554,-3.6474,-4.0158,-4.16,-4.2147,-4.2272,-4.2308,-4.2308,-4.2308,-4.2308,-4.2308,-4.2308,-4.2308,-4.2308,0.0,0.0,0.0,0.0,0.0,0.0,0.0,0.0,0.0,0.0,0.0,0.0,0.0,0.0,-4.1335,-4.0271,-4.0591,-4.056,-4.002,-4.0424,-4.0659,-4.0659,-4.1326,-4.1611,-4.153,-4.1087,-4.0627,-4.0254,-4.1767,-4.2549,-4.2735,-4.2474,-4.2368,-4.2379,-4.2225,-4.2166,-4.2166,-4.2267,-4.2308,-4.2308,-4.2308,-4.2308,-4.2308,-4.2308,-4.2308,-4.2308,-4.2308,-4.2308,-4.2287,-4.2187,-4.2246,-4.2267,-4.2082,-4.1792,-4.1472,-4.1405,-4.1019,-4.0546,-4.0103,-4.0294,-4.0417,-3.9969,-3.9893,-3.9756,-3.9379,-3.9299,-3.9299,-3.9299,-3.9299,-3.9299,-3.9299,-3.9299,-3.9299,-3.9299,-3.9299,-3.9299,-3.9299,-3.9299,-3.9299,-3.9299,-3.9299,-3.9299,-3.9299,-3.9299,-3.9299,-3.9299,-3.9299,-3.9299,-3.9299,-3.9299,-3.9299,-3.9299,-3.9299,-3.9299,-3.9299,-3.9299,-3.9504,-2.8582,-3.2271,-3.6348,-3.9477,-4.0854,-4.1584,-4.2185,0.0,-4.2308,0.0,-4.2308,-4.2308,-4.2308,-4.2308,-4.2308,0.0,0.0,0.0,0.0,0.0,0.0,0.0,0.0,0.0,0.0,0.0,0.0,0.0,-3.9945,-3.9628,-3.9464,-3.9511,-3.9683,-3.9978,-4.0078,-4.0103,-4.0103,-4.0205,-4.007,-3.9654,-3.9591,-3.9511,-3.9464,-3.9691,-4.0385,-4.1367,-4.1147,-4.1034,-4.1081,-4.1458,-4.16,-4.1644,-4.2124,-4.2308,-4.2308,-4.2308,-4.2308,-4.2308,-4.2308,-4.2308,-4.2308,-4.2308,-4.2308,-4.2207,-4.1749,-4.192,-4.2124,-4.1243,-4.1225,-4.1423,-4.1013,-4.0497,-4.0103,-4.0028,-3.9731,-3.9494,-3.9415,-3.9388,-3.9362,-3.9299,-3.9299,-3.9299,-3.9299,-3.9299,-3.9299,-3.9299,-3.9299,-3.9299,-3.9299,-3.9299,-3.9299,-3.9299,-3.9299,-3.9299,-3.9299,-3.9299,-3.9299,-3.9299,-3.9299,-3.9299,-3.9299,-3.9299,-3.9299,-3.9299,-3.9299,-3.9299,-3.9299,-3.9299,-3.9299,-3.9299,-3.9299,-3.9325,-2.9137,-3.204,-3.4997,-3.8079,-3.9746,-4.0799,-4.1469,-4.1966,-4.2308,-4.2308,-4.2308,-4.2308,-4.2308,-4.2308,0.0,0.0,0.0,0.0,0.0,0.0,0.0,0.0,0.0,0.0,0.0,0.0,0.0,0.0,-3.9415,-3.9299,-3.9299,-3.9299,-3.9388,-3.9592,-3.9618,-3.9618,-3.9618,-3.9618,-3.9504,-3.9299,-3.9299,-3.9299,-3.9299,-3.9299,-3.9598,-4.0086,-4.0281,-4.0351,-4.04,-4.0902,-4.1111,-4.1134,-4.1356,-4.1445,-4.149,-4.1731,-4.1856,-4.1899,-4.2205,-4.2308,-4.2267,-4.1959,-4.1856,-4.177,-4.1265,-4.1265,-4.1356,-4.0919,-4.0737,-4.0625,-4.04,-3.9969,-3.9618,-3.9618,-3.9468,-3.9299,-3.9299,-3.9299,-3.9299,-3.9299,-3.9299,-3.9299,-3.9299,-3.9299,-3.9299,-3.9299,-3.9299,-3.9299,-3.9299,-3.9299,-3.9299,-3.9299,-3.9299,-3.9299,-3.9299,-3.9299,-3.9299,-3.9299,-3.9299,-3.9299,-3.9299,-3.9299,-3.9299,-3.9299,-3.9299,-3.9299,-3.9299,-3.9299,-3.9299,-3.9299,-3.9299,-3.9299,-2.8594,-3.0731,-3.2778,-3.5903,-3.7972,-3.9511,0.0,0.0,-4.2037,0.0,-4.2308,-4.2308,-4.2308,0.0,0.0,0.0,0.0,0.0,0.0,0.0,0.0,0.0,0.0,0.0,0.0,0.0,0.0,0.0,-3.9299,-3.9299,-3.9299,-3.9299,-3.9299,-3.9299,-3.9299,-3.9299,-3.9299,-3.9299,-3.9299,-3.9299,-3.9299,-3.9299,-3.9299,-3.9299,-3.9299,-3.9325,-3.967,-3.9817,-3.9868,-4.0375,-4.0611,-4.0594,-4.0754,-4.0802,-4.0849,-4.118,-4.1316,-4.1378,-4.177,-4.1917,-4.1835,-4.1468,-4.1316,-4.1225,-4.0737,-4.0707,-4.0754,-4.049,-4.022,-3.9978,-3.9842,-3.9556,-3.9299,-3.9299,-3.9299,-3.9299,-3.9299,-3.9299,-3.9299,-3.9299,-3.9299,-3.9299,-3.9299,-3.9299,-3.9299,-3.9299,-3.9299,-3.9299,-3.9299,-3.9299,-3.9299,-3.9299,-3.9299,-3.9299,-3.9299,-3.9299,-3.9299,-3.9299,-3.9299,-3.9299,-3.9299,-3.9299,-3.9299,-3.9299,-3.9299,-3.9299,-3.9299,-3.9299,-3.9299,-3.9299,-3.9299,-3.9299,-2.5045,-2.7043,-2.9561,-3.258,-3.5133,-3.7416,0.0,0.0,-4.1377,-4.2147,-4.2308,-4.2308,-4.2308,0.0,0.0,0.0,0.0,0.0,0.0,0.0,0.0,0.0,0.0,0.0,0.0,0.0,0.0,0.0,-3.9299,-3.9299,-3.9299,-3.9299,-3.9299,-3.9299,-3.9299,-3.9299,-3.9299,-3.9299,-3.9299,-3.9299,-3.9299,-3.9299,-3.9299,-3.9299,-3.9299,-3.9299,-3.9325,-3.9352,-3.9362,-3.9842,-4.0028,-4.0103,-4.0611,-4.0802,-4.0802,-4.0825,-4.0825,-4.0849,-4.0873,-4.0873,-4.0873,-4.0849,-4.0825,-4.0754,-4.0203,-4.04,-4.0611,-3.9661,-3.9696,-3.9893,-3.9468,-3.9325,-3.9299,-3.9299,-3.9299,-3.9299,-3.9299,-3.9299,-3.9299,-3.9299,-3.9299,-3.9299,-3.9299,-3.9299,-3.9299,-3.9299,-3.9299,-3.9299,-3.9299,-3.9299,-3.9299,-3.9299,-3.9299,-3.9299,-3.9299,-3.9299,-3.9299,-3.9299,-3.9299,-3.9299,-3.9299,-3.9299,-3.9299,-3.9299,-3.9299,-3.9299,-3.9299,-3.9299,-3.9299,-3.9299,-3.9299,-3.9299,-2.4646,-2.6023,-2.7784,-3.0865,-3.3014,-3.4833,-3.6488,-3.829,-3.9843,-4.061,-4.1163,-4.168,-4.2218,0.0,0.0,0.0,0.0,0.0,0.0,0.0,0.0,0.0,0.0,0.0,0.0,0.0,0.0,0.0,0.0,-3.9299,-3.9299,-3.9299,-3.9299,-3.9299,-3.9299,-3.9299,-3.9299,-3.9299,-3.9299,-3.9299,-3.9299,-3.9299,-3.9299,-3.9299,-3.9299,-3.9299,-3.9299,-3.9299,-3.9325,-3.9478,-3.9556,-3.9582,-3.9747,-3.9825,-3.9859,-4.017,-4.0277,-4.0326,-4.0683,-4.0802,-4.0754,-4.04,-4.0277,-4.0178,-3.9696,-3.967,-3.9747,-3.9388,-3.9415,-3.9504,-3.9335,-3.9299,-3.9299,-3.9299,-3.9299,-3.9299,-3.9299,-3.9299,-3.9299,-3.9299,-3.9299,-3.9299,-3.9299,-3.9299,-3.9299,-3.9299,-3.9299,-3.9299,-3.9299,-3.9299,-3.9299,-3.9299,-3.9299,-3.9299,-3.9299,-3.9299,-3.9299,-3.9299,-3.9299,-3.9299,-3.9299,-3.9299,-3.9299,-3.9299,-3.9299,-3.9299,-3.9299,-3.9299,-3.9299,-3.9299,-3.9299,-3.9299,-2.3958,-2.5009,-2.6476,-2.931,-3.0783,-3.2178,-3.47,-3.647,-3.7951,-3.9253,-4.0164,-4.082,0.0,0.0,0.0,0.0,0.0,0.0,0.0,0.0,0.0,0.0,0.0,0.0,0.0,0.0,0.0,0.0,0.0,0.0,-3.9299,-3.9299,-3.9299,-3.9299,-3.9299,-3.9299,-3.9299,-3.9299,-3.9299,-3.9299,-3.9299,-3.9299,-3.9299,-3.9299,-3.9299,-3.9299,-3.9299,-3.9299,-3.9299,-3.9299,-3.9299,-3.9299,-3.9299,-3.9299,-3.9352,-3.9644,-3.9782,-3.9833,-4.017,-4.0311,-4.0237,-3.9885,-3.9782,-3.9705,-3.9388,-3.9299,-3.9299,-3.9299,-3.9299,-3.9299,-3.9299,-3.9299,-3.9299,-3.9299,-3.9299,-3.9299,-3.9299,-3.9299,-3.9299,-3.9299,-3.9299,-3.9299,-3.9299,-3.9299,-3.9299,-3.9299,-3.9299,-3.9299,-3.9299,-3.9299,-3.9299,-3.9299,-3.9299,-3.9299,-3.9299,-3.9299,-3.9299,-3.9299,-3.9299,-3.9299,-3.9299,-3.9299,-3.9299,-3.9299,-3.9299,-3.9299,-3.9299,-3.9299,-3.9299,-3.9299,-3.9299,-3.9299,0.0,0.0,0.0,0.0,0.0,0.0,-3.4119,0.0,-3.5704,-3.813,-3.9217,-3.9653,0.0,0.0,0.0,0.0,0.0,0.0,0.0,0.0,0.0,0.0,0.0,0.0,0.0,0.0,0.0,0.0,-3.9299,-3.9299,-3.9299,-3.9299,-3.9299,-3.9299,-3.9299,-3.9299,-3.9299,-3.9299,-3.9299,-3.9299,-3.9299,-3.9299,-3.9299,-3.9299,-3.9299,-3.9299,-3.9299,-3.9299,-3.9299,-3.9299,-3.9299,-3.9299,-3.9299,-3.9299,-3.9299,-3.9299,-3.9299,-3.9299,-3.9299,-3.9299,-3.9299,-3.9299,-3.9299,-3.9299,-3.9299,-3.9299,-3.9299,-3.9299,-3.9299,-3.9299,-3.9299,-3.9299,-3.9299,-3.9299,-3.9299,-3.9299,-3.9299,-3.9299,-3.9299,-3.9299,-3.9299,-3.9299,-3.9299,-3.9299,-3.9299,-3.9299,-3.9299,-3.9299,-3.9299,-3.9299,-3.9299,-3.9299,-3.9299,-3.9299,-3.9299,-3.9299,-3.9299,-3.9299,-3.9299,-3.9299,-3.9299,-3.9299,-3.9299,-3.9299,-3.9299,-3.9299,-3.9299,-3.9299,-3.9299,-3.9299,-3.9299,-3.9299,-2.2639,0.0,0.0,0.0,0.0,0.0,0.0,0.0,-3.1499,-3.4009,-3.5578,-3.6897,0.0,0.0,0.0,0.0,0.0,0.0,0.0,0.0,0.0,0.0,0.0,0.0,0.0,0.0,0.0,0.0,-3.9299,-3.9299,-3.9299,-3.9299,-3.9299,-3.9299,-3.9299,-3.9299,-3.9299,-3.9299,-3.9299,-3.9299,-3.9299,-3.9299,-3.9299,-3.9299,-3.9299,-3.9299,-3.9299,-3.9299,-3.9299,-3.9299,-3.9299,-3.9299,-3.9299,-3.9299,-3.9299,-3.9299,-3.9299,-3.9299,-3.9299,-3.9299,-3.9299,-3.9299,-3.9299,-3.9299,-3.9299,-3.9299,-3.9299,-3.9299,-3.9299,-3.9299,-3.9299,-3.9299,-3.9299,-3.9299,-3.9299,-3.9299,-3.9299,-3.9299,-3.9299,-3.9299,-3.9299,-3.9299,-3.9299,-3.9299,-3.9299,-3.9299,-3.9299,-3.9299,-3.9299,-3.9299,-3.9299,-3.9299,-3.9299,-3.9299,-3.9299,-3.9299,-3.9299,-3.9299,-3.9299,-3.9299,-3.9299,-3.9299,-3.9299,-3.9299,-3.9299,-3.9299,-3.9299,-3.9299,-3.9299,-3.9299,-3.9299,-3.9299,-2.3441,-2.4165,0.0,0.0,0.0,0.0,-2.7567,-2.8344,0.0,0.0,-3.3715,-3.5012,0.0,0.0,0.0,0.0,0.0,0.0,0.0,0.0,0.0,0.0,0.0,0.0,0.0,-3.9299,-3.9299,-3.9299,-3.9299,-3.9299,-3.9299,-3.9299,-3.9299,-3.9299,-3.9299,-3.9299,-3.9299,-3.9299,-3.9299,-3.9299,-3.9299,-3.9299,-3.9299,-3.9299,-3.9299,-3.9299,-3.9299,-3.9299,-3.9299,-3.9299,-3.9299,-3.9299,-3.9299,-3.9299,-3.9299,-3.9299,-3.9299,-3.9299,-3.9299,-3.9299,-3.9299,-3.9299,-3.9299,-3.9299,-3.9299,-3.9299,-3.9299,-3.9299,-3.9299,-3.9299,-3.9299,-3.9299,-3.9299,-3.9299,-3.9299,-3.9299,-3.9299,-3.9299,-3.9299,-3.9299,-3.9299,-3.9299,-3.9299,-3.9299,-3.9299,-3.9299,-3.9299,-3.9299,-3.9299,-3.9299,-3.9299,-3.9299,-3.9299,-3.9299,-3.9299,-3.9299,-3.9299,-3.9299,-3.9299,-3.9299,-3.9299,-3.9299,-3.9299,-3.9299,-3.9299,-3.9299,-3.9299,-3.9299,-3.9299,-3.9299,-3.9299,-3.9299,-2.4975,-2.52,0.0,0.0,0.0,0.0,-2.7968,-2.8167,-2.8401,0.0,0.0,-3.3114,0.0,0.0,0.0,0.0,0.0,0.0,0.0,0.0,0.0,0.0,0.0,0.0,-3.9183,-3.9249,-3.9299,-3.9299,-3.9299,-3.9299,-3.9299,-3.9299,-3.9299,-3.9299,-3.9299,-3.9299,-3.9299,-3.9299,-3.9299,-3.9299,-3.9299,-3.9299,-3.9299,-3.9299,-3.9299,-3.9299,-3.9299,-3.9299,-3.9299,-3.9299,-3.9299,-3.9299,-3.9299,-3.9299,-3.9299,-3.9299,-3.9299,-3.9299,-3.9299,-3.9299,-3.9299,-3.9299,-3.9299,-3.9299,-3.9299,-3.9299,-3.9299,-3.9299,-3.9299,-3.9299,-3.9299,-3.9299,-3.9299,-3.9299,-3.9299,-3.9299,-3.9299,-3.9299,-3.9299,-3.9299,-3.9299,-3.9299,-3.9299,-3.9299,-3.9299,-3.9299,-3.9299,-3.9299,-3.9299,-3.9299,-3.9299,-3.9299,-3.9299,-3.9299,-3.9299,-3.9299,-3.9299,-3.9299,-3.9299,-3.9299,-3.9299,-3.9299,-3.9299,-3.9299,-3.9299,-3.9299,-3.9299,-3.9299,-3.9299,-3.9299,-3.9299,-3.9299,-2.723,-2.7477,0.0,0.0,0.0,0.0,-2.4707,-2.5306,-2.6353,0.0,-2.7256,-2.8141,0.0,0.0,0.0,0.0,0.0,0.0,0.0,0.0,0.0,0.0,0.0,0.0,-3.8411,-3.8941,-3.9299,-3.9299,-3.9299,-3.9299,-3.9299,-3.9299,-3.9299,-3.9299,-3.9299,-3.9299,-3.9299,-3.9299,-3.9299,-3.9299,-3.9299,-3.9299,-3.9299,-3.9299,-3.9299,-3.9299,-3.9299,-3.9299,-3.9299,-3.9299,-3.9299,-3.9299,-3.9299,-3.9299,-3.9299,-3.9299,-3.9299,-3.9299,-3.9299,-3.9299,-3.9299,-3.9299,-3.9299,-3.9299,-3.9299,-3.9299,-3.9299,-3.9299,-3.9299,-3.9299,-3.9299,-3.9299,-3.9299,-3.9299,-3.9299,-3.9299,-3.9299,-3.9299,-3.9299,-3.9299,-3.9299,-3.9299,-3.9299,-3.9299,-3.9299,-3.9299,-3.9299,-3.9299,-3.9299,-3.9299,-3.9299,-3.9299,-3.9299,-3.9299,-3.9299,-3.9299,-3.9299,-3.9299,-3.9299,-3.9299,-3.9299,-3.9299,-3.9299,-3.9299,-3.9299,-3.9299,-3.9299,-3.9299,-3.9299,-3.9299,-3.9299,-3.9202,-2.8453,0.0,0.0,-2.7457,0.0,0.0,0.0,-2.5535,-2.5727,-2.6784,-2.6702,-2.678,-2.7894,0.0,0.0,0.0,0.0,0.0,0.0,0.0,0.0,0.0,0.0,0.0,-3.7665,-3.798,-3.8344,-3.8709,-3.8742,-3.8907,-3.9282,-3.9299,-3.9299,-3.9299,-3.9299,-3.9299,-3.9299,-3.9299,-3.9299,-3.9299,-3.9299,-3.9299,-3.9299,-3.9299,-3.9299,-3.9299,-3.9299,-3.9299,-3.9299,-3.9299,-3.9299,-3.9299,-3.9299,-3.9299,-3.9299,-3.9299,-3.9299,-3.9299,-3.9299,-3.9299,-3.9299,-3.9299,-3.9299,-3.9299,-3.9299,-3.9299,-3.9299,-3.9299,-3.9299,-3.9299,-3.9299,-3.9299,-3.9299,-3.9299,-3.9299,-3.9299,-3.9299,-3.9299,-3.9299,-3.9299,-3.9299,-3.9299,-3.9299,-3.9299,-3.9299,-3.9299,-3.9299,-3.9299,-3.9299,-3.9299,-3.9299,-3.9299,-3.9299,-3.9299,-3.9299,-3.9299,-3.9299,-3.9299,-3.9299,-3.9299,-3.9299,-3.9299,-3.9299,-3.9299,-3.9299,-3.9299,-3.9299,-3.9299,-3.9299,-3.9299,-3.9299,-3.9175,0.0,0.0,0.0,0.0,0.0,-2.7963,0.0,0.0,0.0,-2.765,0.0,0.0,0.0,0.0,0.0,0.0,0.0,0.0,0.0,0.0,0.0,0.0,0.0,0.0,0.0,-3.6555,-3.6903,-3.7904,-3.7599,-3.7864,-3.9033,-3.91,-3.9149,-3.9299,-3.9299,-3.9299,-3.9299,-3.9299,-3.9299,-3.9299,-3.9299,-3.9299,-3.9299,-3.9299,-3.9299,-3.9299,-3.9299,-3.9299,-3.9299,-3.9299,-3.9299,-3.9299,-3.9299,-3.9299,-3.9299,-3.9299,-3.9299,-3.9299,-3.9299,-3.9299,-3.9299,-3.9299,-3.9299,-3.9299,-3.9299,-3.9299,-3.9299,-3.9299,-3.9299,-3.9299,-3.9299,-3.9299,-3.9299,-3.9299,-3.9299,-3.9299,-3.9299,-3.9299,-3.9299,-3.9299,-3.9299,-3.9299,-3.9299,-3.9299,-3.9299,-3.9299,-3.9299,-3.9299,-3.9299,-3.9299,-3.9299,-3.9299,-3.9299,-3.9299,-3.9299,-3.9299,-3.9299,-3.9299,-3.9299,-3.9299,-3.9299,-3.9299,-3.9299,-3.9299,-3.9299,-3.9299,-3.9299,-3.9299,-3.9299,-3.9299,-3.9299,-3.9175,0.0,0.0,0.0,0.0,-3.0974,0.0,0.0,0.0,-2.7012,-2.5329,0.0,0.0,0.0,0.0,0.0,0.0,0.0,0.0,0.0,0.0,0.0,0.0,0.0,0.0,0.0,-3.4551,-3.5015,-3.7069,-3.5413,-3.5479,-3.8195,-3.8328,-3.8626,-3.9282,-3.9299,-3.9299,-3.9299,-3.9299,-3.9299,-3.9299,-3.9299,-3.9299,-3.9299,-3.9299,-3.9299,-3.9299,-3.9299,-3.9299,-3.9299,-3.9299,-3.9299,-3.9299,-3.9299,-3.9299,-3.9299,-3.9299,-3.9299,-3.9299,-3.9299,-3.9299,-3.9299,-3.9299,-3.9299,-3.9299,-3.9299,-3.9299,-3.9299,-3.9299,-3.9299,-3.9299,-3.9299,-3.9299,-3.9299,-3.9299,-3.9299,-3.9299,-3.9299,-3.9299,-3.9299,-3.9299,-3.9299,-3.9299,-3.9299,-3.9299,-3.9299,-3.9299,-3.9299,-3.9299,-3.9299,-3.9299,-3.9299,-3.9299,-3.9299,-3.9299,-3.9299,-3.9299,-3.9299,-3.9299,-3.9299,-3.9299,-3.9299,-3.9299,-3.9299,-3.9299,-3.9299,-3.9299,-3.9299,-3.9299,-3.9299,-3.9299,-3.9299,-3.9175,0.0,0.0,0.0,0.0,0.0,0.0,-2.7893,0.0,-2.6488,0.0,0.0,0.0,0.0,0.0,0.0,0.0,0.0,0.0,0.0,0.0,0.0,0.0,0.0,0.0,0.0,0.0,0.0,0.0,-3.3922,-3.4253,-3.6787,-3.7748,-3.8344,-3.8642,-3.9083,-3.9299,-3.9299,-3.9299,-3.9299,-3.9299,-3.9299,-3.9299,-3.9299,-3.9299,-3.9299,-3.9299,-3.9299,-3.9299,-3.9299,-3.9299,-3.9299,-3.9299,-3.9299,-3.9299,-3.9299,-3.9299,-3.9299,-3.9299,-3.9299,-3.9299,-3.9299,-3.9299,-3.9299,-3.9299,-3.9299,-3.9299,-3.9299,-3.9299,-3.9299,-3.9299,-3.9299,-3.9299,-3.9299,-3.9299,-3.9299,-3.9299,-3.9299,-3.9299,-3.9299,-3.9299,-3.9299,-3.9299,-3.9299,-3.9299,-3.9299,-3.9299,-3.9299,-3.9299,-3.9299,-3.9299,-3.9299,-3.9299,-3.9299,-3.9299,-3.9299,-3.9299,-3.9299,-3.9299,-3.9299,-3.9299,-3.9299,-3.9299,-3.9299,-3.9299,-3.9299,-3.9245,-3.9121,-3.9245,-3.9218,-3.9013,-3.9218,-3.9148,-3.5053,0.0,0.0,0.0,0.0,0.0,0.0,0.0,0.0,0.0,0.0,0.0,0.0,0.0,0.0,0.0,0.0,0.0,0.0,0.0,0.0,0.0,0.0,0.0,0.0,0.0,0.0,0.0,0.0,-3.2536,-3.5545,-3.6721,-3.7582,-3.8169,-3.8709,-3.91,-3.9299,-3.9299,-3.9299,-3.9299,-3.9299,-3.9299,-3.9299,-3.9299,-3.9299,-3.9299,-3.9299,-3.9299,-3.9299,-3.9299,-3.9299,-3.9299,-3.9299,-3.9299,-3.9299,-3.9299,-3.9299,-3.9299,-3.9299,-3.9299,-3.9299,-3.9299,-3.9299,-3.9299,-3.9299,-3.9299,-3.9299,-3.9299,-3.9299,-3.9299,-3.9299,-3.9299,-3.9299,-3.9299,-3.9299,-3.9299,-3.9299,-3.9299,-3.9299,-3.9299,-3.9299,-3.9299,-3.9299,-3.9299,-3.9299,-3.9299,-3.9299,-3.9299,-3.9299,-3.9299,-3.9299,-3.9299,-3.9299,-3.9299,-3.9299,-3.9299,-3.9299,-3.9299,-3.9299,-3.9299,-3.9299,-3.9299,-3.9299,-3.9299,-3.9245,-3.9175,-3.9094,-3.9148,-3.9067,-3.886,-3.9094,-3.9067,0.0,0.0,0.0,-3.2562,0.0,0.0,0.0,0.0,-2.9548,0.0,0.0,0.0,0.0,0.0,0.0,0.0,0.0,0.0,0.0,0.0,0.0,0.0,0.0,0.0,0.0,0.0,0.0,0.0,0.0,0.0,-3.4667,-3.4982,-3.5992,-3.8119,-3.8228,-3.8576,-3.9299,-3.9299,-3.9299,-3.9299,-3.9299,-3.9299,-3.9299,-3.9299,-3.9299,-3.9299,-3.9299,-3.9299,-3.9299,-3.9299,-3.9299,-3.9299,-3.9299,-3.9299,-3.9299,-3.9299,-3.9299,-3.9299,-3.9299,-3.9299,-3.9299,-3.9299,-3.9299,-3.9299,-3.9299,-3.9299,-3.9299,-3.9299,-3.9299,-3.9299,-3.9299,-3.9299,-3.9299,-3.9299,-3.9299,-3.9299,-3.9299,-3.9299,-3.9299,-3.9299,-3.9299,-3.9299,-3.9299,-3.9299,-3.9299,-3.9299,-3.9299,-3.9299,-3.9299,-3.9299,-3.9299,-3.9299,-3.9299,-3.9299,-3.9299,-3.9299,-3.9299,-3.9299,-3.9299,-3.9299,-3.9299,-3.9299,-3.9299,-3.9299,-3.9121,-3.9094,-3.9299,-3.8969,-3.8887,-3.8996,-3.8996,-3.8942,0.0,0.0,-3.7895,-3.444,0.0,0.0,0.0,0.0,0.0,0.0,0.0,0.0,0.0,0.0,0.0,0.0,0.0,0.0,0.0,0.0,0.0,0.0,0.0,0.0,0.0,0.0,0.0,0.0,-2.8575,0.0,0.0,-3.4104,-3.5462,-3.6721,-3.7673,-3.8543,-3.9299,-3.9299,-3.9299,-3.9299,-3.9299,-3.9299,-3.9299,-3.9299,-3.9299,-3.9299,-3.9299,-3.9299,-3.9299,-3.9299,-3.9299,-3.9299,-3.9299,-3.9299,-3.9299,-3.9299,-3.9299,-3.9299,-3.9299,-3.9299,-3.9299,-3.9299,-3.9299,-3.9299,-3.9299,-3.9299,-3.9299,-3.9299,-3.9299,-3.9299,-3.9299,-3.9299,-3.9299,-3.9299,-3.9299,-3.9299,-3.9299,-3.9299,-3.9299,-3.9299,-3.9299,-3.9299,-3.9299,-3.9299,-3.9299,-3.9299,-3.9299,-3.9299,-3.9299,-3.9299,-3.9299,-3.9299,-3.9299,-3.9299,-3.9299,-3.9299,-3.9299,-3.9299,-3.9299,-3.9299,-3.9299,-3.9299,-3.9299,-3.9299,-3.9094,-3.8996,-3.8969,-3.886,-3.8722,-3.8616,-3.8699,-3.8727,-3.8417,-3.8664,0.0,-3.5677,-3.46,0.0,-3.0446,0.0,0.0,0.0,0.0,0.0,0.0,0.0,0.0,0.0,0.0,0.0,0.0,-2.2598,0.0,0.0,0.0,0.0,0.0,0.0,-2.5645,-2.7848,-2.7531,0.0,0.0,0.0,-3.4568,-3.5578,-3.7052,-3.8162,-3.8891,-3.9183,-3.9299,-3.9299,-3.9299,-3.9299,-3.9299,-3.9299,-3.9299,-3.9299,-3.9299,-3.9299,-3.9299,-3.9299,-3.9299,-3.9299,-3.9299,-3.9299,-3.9299,-3.9299,-3.9299,-3.9299,-3.9299,-3.9299,-3.9299,-3.9299,-3.9299,-3.9299,-3.9299,-3.9299,-3.9299,-3.9299,-3.9299,-3.9299,-3.9299,-3.9299,-3.9299,-3.9299,-3.9299,-3.9299,-3.9299,-3.9299,-3.9299,-3.9299,-3.9299,-3.9299,-3.9299,-3.9299,-3.9299,-3.9299,-3.9299,-3.9299,-3.9299,-3.9299,-3.9299,-3.9299,-3.9299,-3.9299,-3.9299,-3.9299,-3.9299,-3.9299,-3.9299,-3.9299,-3.9299,-3.9299,-3.9272,-3.9175,-3.9023,-3.8887,-3.8805,-3.8455,-3.8359,-3.8464,-3.8262,-3.829]},{"header":{"parameterUnit":"m.s-1","parameterCategory":1,"la1":30.6,"la2":29.2853,"lo1":-89.7004,"lo2":-87.6739,"dy":0.0162,"dx":0.0183,"nx":112,"ny":82,"refTime":"2024-05-29T06:00:00:Z","depth":0,"parameterNumber":3,"parameterNumberName":"V-component_of_WINDS"},"data":[0.0,0.0,0.0,0.0,0.0,0.0,0.0,0.0,0.0,0.0,0.0,0.0,0.0,0.0,0.0,0.0,0.0,0.0,0.0,0.0,0.0,0.0,0.0,0.0,0.0,0.0,0.0,0.0,0.0,0.0,0.0,0.0,0.0,0.0,0.0,0.0,0.0,0.0,0.0,0.0,0.0,0.0,0.0,0.0,0.0,0.0,0.0,0.0,0.0,0.0,0.0,0.0,0.0,0.0,0.0,0.0,0.0,0.0,0.0,0.0,0.0,0.0,0.0,0.0,0.0,0.0,0.0,0.0,0.0,0.0,0.0,0.0,0.0,0.0,0.0,0.0,0.0,0.0,0.0,0.0,0.0,0.0,0.0,0.0,0.0,0.0,0.0,0.0,0.0,0.0,0.6864,0.7455,0.7957,0.8207,0.8164,0.8555,0.822,0.6908,0.0,0.0,0.0,0.0,0.0,0.0,0.0,0.0,0.0,0.0,0.0,0.0,0.0,0.0,0.0,0.0,0.0,0.0,0.0,0.0,0.0,0.0,0.0,0.0,0.0,0.0,0.0,0.0,0.0,0.0,0.0,0.0,0.0,0.0,0.0,0.0,0.0,0.0,0.0,0.0,0.0,0.0,0.0,0.0,0.0,0.0,0.0,0.0,0.0,0.0,0.0,0.0,0.0,0.0,0.0,0.0,0.0,0.0,0.0,0.0,0.0,0.0,0.0,0.0,0.0,0.0,0.0,0.0,0.0,0.0,0.0,0.0,0.0,0.0,0.0,0.0,0.0,0.0,0.0,0.0,0.0,0.0,0.0,0.0,0.0,0.0,0.0,0.0,0.0,0.0,0.0,0.0,0.0,0.0,0.0,0.0,0.0,0.0,0.0,0.0,0.0,0.0,0.0,0.0,0.6719,0.7442,0.7789,0.8225,0.8864,0.8516,0.8082,0.7805,0.0,0.0,0.0,0.0,0.0,0.0,0.0,0.0,0.0,0.0,0.0,0.0,0.0,0.0,0.0,0.0,0.0,0.0,0.0,0.0,0.0,0.0,0.0,0.0,0.0,0.0,0.0,0.0,0.0,0.0,0.0,0.0,0.0,0.0,0.0,0.0,0.0,0.0,0.0,0.0,0.0,0.0,0.0,0.0,0.0,0.0,0.0,0.0,0.0,0.0,0.0,0.0,0.0,0.0,0.0,0.0,0.0,0.0,0.0,0.0,0.0,0.0,0.0,0.0,0.0,0.0,0.0,0.0,0.0,0.0,0.0,0.0,0.0,0.0,0.0,0.0,0.0,0.0,0.0,0.0,0.0,0.0,0.0,0.0,0.0,0.0,0.0,0.0,0.0,0.0,0.0,0.0,0.0,0.0,0.0,0.0,0.0,0.0,0.0,0.0,0.0,0.0,0.0,0.6485,0.6857,0.772,0.7789,0.8182,0.9136,0.8859,0.84,0.776,0.7677,0.0,0.0,0.0,0.0,0.0,0.0,0.0,0.0,0.0,0.0,0.0,0.0,0.0,0.0,0.0,0.0,0.0,0.0,0.0,0.0,0.0,0.0,0.0,0.0,0.0,0.0,0.0,0.0,0.0,0.0,0.0,0.0,0.0,0.0,0.0,0.0,0.0,0.0,0.0,0.0,0.0,0.0,0.0,0.0,0.0,0.0,0.0,0.0,0.0,0.0,0.0,0.0,0.0,0.0,0.0,0.0,0.0,0.0,0.0,0.0,0.0,0.0,0.0,0.0,0.0,0.0,0.0,0.0,0.0,0.0,0.0,0.0,0.0,0.0,0.0,0.0,0.0,0.0,0.0,0.0,0.0,0.0,0.0,0.0,0.0,0.0,0.0,0.0,0.0,0.0,0.0,0.0,0.0,0.0,0.0,0.0,0.0,0.0,0.0,0.0,0.0,0.0,0.7128,0.7408,0.828,0.8197,0.8493,0.9488,0.9191,0.8607,0.7833,0.7705,0.0,0.0,0.0,0.0,0.0,0.0,0.0,0.0,0.0,0.0,0.0,0.0,0.0,0.0,0.0,0.0,0.0,0.0,0.0,0.0,0.0,0.0,0.0,0.0,0.0,0.0,0.0,0.0,0.0,0.0,0.0,0.0,0.0,0.0,0.0,0.0,0.0,0.0,0.0,0.0,0.0,0.0,0.0,0.0,0.0,0.0,0.0,0.0,0.0,0.0,0.0,0.0,0.0,0.0,0.0,0.0,0.0,0.0,0.0,0.0,0.0,0.0,0.0,0.0,0.0,0.0,0.0,0.0,0.0,0.0,0.0,0.0,0.0,0.0,0.0,0.0,0.0,0.0,0.0,0.0,0.0,0.0,0.0,0.0,0.0,0.0,0.0,0.0,0.0,0.0,0.0,0.0,0.0,0.0,0.0,0.0,0.0,0.0,0.0,0.0,0.0,0.0,0.8107,0.873,0.9171,0.9203,0.9528,1.0358,0.9264,0.8576,0.8622,0.7583,0.0,0.0,0.0,0.0,0.0,0.0,0.0,0.0,0.0,0.0,0.0,0.0,0.0,0.0,0.0,0.0,0.0,0.0,0.0,0.0,0.0,0.0,0.0,0.0,0.0,0.0,0.0,0.0,0.0,0.0,0.0,0.0,0.0,0.0,0.0,0.0,0.0,0.0,0.0,0.0,0.0,0.0,0.0,0.0,0.0,0.0,0.0,0.0,0.0,0.0,0.0,0.0,0.0,0.0,0.0,0.0,0.0,0.0,0.0,0.0,0.0,0.0,0.0,0.0,0.0,0.0,0.0,0.0,0.0,0.0,0.0,0.0,0.0,0.0,0.0,0.0,0.0,0.0,0.0,0.0,0.0,0.0,0.0,0.0,0.0,0.0,0.0,0.0,0.0,0.0,0.0,0.0,0.0,0.0,0.0,0.0,0.0,0.0,0.0,0.0,0.0,0.0,0.7339,0.7907,0.0,0.8563,0.9091,1.0458,0.9755,0.91,0.8782,0.0,0.0,0.0,0.0,0.0,0.0,0.0,0.0,0.0,0.0,0.0,0.0,0.0,0.0,0.0,0.0,0.0,0.0,0.0,0.0,0.0,0.0,0.0,0.0,0.0,0.0,0.0,0.0,0.0,0.0,0.0,0.0,0.0,0.0,0.0,0.0,0.0,0.0,0.0,0.0,0.0,0.0,0.0,0.0,0.0,0.0,0.0,0.0,0.0,0.0,0.0,0.0,0.0,0.0,0.0,0.0,0.0,0.0,0.0,0.0,0.0,0.0,0.0,0.0,0.0,0.0,0.0,0.0,0.0,0.0,0.0,0.0,0.0,0.0,0.0,0.0,0.0,0.0,0.0,0.0,0.0,0.0,0.0,0.0,0.0,0.0,0.0,0.0,0.0,0.0,0.0,0.0,0.0,0.0,0.0,0.0,0.0,0.0,0.0,0.0,0.0,0.0,0.7419,0.7752,0.8353,0.0,0.9184,0.9515,1.0841,1.019,0.9456,0.8823,0.0,0.0,0.0,0.0,0.0,0.0,0.0,0.0,0.0,0.0,0.0,0.0,0.0,0.0,0.0,0.0,0.0,0.0,0.0,0.0,0.0,0.0,0.0,0.0,0.0,0.0,0.0,0.0,0.0,0.0,0.0,0.0,0.0,0.0,0.0,0.0,0.0,0.0,0.0,0.0,0.0,0.0,0.0,0.0,0.0,0.0,0.0,0.0,0.0,0.0,0.0,0.0,0.0,0.0,0.0,0.0,0.0,0.0,0.0,0.0,0.0,0.0,0.0,0.0,0.0,0.0,0.0,0.0,0.0,0.0,0.0,0.0,0.0,0.0,0.0,0.0,0.0,0.0,0.0,0.0,0.0,0.0,0.0,0.0,0.0,0.0,0.0,0.0,0.0,0.0,0.0,0.0,0.0,0.0,0.0,0.0,0.0,0.0,0.0,0.0,0.0,0.0,0.9125,0.9726,1.0594,1.1928,1.1355,1.1094,1.1639,1.054,0.9511,0.0,0.0,0.0,0.0,0.0,0.0,0.0,0.0,0.0,0.0,0.0,0.0,0.0,0.0,0.0,0.0,0.0,0.0,0.0,0.0,0.0,0.0,0.0,0.0,0.0,0.0,0.0,0.0,0.0,0.0,0.0,0.0,0.0,0.0,0.0,0.0,0.0,0.0,0.0,0.0,0.0,0.0,0.0,0.0,0.0,0.0,0.0,0.0,0.0,0.0,0.0,0.0,0.0,0.0,0.0,0.0,0.0,0.0,0.0,0.0,0.0,0.0,0.0,0.0,0.0,0.0,0.0,0.0,0.0,0.0,0.0,0.0,0.0,0.0,0.0,0.0,0.0,0.0,0.0,0.0,0.0,0.0,0.0,0.0,0.0,0.0,0.0,0.0,0.0,0.0,0.0,0.0,0.0,0.0,0.0,0.0,0.0,0.0,0.0,0.0,0.0,0.0,0.0,0.8113,0.9304,1.0211,1.0338,1.0231,1.0357,1.0736,1.0162,0.9507,0.8843,0.0,0.0,0.0,0.0,0.0,0.0,0.0,0.0,0.0,0.0,0.0,0.0,0.0,0.0,0.0,0.0,0.0,0.0,0.0,0.0,0.0,0.0,0.0,0.0,0.0,0.0,0.0,0.0,0.0,0.0,0.0,0.0,0.0,0.0,0.0,0.0,0.0,0.0,0.0,0.0,0.0,0.0,0.0,0.0,0.0,0.0,0.0,0.0,0.0,0.0,0.0,0.0,0.0,0.0,0.0,0.0,0.0,0.0,0.0,0.0,0.0,0.0,0.0,0.0,0.0,0.0,0.0,0.0,0.0,0.0,0.0,0.0,0.0,0.0,0.0,0.0,0.0,0.0,0.0,0.0,0.0,0.0,0.0,0.0,0.0,0.0,0.0,0.0,0.0,0.0,0.0,0.0,0.0,0.0,0.0,0.0,0.0,0.0,0.0,0.0,0.0,0.0,0.816,0.937,1.0308,1.063,1.041,1.0396,1.0781,1.0271,0.9597,0.8858,0.0,0.0,0.0,0.0,0.0,0.0,0.0,0.0,0.0,0.0,0.0,0.0,0.0,0.0,0.0,0.0,0.0,0.0,0.0,0.0,0.0,0.0,0.0,0.0,0.0,0.0,0.0,0.0,0.0,0.0,0.0,0.0,0.0,0.0,0.0,0.0,0.0,0.0,0.0,0.0,0.0,0.0,0.0,0.0,0.0,0.0,0.0,0.0,0.0,0.0,0.0,0.0,0.0,0.0,0.0,0.0,0.0,0.0,0.0,0.0,0.0,0.0,0.0,0.0,0.0,0.0,0.0,0.0,0.0,0.0,0.0,0.0,0.0,0.0,0.0,0.0,0.0,0.0,0.0,0.0,0.0,0.0,0.0,0.0,0.0,0.0,0.0,0.0,0.0,0.0,0.0,0.0,0.0,0.0,0.0,0.0,0.0,0.0,0.0,0.0,0.0,0.0,0.8891,0.976,1.0796,1.2125,1.1409,1.0966,1.1381,1.0616,0.978,0.8905,0.0,0.0,0.0,0.0,0.0,0.0,0.0,0.0,0.0,0.0,0.0,0.0,0.0,0.0,0.0,0.0,0.0,0.0,0.0,0.0,0.0,0.0,0.0,0.0,0.0,0.0,0.0,0.0,0.0,0.0,0.0,0.0,0.0,0.0,0.0,0.0,0.0,0.0,0.0,0.0,0.0,0.0,0.0,0.0,0.0,0.0,0.0,0.0,0.0,0.0,0.0,0.0,0.0,0.0,0.0,0.0,0.0,0.0,0.0,0.0,1.0828,0.0,0.0,0.0,0.0,0.0,0.0,0.0,0.0,0.0,0.0,0.0,0.0,0.0,0.0,0.0,0.0,0.0,0.0,0.0,0.0,0.0,0.0,0.0,0.0,0.0,0.0,0.0,0.0,0.0,0.0,0.0,0.0,0.0,0.0,0.0,0.0,0.0,0.0,0.0,0.0,0.0,0.892,1.0245,1.1355,1.1924,1.1797,1.1574,1.1415,1.0835,1.0087,0.9178,0.7969,0.0,0.0,0.0,0.0,0.0,0.0,0.0,0.0,0.0,0.0,0.0,0.0,0.0,0.0,0.0,0.0,0.0,0.0,0.0,0.0,0.0,0.0,0.0,0.0,0.0,0.0,0.0,0.0,0.0,0.0,0.0,0.0,0.0,0.0,0.0,0.0,0.0,0.0,0.0,0.0,0.0,0.0,0.0,0.0,0.0,0.0,0.0,0.0,0.0,0.0,0.0,0.0,0.0,0.0,0.0,0.0,0.0,0.0,0.0,0.0,1.1604,0.0,0.0,0.0,0.0,0.0,0.0,0.0,0.0,0.0,0.0,0.0,0.0,0.0,0.0,0.0,0.0,0.0,0.0,0.0,0.0,0.0,0.0,0.0,0.0,0.0,0.0,0.0,0.0,0.0,0.0,0.0,0.0,0.0,0.0,0.0,0.0,0.0,0.0,0.0,0.0,0.8926,1.0406,1.1483,1.1637,1.1657,1.1536,1.1243,1.0777,1.0154,0.9341,0.8491,0.0,0.0,0.0,0.0,0.0,0.0,0.0,0.0,0.0,0.0,0.0,0.0,0.0,0.0,0.0,0.0,0.0,0.0,0.0,0.0,0.0,0.0,0.0,0.0,0.0,0.0,0.0,0.0,0.0,0.0,0.0,0.0,0.0,0.0,0.0,0.0,0.0,0.0,0.0,0.0,0.0,0.0,0.0,0.0,0.0,0.0,0.0,0.0,0.0,0.0,0.0,0.0,0.0,1.5293,1.551,1.551,1.551,1.5663,1.5855,1.4074,1.3328,1.3276,1.2114,0.0,0.0,0.0,0.0,0.0,0.0,0.0,0.0,0.0,0.0,0.0,0.0,0.0,0.0,0.0,0.0,0.0,0.0,0.0,0.0,0.0,0.0,0.0,0.0,1.1631,1.1408,0.0,0.0,0.0,0.0,0.0,0.0,0.0,0.0,0.0,0.0,0.0,0.0,0.9106,1.0488,1.1417,1.1417,1.1417,1.1323,1.1114,1.0752,1.0265,0.9644,0.9102,0.8432,0.0,0.0,0.0,0.0,0.0,0.0,0.0,0.0,0.0,0.0,0.0,0.0,0.0,0.0,0.0,0.0,0.0,0.0,0.0,0.0,0.0,0.0,0.0,0.0,0.0,0.0,0.0,0.0,0.0,0.0,0.0,0.0,1.4489,1.4786,0.0,0.0,0.0,0.0,0.0,0.0,0.0,0.0,0.0,0.0,0.0,0.0,0.0,1.5226,1.5845,1.5932,1.6246,1.6837,1.6832,1.6848,1.6848,1.6848,1.6878,1.6909,1.6637,0.0,1.4866,1.4093,0.0,0.0,0.0,0.0,0.0,0.0,0.0,0.0,0.0,0.0,0.0,0.0,0.0,0.0,0.0,0.0,0.0,0.0,0.0,0.0,0.0,0.0,1.3083,1.2808,1.2778,1.2662,0.0,1.0839,0.974,0.9501,0.8397,0.0,0.0,0.0,0.0,0.0,0.0,0.0,0.9907,1.085,1.1471,1.1471,1.1471,1.1457,1.1455,1.1167,1.0849,1.0462,0.9897,0.9386,0.9045,0.7944,0.0,0.0,0.0,0.0,0.0,0.0,0.0,0.0,0.0,0.0,0.0,0.0,0.0,0.0,0.0,0.0,0.0,0.0,0.0,0.0,0.0,0.0,0.0,0.0,0.0,0.0,0.0,0.0,0.0,1.4911,1.5693,1.4731,1.4917,1.4791,0.0,0.0,0.0,0.0,0.0,0.0,0.0,0.0,0.0,1.6096,1.6442,1.6857,1.7341,1.7615,1.79,1.821,1.8527,1.8668,1.866,1.848,1.8394,1.8386,1.8137,1.7642,1.6844,1.5792,1.4682,1.3653,0.0,0.0,0.0,0.0,1.2425,1.2583,1.2636,1.2781,0.0,1.2557,0.0,0.0,0.0,0.0,0.0,0.0,0.0,0.0,0.0,0.0,1.3777,1.3821,1.3828,1.3792,1.3645,1.2706,1.1592,0.0,1.0009,0.949,0.8993,0.0,0.0,0.0,0.0,1.0085,1.059,1.1157,1.1514,1.1514,1.1514,1.1444,1.1308,1.1231,1.1003,1.0447,1.0222,0.9802,0.9166,0.8537,0.775,0.0,0.0,0.0,0.0,0.0,0.0,0.0,0.0,0.0,0.0,0.0,0.0,0.0,0.0,0.0,0.0,0.0,0.0,0.0,0.0,0.0,0.0,0.0,0.0,0.0,0.0,0.0,0.0,1.638,1.6887,1.541,1.6271,1.6314,0.0,0.0,0.0,0.0,0.0,0.0,1.6247,1.6695,1.7198,1.7891,1.8202,1.8543,1.8892,1.9199,1.9373,1.9373,1.9732,1.9917,1.9901,1.9654,1.9503,1.936,1.909,1.8764,1.8314,1.7091,1.6087,1.5258,1.4902,1.4425,1.4001,1.4255,1.4356,1.4388,1.4584,1.4712,1.4728,1.4348,0.0,1.2961,1.234,0.0,0.0,0.0,0.0,1.3023,1.3594,1.3982,1.4289,1.4531,1.4589,1.4589,1.4589,1.4143,1.3302,0.0,1.1565,1.1231,1.0165,0.0,0.0,0.0,0.0,1.0781,1.1273,1.1503,1.1645,1.1645,1.1574,1.1432,1.1237,1.131,1.1135,1.0537,1.0466,1.0097,0.9322,0.9041,0.8506,0.7646,0.0,0.0,0.0,0.0,0.0,0.0,0.0,0.0,0.0,0.0,0.0,0.0,0.0,0.0,0.0,0.0,0.0,0.0,0.0,0.0,0.0,0.0,0.0,0.0,0.0,0.0,0.0,0.0,0.0,1.8394,1.8372,0.0,0.0,0.0,0.0,1.6993,1.7043,1.7285,1.7848,1.8512,1.9146,1.9749,2.0106,2.0414,2.0762,2.0496,2.0337,2.0337,2.0019,1.9917,1.9917,1.9893,1.9718,1.9423,1.9399,1.9137,1.8694,1.8017,1.7372,1.6833,1.6433,1.6188,1.6042,1.6057,1.6065,1.6032,1.5823,1.588,1.6124,1.6151,1.5497,1.4568,1.3901,1.3332,0.0,0.0,1.3645,1.4027,1.4372,1.4655,1.4856,1.4878,1.4878,1.4878,1.4878,1.4655,1.4254,0.0,1.2602,1.1959,1.1894,0.0,1.1348,1.1465,1.1623,1.1783,1.1942,1.1963,1.1971,1.1971,1.1733,1.1575,1.1591,1.1591,1.1445,1.107,1.0763,1.0426,1.0068,0.949,0.8891,0.8263,0.7776,0.0,0.0,0.0,0.0,0.0,0.0,0.0,0.0,0.0,0.0,0.0,0.0,0.0,0.0,0.0,0.0,0.0,0.0,0.0,0.0,0.0,0.0,0.0,0.0,0.0,0.0,0.0,0.0,1.8802,1.9252,0.0,1.773,1.7443,1.7541,1.8189,1.8502,1.9043,1.9801,2.029,2.0759,2.1255,2.1382,2.1517,2.1592,2.1242,2.1016,2.1016,2.071,2.0543,2.0535,2.0313,2.0019,1.9726,1.9511,1.9161,1.8765,1.8557,1.8203,1.7834,1.77,1.7467,1.7227,1.7227,1.7227,1.7184,1.6986,1.6943,1.697,1.645,1.6045,1.5629,1.502,1.4695,1.4594,1.4962,1.4984,1.4992,1.5313,1.5328,1.5214,1.5214,1.5214,1.5214,1.5214,1.4958,1.4706,1.4433,1.3601,1.2906,1.2694,1.2361,1.2043,1.1897,1.208,1.2364,1.2602,1.2441,1.2317,1.2317,1.2025,1.178,1.1606,1.1401,1.1136,1.0814,1.0455,1.0126,0.9797,0.9577,0.9289,0.8888,0.8502,0.7511,0.0,0.0,0.0,0.0,0.0,0.0,0.0,0.0,0.0,0.0,0.0,0.0,0.0,0.0,0.0,0.0,0.0,0.0,0.0,0.0,0.0,0.0,0.0,0.0,0.0,0.0,2.05,1.9471,2.0326,2.0407,1.8846,1.8949,1.928,1.9645,2.01,2.0621,2.1242,2.1497,2.1783,2.2178,2.2186,2.2186,2.2186,2.191,2.1626,2.1396,2.1159,2.0984,2.0909,2.0678,2.0377,2.0068,1.9734,1.9336,1.9002,1.8875,1.8692,1.8478,1.8478,1.8335,1.8128,1.8128,1.8128,1.8128,1.7958,1.7877,1.7733,1.7165,1.6927,1.6779,1.6274,1.6007,1.5924,1.6145,1.5956,1.5796,1.6009,1.5833,1.5549,1.5549,1.5469,1.5389,1.5389,1.5221,1.5061,1.5061,1.4414,1.3718,1.3397,1.3155,1.2899,1.2543,1.2716,1.2928,1.3148,1.2884,1.2687,1.2687,1.2259,1.1916,1.1736,1.1357,1.0968,1.0609,1.028,0.9958,0.9629,0.9588,0.9442,0.9069,0.8456,0.7606,0.6543,0.0,0.0,0.0,0.0,0.0,0.0,0.0,0.0,0.0,0.0,0.0,0.0,0.0,0.0,0.0,0.0,0.0,0.0,0.0,0.0,0.0,0.0,0.0,2.042,2.0625,2.0838,2.0695,2.1729,2.1963,2.0572,2.106,2.1412,2.1412,2.1783,2.2027,2.2027,2.2043,2.2202,2.249,2.2506,2.2506,2.2506,2.249,2.2148,2.1412,2.1404,2.1214,2.0925,2.0925,2.0726,2.0377,2.0084,1.9734,1.9391,1.8994,1.8789,1.8781,1.8781,1.8781,1.8781,1.8781,1.8781,1.8781,1.8781,1.8658,1.8473,1.834,1.8192,1.7957,1.7622,1.7213,1.6816,1.6816,1.6625,1.6426,1.6426,1.6162,1.5928,1.5921,1.563,1.5396,1.5389,1.5389,1.5389,1.5389,1.4926,1.4438,1.4108,1.3996,1.3879,1.3558,1.3506,0.0,1.3492,1.3221,1.3023,1.3009,1.2412,1.2025,1.2003,1.1443,1.0968,1.0609,1.0272,0.9943,0.9629,0.9588,0.9354,0.883,0.7654,0.7163,0.7398,0.0,0.0,0.0,0.0,0.0,0.0,0.0,0.0,0.0,0.0,0.0,0.0,0.0,0.0,0.0,0.0,0.0,0.0,0.0,0.0,0.0,0.0,2.2131,2.1758,2.2236,2.2455,2.1938,2.2049,2.2002,2.1589,2.1703,2.1822,2.1822,2.2148,2.2339,2.2339,2.2585,2.2768,2.2863,2.2871,2.2871,2.2871,2.2617,2.2259,2.1814,2.1515,2.1214,2.0925,2.0925,2.0726,2.0384,2.0289,1.9916,1.9415,1.9264,1.9066,1.8781,1.8781,1.8781,1.8781,1.8781,1.8781,1.8781,1.8781,1.8781,1.8681,1.8502,1.8425,1.8317,1.8033,1.7858,1.7682,1.7498,1.7228,1.6951,1.6816,1.6529,1.6184,1.5972,1.5848,1.5716,1.544,1.5389,1.5389,1.5389,1.5284,1.5057,1.4696,1.4289,1.399,1.3895,1.3645,0.0,1.3492,1.3418,1.3272,1.3031,1.2848,1.2514,1.204,1.1443,1.0968,1.0609,1.006,0.9709,0.9595,0.9588,0.9536,0.938,0.8393,0.7705,0.0,0.0,0.0,0.0,0.0,0.0,0.0,0.0,0.0,0.0,0.0,0.0,0.0,0.0,0.0,0.0,0.0,0.0,0.0,0.0,0.0,0.0,2.2771,2.3384,2.3294,2.3072,2.2841,2.2468,2.2301,2.2235,2.2386,2.2402,2.2402,2.2402,2.2593,2.2704,2.2704,2.2903,2.3014,2.3014,2.3014,2.3014,2.3014,2.2815,2.2529,2.2172,2.183,2.1481,2.1087,2.0937,2.0805,2.0607,2.0456,2.017,1.9781,1.9542,1.9248,0.0,0.0,0.0,0.0,0.0,1.8781,1.8781,1.8781,1.8781,1.8781,1.8651,1.8612,1.8612,1.8458,1.8272,1.8087,1.79,1.7579,1.7193,1.7101,1.6859,1.6573,1.6352,1.6104,1.5862,1.563,1.5484,1.5389,1.5389,1.5389,0.0,1.5133,1.4681,1.4296,1.4026,1.3821,1.3653,1.3514,1.3492,1.3426,1.3228,1.3089,1.2797,1.2251,1.1648,0.0,0.0,0.0,0.9753,0.9621,0.938,0.0,0.0,0.0,0.0,0.0,0.0,0.0,0.0,0.5725,0.5297,0.0,0.0,0.0,0.0,0.0,0.0,0.0,0.0,0.0,0.0,0.0,0.0,0.0,0.0,0.0,0.0,2.489,2.4996,2.4619,2.3576,2.2781,2.2535,2.2521,2.2672,2.2982,2.3014,2.3014,2.3014,2.3014,2.3014,2.3014,0.0,0.0,0.0,0.0,2.303,2.307,2.3077,2.2895,2.2545,2.2242,2.1822,2.1388,2.1032,2.0925,2.0901,2.0591,2.0424,2.0345,1.9741,1.9495,1.9336,1.897,1.8781,1.8781,1.8781,1.8781,1.8781,1.8781,0.0,0.0,1.8781,1.8781,1.8781,1.8781,1.8504,1.8179,1.8133,1.78,1.7372,1.7326,1.7167,1.6947,1.691,1.647,1.6001,1.5935,1.5687,1.5433,1.5396,1.5389,1.5389,1.5389,1.5119,1.471,1.4179,1.4033,1.3879,1.3587,1.3521,1.3492,1.3492,0.0,0.0,1.2565,1.1984,1.1503,1.118,1.0521,1.0024,0.9738,0.9242,0.9249,0.9724,0.8738,0.8678,0.9645,0.8042,0.7599,0.8128,0.6283,0.5741,0.0,0.0,0.0,0.0,0.0,0.0,0.0,0.0,0.0,0.0,0.0,0.0,0.0,0.0,0.0,2.4822,2.6235,2.6616,2.4553,2.4765,2.4491,2.2733,2.2736,2.2942,2.3006,2.3014,2.3014,2.3014,2.3014,2.3014,2.3014,2.3014,2.3014,2.3014,2.3014,2.3149,2.3378,2.3385,2.326,2.2911,0.0,0.0,2.1388,2.1032,2.0925,2.0917,2.0853,2.0655,2.0384,2.0249,1.9868,1.9336,1.897,1.8781,1.8781,1.8781,1.8781,1.8781,1.8781,1.8781,1.8781,1.8781,1.8781,1.8781,1.8781,1.8735,0.0,1.8473,1.8187,1.79,1.7667,1.7429,1.7172,1.6961,1.6807,1.658,1.6023,1.587,1.5703,1.544,1.5389,1.5389,1.5389,1.5119,1.4856,1.4732,1.4311,1.3998,1.3894,1.366,1.3492,1.3492,1.344,1.3265,1.2943,1.2314,1.1802,1.1518,1.0887,1.0463,1.0404,1.0313,1.0341,1.0565,1.0249,1.0031,0.9911,0.8902,0.8242,0.7938,0.6806,0.6421,0.0,0.0,0.0,0.0,0.0,0.0,0.0,0.0,0.0,0.0,0.0,2.2842,0.0,0.0,2.5972,2.6261,2.7142,2.6972,2.4783,2.4979,2.4651,2.2967,2.2911,2.3014,2.3014,2.3014,2.3014,2.3014,2.3014,2.3014,2.3014,2.3014,2.3014,2.3014,2.3014,2.3101,2.3219,2.3219,2.3189,2.3006,2.2474,2.2045,2.1687,2.1163,2.0925,2.0925,2.0925,2.0821,2.0647,2.0464,1.9987,1.9399,1.9169,1.8986,1.8781,1.8781,1.8781,1.8781,1.8781,1.8781,1.8781,1.8781,1.8781,1.8781,1.8781,1.8743,1.8612,1.8527,1.8195,1.7861,1.7721,1.7481,1.7289,1.7128,1.7013,1.6815,1.6455,1.614,1.587,1.5659,1.5498,1.5389,1.5389,1.525,1.509,1.4929,1.463,1.4348,1.4026,1.3843,1.3675,1.3514,1.3492,1.336,1.3038,1.2375,1.1792,1.1379,1.1041,1.0755,1.0594,1.0587,1.0644,1.0701,1.0644,1.0329,0.9811,0.9385,0.8782,0.7951,0.7545,0.723,0.0,0.0,0.0,0.0,0.0,0.0,0.0,0.0,2.147,2.2522,2.3691,2.4892,2.6061,2.7081,2.7762,2.7907,2.7823,2.7093,2.538,2.4944,2.4334,2.3127,2.3014,2.3014,2.3014,2.3014,2.3014,2.3014,2.3014,2.3014,2.3014,2.3014,2.3014,2.3014,2.3014,2.3054,2.3117,2.3117,2.3117,2.3109,2.2402,2.2075,2.1987,2.1234,2.0925,2.0925,2.0925,2.0925,2.0893,2.0535,2.0067,1.9558,1.9471,1.9193,1.8923,1.8805,1.8781,1.8781,1.8781,1.8781,1.8781,1.8781,1.8781,1.8781,1.8781,1.8697,1.8574,1.8527,1.8148,1.7768,1.7721,1.7481,1.7279,1.7279,1.7128,1.6976,1.691,1.6499,1.6067,1.5943,1.5659,1.5462,1.5396,1.5389,1.5301,1.5039,1.4944,1.4696,1.415,1.4026,1.3857,1.3536,1.3492,1.336,1.3038,1.2434,1.185,1.1297,1.1232,1.1078,1.0814,1.0835,1.0835,1.0835,1.0835,1.0602,1.0075,0.9856,0.9282,0.8355,0.8215,0.7845,1.8839,1.8911,1.943,2.1073,2.1228,2.16,0.0,0.0,2.4414,2.5761,2.6532,2.7044,2.7593,2.8452,2.9074,2.9116,2.856,2.7684,2.6481,2.5415,2.4334,2.3127,2.3014,2.3014,2.3014,2.3014,2.3014,2.3014,2.3014,2.3014,2.3014,2.3014,2.3014,2.3014,2.3014,2.3165,2.3425,2.3425,2.3425,2.3417,2.2768,2.2314,2.1987,2.1234,2.0925,2.0925,2.0925,2.0925,2.0893,2.0535,2.0353,2.0218,1.9606,1.9391,1.9272,1.8947,1.8781,1.8781,1.8781,1.8781,1.8781,1.8781,1.8781,1.8781,1.8781,1.8781,1.8743,1.8574,1.8288,1.7994,1.7768,1.7481,1.7279,1.7279,1.7304,1.7201,1.6961,1.6844,1.6631,1.6023,1.5884,1.5767,1.5433,1.5389,1.5374,1.5338,1.509,1.4776,1.4496,1.4196,1.3857,1.3536,1.3492,1.336,1.3038,1.2672,1.228,1.1916,1.1694,1.1525,1.1489,1.1605,1.1659,1.1659,1.1659,1.1728,1.1828,1.0559,0.985,0.9565,0.8522,0.7817,2.0514,2.0855,2.1311,2.2356,2.2863,2.3443,2.4869,2.5275,2.5637,2.6791,2.7552,2.8193,2.8638,2.927,2.9268,0.0,2.7946,2.7302,2.4808,2.4659,2.4258,2.2895,2.2887,2.3014,2.3014,2.3014,2.3014,2.3014,2.3014,2.3014,2.3014,2.3014,2.3014,2.3014,2.3014,2.3085,2.3236,2.3236,2.3236,2.3171,2.2728,2.2299,2.1995,2.1457,2.1064,2.0925,2.0925,2.0925,2.0909,2.0766,2.0575,2.0369,2.0075,1.9725,1.9328,1.8962,1.8781,1.8781,1.8781,1.8781,1.8781,1.8781,1.8781,1.8781,1.8781,1.8781,1.8781,1.8697,1.8419,1.8087,1.8148,1.7714,1.7333,1.7481,1.7426,1.7296,1.7357,1.7225,1.7056,1.6914,1.6467,1.6084,1.5943,1.5708,1.5575,1.5575,1.5347,1.5068,1.4787,1.4465,1.4108,1.355,1.3492,1.336,1.3038,1.2884,1.255,1.2032,1.1879,1.1782,1.1723,1.1771,1.1802,1.1802,1.1802,1.1639,1.1351,1.1132,1.0534,0.9498,0.9317,0.8761,2.1621,2.2242,2.2832,2.3412,2.424,2.5026,2.5492,2.5937,2.6532,2.7282,2.7966,2.8466,2.8615,2.9012,2.8668,2.6712,2.6859,2.6391,2.384,2.3869,2.38,2.2759,2.2776,2.2911,2.3006,2.3014,2.3014,2.3014,2.3014,2.3014,2.3014,2.3014,2.3014,2.3014,2.3014,2.3014,2.3014,2.3014,2.3014,2.3014,2.2656,2.2347,2.2147,2.1655,2.1206,2.0925,2.0925,2.0925,2.0925,2.0925,2.0774,2.0527,2.0432,2.0091,1.9598,1.9145,1.8915,1.8781,1.8781,1.8781,1.8781,1.8781,1.8781,1.8781,1.8781,1.8781,1.8781,1.8735,1.8465,1.8234,1.8381,1.7947,1.7567,1.7768,1.7667,1.7567,1.7768,1.7627,1.747,1.7598,1.7105,1.6588,1.6407,1.6124,1.5929,1.5839,1.5673,1.543,1.5065,1.4661,1.4235,1.3733,1.3674,1.3577,1.3332,1.3236,1.2915,1.2402,1.2252,1.2158,1.1959,1.1968,1.1962,1.1872,1.1926,1.1746,1.1347,1.1716,1.1284,1.0133,1.0228,0.9744,2.1797,2.247,2.3381,2.4239,2.5171,2.5958,2.647,2.6936,2.7392,2.781,2.7924,2.7736,2.7168,2.7386,2.7303,2.6197,2.5404,2.4889,2.4778,2.348,2.268,2.2958,2.2704,2.2633,0.0,2.3014,2.3014,2.3014,2.3014,2.3014,2.3014,2.3014,2.3014,2.3014,2.3014,2.3014,2.3014,2.3014,2.3014,2.3014,2.2656,2.2482,2.245,2.1705,2.1206,2.0925,2.0925,2.0925,2.0925,2.0925,2.0865,2.0869,2.0527,2.0377,2.0281,1.9654,1.9129,1.8781,1.8781,1.8781,1.8781,1.8781,1.8781,1.8781,1.8781,1.8781,1.8743,1.8574,1.8481,1.8435,1.8179,1.8087,1.8087,1.8087,1.8087,1.8087,1.8087,1.8079,1.7972,1.7644,1.756,1.7346,1.6705,1.6591,1.6469,1.6141,1.6087,1.5883,1.5373,1.4702,1.4246,1.4095,1.4093,1.4093,1.4078,1.376,1.3507,1.3267,1.2968,1.2632,1.2303,1.2409,1.2354,1.2096,1.2212,1.2437,1.2739,1.2288,1.2116,1.219,1.115,1.0475,2.2635,2.3391,2.4302,2.5202,2.5885,2.6501,2.6967,2.7195,2.7351,2.7448,2.7479,2.7435,2.724,2.6973,2.6499,2.5577,2.4835,2.4213,2.3695,2.3135,2.2791,2.268,2.2768,0.0,0.0,0.0,0.0,2.3014,2.3014,2.3014,2.3014,2.3014,2.3014,2.3014,2.3014,2.3014,2.3014,2.3014,2.3014,2.3014,2.2656,2.249,2.2466,2.1767,2.1333,2.1206,2.102,2.0925,2.0925,2.0925,2.0925,2.0909,2.079,2.0599,2.0337,1.9917,1.9535,1.9153,1.8868,1.8781,1.8781,1.8781,1.8781,1.8781,1.8781,1.8781,1.8781,1.8743,1.8612,1.852,1.855,1.8319,1.8133,1.8326,1.8234,1.8133,1.8334,1.8381,1.8388,1.8402,1.8107,1.7722,1.7265,1.6993,1.6672,1.6332,1.6203,1.5965,1.5541,1.5108,1.4744,1.4468,1.4231,1.4093,1.4093,1.3994,1.3805,1.3522,1.3408,1.3229,1.3027,1.307,1.3049,1.2973,1.3006,1.3093,1.321,1.3045,1.2851,1.2631,1.2185,1.1718,2.3505,2.4333,2.5202,2.5937,2.6521,2.6946,2.7237,2.689,2.6527,2.6364,2.6201,2.5855,2.5122,2.5044,2.4777,2.3895,2.3591,2.3318,2.3055,2.2903,2.2791,2.2688,2.2768,2.2784,0.0,0.0,0.0,2.3014,2.3014,2.3014,2.3014,2.3014,2.3014,2.3014,2.3014,2.3014,2.3014,2.3014,2.3014,2.3014,2.2784,2.2609,2.2466,2.1894,2.1568,2.1381,2.1024,2.0925,2.0925,2.0925,2.0925,2.0925,2.0925,2.0782,2.0527,2.0092,1.9781,1.9479,1.8994,1.8781,1.8781,1.8781,1.8781,1.8781,1.8781,1.8781,1.8781,1.8781,1.8697,1.8658,1.8781,1.8596,1.8411,1.8566,1.8465,1.8411,1.8566,1.8612,1.8658,1.8781,1.8515,1.8165,1.7864,1.7365,1.6925,1.6572,1.6409,1.617,1.575,1.5511,1.5242,1.4847,1.4636,1.4413,1.4289,1.4274,1.4153,1.3916,1.3901,1.3782,1.3536,1.3554,1.3533,1.3475,1.3475,1.3538,1.3663,1.3663,1.3582,1.3443,1.3151,1.2856,2.4321,2.5244,2.6065,2.6532,2.6978,2.7299,2.7278,2.6199,2.5117,2.469,2.4156,2.3159,0.0,0.0,2.2325,2.1506,2.1756,2.2204,2.2919,2.2728,2.2633,0.0,0.0,0.0,0.0,0.0,0.0,2.3014,0.0,2.3014,2.3014,2.3014,2.3014,2.3014,2.3014,2.3014,2.3014,2.3014,2.3014,2.3014,2.3014,2.2839,2.2498,2.2186,2.1783,2.1404,2.1032,2.0925,2.0925,2.0925,2.0925,2.0925,2.0925,2.0925,2.0837,2.0172,1.9917,1.9813,1.9066,1.8781,1.8781,1.8781,1.8781,1.8781,1.8781,1.8781,1.8781,1.8781,1.8781,1.8781,1.8781,1.8781,1.8781,1.8781,1.8781,1.8781,1.8781,1.8781,1.8781,1.8781,1.8765,1.8647,1.8359,1.7731,1.7159,1.6776,1.6705,1.6537,1.6013,1.5927,1.574,1.5308,1.5205,1.5046,1.466,1.4613,1.4533,1.4425,1.4425,1.4241,1.3863,1.3847,1.3768,1.364,1.3632,1.3807,1.414,1.414,1.4272,1.4605,1.4093,1.3833,2.5295,2.5958,2.6553,2.7019,2.7216,2.7216,2.6874,2.6244,2.5507,2.4676,2.3661,2.2588,0.0,0.0,0.0,2.1341,2.1677,0.0,2.2919,2.2934,0.0,2.3006,0.0,2.2919,2.3006,2.3014,0.0,0.0,2.3014,2.3014,2.3014,2.3014,2.3014,2.3014,2.3014,2.3014,2.3014,2.3014,2.3014,2.3014,2.3014,2.2966,2.2863,2.2298,2.1963,2.1791,2.1187,2.0925,2.0925,2.0925,2.0925,2.0925,2.0925,2.0925,2.0837,2.0172,1.9917,1.9813,1.9066,1.8781,1.8781,1.8781,1.8781,1.8781,1.8781,1.8781,1.8781,1.8781,1.8781,1.8781,1.8781,1.8781,1.8781,1.8781,1.8781,1.8781,1.8781,1.8781,1.8781,1.8781,1.8613,1.8406,1.8319,1.7731,1.7289,1.7151,1.6905,1.6665,1.6497,1.6292,1.6063,1.5968,1.5491,1.5149,1.5054,1.4756,1.4605,1.4569,1.4533,1.4494,1.4399,1.4399,1.4395,1.4336,1.4336,1.4383,1.447,1.447,1.4518,1.4605,1.4453,1.4389,2.5295,2.5855,2.6259,2.6512,2.6124,2.5759,2.6177,2.5154,2.389,2.3177,2.2038,2.0828,1.9776,1.9702,1.994,0.0,0.0,0.0,2.2664,2.2919,2.3014,0.0,2.3014,0.0,2.3014,2.3014,2.3014,0.0,2.3014,2.3014,2.3014,2.3014,2.3014,2.3014,2.3014,2.3014,2.3014,2.3014,2.3014,2.3014,2.3014,2.3014,2.2998,2.2442,2.2154,2.1979,0.0,2.1016,2.0925,2.0925,2.0925,2.0925,2.0925,2.0925,2.0853,2.0297,2.0044,1.9837,1.9256,1.8962,1.8781,1.8781,1.8781,1.8781,1.8781,1.8781,1.8781,1.8781,1.8781,1.8781,1.8781,1.8781,1.8781,1.8781,1.8781,1.8781,1.8781,1.8781,1.8781,1.8781,1.8669,1.8478,1.8327,1.785,1.7488,1.7302,1.6969,1.6689,1.6689,1.6523,1.6373,1.6222,1.5864,1.5515,1.5213,1.4998,1.4779,1.4613,1.4605,1.4605,1.4605,1.4605,1.4605,1.4605,1.4605,1.4605,1.4605,1.4605,1.4605,1.4605,1.4605,1.4605,2.4763,2.516,2.5499,2.5499,2.4523,2.3937,2.5158,2.3415,2.146,2.1155,1.9986,1.8668,1.754,1.7868,1.8529,1.915,0.0,2.1234,2.2331,2.2752,2.2966,2.3006,2.3014,2.3014,2.3014,2.3014,2.3014,2.3014,2.3014,2.3014,2.3014,2.3014,2.3014,2.3014,2.3014,2.3014,2.3014,2.3014,2.3014,2.3014,2.3014,2.3014,2.3006,2.2649,2.2291,2.1995,2.1547,0.0,2.0925,2.0925,2.0925,2.0925,2.0925,2.0925,2.0877,2.0527,2.017,1.9861,1.9535,1.9129,1.8781,1.8781,1.8781,1.8781,1.8781,1.8781,1.8781,1.8781,1.8781,1.8781,1.8781,1.8781,1.8781,1.8781,1.8781,1.8781,1.8781,1.8781,1.8781,1.8781,1.8781,1.8732,1.8422,1.8073,1.7731,1.744,1.704,1.6745,1.6697,1.6689,1.6578,1.6309,1.623,1.5968,1.5372,1.5276,1.5102,1.47,1.4676,1.4653,1.4605,1.4605,1.4605,1.4605,1.4605,1.4605,1.4605,1.4605,1.4605,1.4605,1.4605,1.4605,2.4122,2.4337,2.4393,2.4393,2.398,2.3481,2.3119,2.1864,0.0,0.0,1.8913,1.7415,1.7451,1.7488,1.7704,1.8396,1.9606,2.0956,2.2299,2.2537,2.2688,0.0,2.3014,2.3014,2.3014,2.3014,0.0,0.0,2.3014,2.3014,2.3014,2.3014,2.3014,2.3014,2.3014,2.3014,2.3014,2.3014,2.3014,2.3014,2.3014,2.3014,2.3006,2.2649,2.2291,2.1995,2.1547,0.0,2.0925,2.0925,2.0925,2.0925,2.0925,2.0925,2.0877,2.0527,2.017,1.9861,1.9535,1.9129,1.8781,1.8781,1.8781,1.8781,1.8781,1.8781,1.8781,1.8781,1.8781,1.8781,1.8781,1.8781,1.8781,1.8781,1.8781,1.8781,1.8781,1.8781,1.8781,1.8781,1.8781,1.8765,1.8702,1.8438,1.8089,1.7783,1.7397,1.7072,1.6737,1.6689,1.6673,1.661,1.6381,1.6158,1.6039,1.5761,1.5489,1.511,1.5094,1.4951,1.4621,1.4605,1.4605,1.4605,1.4605,1.4605,1.4605,1.4605,1.4605,1.4605,1.4605,1.4605,2.3155,2.3261,2.3261,2.3261,2.2327,2.1496,2.1716,0.0,0.0,0.0,1.773,1.6657,1.6625,1.6693,1.6889,1.7405,1.8661,2.0067,2.1473,2.183,2.2212,2.2927,2.3014,2.3014,0.0,2.3014,2.3014,2.3014,2.3014,2.3014,2.3014,2.3014,2.3014,2.3014,2.3014,2.3014,2.3014,2.3014,2.3014,2.3014,2.3014,2.3014,2.3006,2.2839,2.2466,2.2003,2.1791,0.0,2.0925,2.0925,2.0925,2.0925,2.0925,2.0925,2.0901,2.0734,2.0448,2.0091,1.9797,1.9399,1.9082,1.8891,1.8781,1.8781,1.8781,1.8781,1.8781,1.8781,1.8781,1.8781,1.8781,1.8781,1.8781,1.8781,1.8781,1.8781,1.8781,1.8781,1.8781,1.8781,1.8781,1.8781,1.8781,1.8533,1.824,1.8073,1.7755,1.7448,1.7064,1.7016,1.6945,1.6713,1.6539,1.6404,1.6222,1.6047,1.5801,1.5459,1.5481,1.5284,1.4943,1.4919,1.4795,1.4605,1.4605,1.4605,1.4605,1.4605,1.4605,1.4605,1.4605,1.4605,2.1979,2.2114,2.2173,2.2173,2.0769,1.9599,2.0395,1.9044,0.0,1.7287,1.6604,1.5961,1.5814,1.5897,1.615,0.0,1.7735,1.9121,2.0599,2.1127,2.1761,0.0,2.2974,0.0,2.3014,2.3014,0.0,2.3014,0.0,0.0,2.3014,2.3014,2.3014,2.3014,2.3014,2.3014,2.3014,2.3014,2.3014,2.3014,2.3014,2.3014,2.3014,2.3014,2.2625,2.2011,2.2011,0.0,0.0,2.0925,2.0925,2.0925,2.0925,2.0925,2.0925,2.0925,2.0694,2.0337,2.0036,1.9694,1.9312,1.8947,1.8781,1.8781,1.8781,1.8781,1.8781,1.8781,1.8781,1.8781,1.8781,1.8781,1.8781,1.8781,1.8781,1.8781,1.8781,1.8781,1.8781,1.8781,1.8781,1.8781,1.8781,1.8597,1.839,1.8311,1.8065,1.7806,1.7472,1.7326,1.7167,1.6881,1.6737,1.6578,1.6341,1.6317,1.6166,1.5817,1.5793,1.568,1.5308,1.5292,1.5157,1.4835,1.4827,1.4827,1.4827,1.4756,1.4724,1.4716,1.4637,1.4605,2.0532,2.0822,2.107,2.107,2.0237,1.9224,1.868,0.0,1.6353,1.6416,1.5513,1.4995,1.5665,1.5531,1.5594,1.6531,0.0,1.847,2.0202,2.102,2.1666,2.245,0.0,0.0,2.3014,2.3014,0.0,2.3014,0.0,0.0,2.3014,2.3014,2.3014,2.3014,2.3014,2.3014,2.3014,2.3014,2.3014,2.3014,2.3014,2.3014,2.3014,2.3014,2.2625,2.2011,2.2011,0.0,0.0,2.0925,2.0925,2.0925,2.0925,2.0925,2.0925,2.0925,2.0694,2.0337,2.0036,1.9694,1.9312,1.8947,1.8781,1.8781,1.8781,1.8781,1.8781,1.8781,1.8781,1.8781,1.8781,1.8781,1.8781,1.8781,1.8781,1.8781,1.8781,1.8781,1.8781,1.8781,1.8781,1.8781,1.8781,1.8758,1.8669,1.8351,1.8271,1.812,1.7814,1.7504,1.7305,1.7231,1.6937,1.6681,1.665,1.6642,1.6491,1.6182,1.6158,1.5999,1.568,1.5634,1.5656,1.5578,1.5578,1.5578,1.5578,1.5284,1.5133,1.5125,1.4756,1.4605,1.9983,2.0401,2.0664,2.0604,1.9812,1.8804,1.789,1.6754,1.5766,1.5349,1.4917,1.4713,1.5026,1.5154,1.5388,1.5999,1.6508,1.7374,1.8915,1.9558,2.0319,2.1703,2.2172,0.0,0.0,0.0,2.3014,2.3014,0.0,0.0,2.3014,2.3014,2.3014,2.3014,2.3014,2.3014,2.3014,2.3014,2.3014,2.3014,2.3014,2.3014,2.3006,2.2791,2.2426,2.2003,2.1743,0.0,0.0,2.0925,2.0925,2.0925,2.0925,2.0925,2.0925,2.0925,2.0837,2.0662,2.0305,2.0004,1.9662,1.9264,1.9002,1.8781,1.8781,1.8781,1.8781,1.8781,1.8781,1.8781,1.8781,1.8781,1.8781,1.8781,1.8781,1.8781,1.8781,1.8781,1.8781,1.8781,1.8781,1.8781,1.8781,1.8781,1.8734,1.8637,1.8613,1.8486,1.8136,1.783,1.7544,1.7302,1.6953,1.6689,1.6689,1.6689,1.6634,1.6491,1.6483,1.6365,1.6007,1.5991,1.5896,1.572,1.5712,1.5712,1.5712,1.5585,1.5521,1.5513,1.5332,1.5261,1.9238,1.9775,2.0054,2.0006,1.9264,1.8295,1.7399,1.6404,1.5475,1.4748,1.4605,1.4605,1.4605,1.4811,1.5133,1.5475,1.5912,1.6659,1.7962,1.8629,1.9526,2.0913,0.0,2.2045,0.0,2.2895,2.3014,0.0,0.0,0.0,2.3014,2.3014,2.3014,2.3014,2.3014,2.3014,2.3014,2.3014,2.3014,2.3014,2.3014,2.3014,2.3006,2.2649,2.2291,2.1995,2.1547,0.0,0.0,2.0925,2.0925,2.0925,2.0925,2.0925,2.0925,2.0925,2.0925,2.0869,2.0519,2.0234,1.9996,1.9566,1.9201,1.897,1.8859,1.8781,1.8781,1.8781,1.8781,1.8781,1.8781,1.8781,1.8781,1.8781,1.8781,1.8781,1.8781,1.8781,1.8781,1.8781,1.8781,1.8781,1.8781,1.8781,1.8781,1.8781,1.8781,1.8694,1.8486,1.8144,1.7838,1.7461,1.7104,1.6808,1.6705,1.6689,1.6689,1.6689,1.6689,1.6578,1.6373,1.6357,1.6246,1.5991,1.5991,1.5991,1.5991,1.5888,1.5833,1.5833,1.5768,1.5737,1.7964,1.8598,1.9109,1.9109,1.8534,1.7728,1.7071,1.6275,1.5475,1.4748,1.4605,1.4605,1.4605,1.4605,1.4732,1.5133,1.5761,1.6571,1.7671,1.8738,1.963,0.0,0.0,2.1592,2.1987,2.2609,2.3014,0.0,0.0,0.0,2.3014,2.3014,2.3014,2.3014,2.3014,2.3014,2.3014,2.3014,2.3014,2.3014,2.3014,2.3014,2.3006,2.2649,2.2291,0.0,0.0,0.0,0.0,2.0925,2.0925,2.0925,2.0925,2.0925,2.0925,2.0925,2.0925,2.0869,2.0519,2.0392,2.0273,1.9646,1.9415,1.9304,1.8939,1.8781,1.8781,1.8781,1.8781,1.8781,1.8781,1.8781,1.8781,1.8781,1.8781,1.8781,1.8781,1.8781,1.8781,1.8781,1.8781,1.8781,1.8781,1.8781,1.8781,1.8781,1.8781,1.8781,1.8781,1.8518,1.816,1.7846,1.7469,1.7127,1.6721,1.6689,1.6689,1.6689,1.6689,1.6689,1.6689,1.6689,1.6681,1.6681,1.6681,1.6681,1.6681,1.6373,1.6198,1.619,1.584,1.5864,1.671,1.7379,1.778,1.7536,1.7352,1.7052,1.6082,1.5772,1.5475,1.4748,1.4605,1.4605,1.4605,1.4605,1.4954,1.6071,1.638,0.0,1.7985,0.0,0.0,2.0337,2.1655,2.2561,0.0,0.0,0.0,0.0,0.0,0.0,2.3014,2.3014,2.3014,2.3014,2.3014,2.3014,2.3014,2.3014,2.3014,2.3014,2.3014,2.2887,2.2641,2.2291,2.1941,0.0,0.0,0.0,0.0,2.0925,2.0925,2.0925,2.0925,2.0925,2.0925,2.0925,2.0925,2.0901,2.0798,2.0599,2.0321,1.9909,1.9606,1.9304,1.8939,1.8781,1.8781,1.8781,1.8781,1.8781,1.8781,1.8781,1.8781,1.8781,1.8781,1.8781,1.8781,1.8781,1.8781,1.8781,1.8781,1.8781,1.8781,1.8781,1.8781,1.8781,1.8781,1.8781,1.8781,1.8518,1.8255,1.8144,1.762,1.7127,1.6721,1.6689,1.6689,1.6689,1.6689,1.6689,1.6689,1.6689,1.6689,1.6689,1.6689,1.6689,1.6689,1.6578,1.6523,1.6523,1.6412,1.642,1.5379,1.6089,1.6542,1.6287,1.6343,1.6257,1.5443,1.5255,1.5165,1.4692,1.4502,1.4447,1.4581,1.4605,1.4938,1.5983,1.6254,0.0,0.0,0.0,0.0,2.0686,0.0,0.0,0.0,2.2934,0.0,0.0,0.0,0.0,2.3014,2.3014,2.3014,2.3014,2.3014,2.3014,2.3014,2.3014,2.3014,2.3014,2.2879,2.2696,2.2466,2.1989,2.1648,0.0,0.0,0.0,0.0,2.0925,2.0925,2.0925,2.0925,2.0925,2.0925,2.0925,2.0925,2.0925,2.0925,2.0774,2.0535,2.0178,1.9797,1.9304,1.8939,1.8781,1.8781,1.8781,1.8781,1.8781,1.8781,1.8781,1.8781,1.8781,1.8781,1.8781,1.8781,1.8781,1.8781,1.8781,1.8781,1.8781,1.8781,1.8781,1.8781,1.8781,1.8781,1.8781,1.8781,1.8637,1.8446,1.8311,1.7922,1.7517,1.7159,1.684,1.6689,1.6689,1.6689,1.6689,1.6689,1.6689,1.6689,1.6689,1.6689,1.6689,1.6689,1.6689,1.6689,1.6689,1.6689,1.6689,0.0,1.4765,1.5206,1.5185,1.5337,1.5347,1.4957,1.4714,0.0,1.4534,1.4288,1.4185,1.4542,1.4629,1.4787,1.5261,1.5648,0.0,0.0,1.8303,0.0,0.0,2.1838,0.0,2.249,0.0,0.0,0.0,0.0,0.0,2.3014,2.299,2.2974,2.2974,2.295,2.2966,2.3014,2.3014,2.3006,2.2974,2.2649,2.2458,2.2394,2.169,2.1388,0.0,0.0,0.0,0.0,2.0925,2.0925,2.0925,2.0925,2.0925,2.0925,2.0925,2.0925,2.0925,2.0925,2.0925,2.0861,2.048,1.9908,1.9304,1.8939,1.8781,1.8781,1.8781,1.8781,1.8781,1.8781,1.8781,1.8781,1.8781,1.8781,1.8781,1.8781,1.8781,1.8781,1.8781,1.8781,1.8781,1.8781,1.8781,1.8781,1.8781,1.8781,1.8781,1.8781,1.8781,1.87,1.8375,1.8311,1.8168,1.7878,1.7191,1.6768,1.6768,1.6745,1.6737,1.6737,1.6705,1.6689,1.6689,1.6689,1.6689,1.6689,1.6689,1.6689,1.6689,1.6689,1.6689,1.2485,0.0,1.3514,1.3236,1.3626,1.3966,0.0,1.3886,1.4122,1.3886,1.3982,1.4185,1.4542,1.4863,1.5435,1.6636,0.0,1.7556,1.8351,0.0,0.0,2.2474,2.272,2.2799,2.2879,0.0,0.0,0.0,0.0,2.3014,2.3014,2.276,2.2609,2.2609,2.2347,2.2466,2.3006,2.3014,2.2879,2.2609,2.2529,2.2204,2.1634,2.1476,2.1246,0.0,0.0,0.0,2.0925,2.0925,2.0925,2.0925,2.0925,2.0925,2.0925,2.0925,2.0925,2.0925,2.0925,2.0925,2.0821,2.0194,1.9757,1.9304,1.8939,1.8781,1.8781,1.8781,1.8781,1.8781,1.8781,1.8781,1.8781,1.8781,1.8781,1.8781,1.8781,1.8781,1.8781,1.8781,1.8781,1.8781,1.8781,1.8781,1.8781,1.8781,1.8781,1.8781,1.8781,1.8781,1.875,1.8716,1.8462,1.8263,1.8184,1.7779,1.7525,1.7525,1.7286,1.7151,1.7151,1.684,1.6689,1.6689,1.6689,1.6689,1.6689,1.6689,1.6689,1.6689,1.6689,1.6689,1.1597,1.2394,1.3192,1.3009,1.3351,1.3732,1.3541,1.359,1.368,1.3799,1.3846,1.4077,1.4768,1.5054,1.5586,1.6833,1.7175,0.0,0.0,0.0,2.1571,2.2871,2.3014,2.3014,0.0,0.0,0.0,0.0,0.0,2.2776,2.2776,2.2434,2.2243,2.2243,2.2115,2.2194,2.2529,2.2529,2.2434,2.2243,2.2084,2.1814,2.1388,2.123,2.1048,0.0,0.0,0.0,2.0925,2.0925,2.0925,2.0925,2.0925,2.0925,2.0925,2.0925,2.0925,2.0925,2.0925,2.0813,2.0591,2.0092,1.9686,1.9304,1.8939,1.8781,1.8781,1.8781,1.8781,1.8781,1.8781,1.8781,1.8781,1.8781,1.8781,1.8781,1.8781,1.8781,1.8781,1.8781,1.8781,1.8781,1.8781,1.8781,1.8781,1.8781,1.8781,1.8781,1.8781,1.8781,1.8781,1.8781,1.8653,1.8541,1.8541,1.8367,1.812,1.7838,1.7647,1.7544,1.7544,1.7318,1.7143,1.6984,1.6776,1.6689,1.6689,1.6689,1.6689,1.6689,1.6689,1.6689,1.121,1.2299,1.3397,1.3294,1.3597,1.3917,1.3863,1.3502,1.333,1.391,1.3878,1.4037,1.5006,1.5316,0.0,0.0,0.0,0.0,2.0234,2.1016,2.1785,2.2887,2.3014,0.0,0.0,0.0,0.0,0.0,0.0,2.241,2.241,2.2123,2.1932,2.1932,2.1884,2.1852,2.1852,2.1955,2.1987,2.1878,2.1539,2.1373,2.1301,2.1008,2.0925,2.0925,0.0,0.0,2.0925,2.0925,2.0925,2.0925,2.0925,2.0925,2.0925,2.0925,2.0925,2.0925,2.0925,2.0686,2.0337,2.0028,1.9686,1.9304,1.8939,1.8781,1.8781,1.8781,1.8781,1.8781,1.8781,1.8781,1.8781,1.8781,1.8781,1.8781,1.8781,1.8781,1.8781,1.8781,1.8781,1.8781,1.8781,1.8781,1.8781,1.8781,1.8781,1.8781,1.8781,1.8781,1.8781,1.8781,1.8781,1.8781,1.8781,1.8781,1.8573,1.7969,1.7882,1.787,1.7814,1.7814,1.7687,1.7358,1.7,1.6776,1.6776,1.6721,1.6689,1.6689,1.6689,1.6689,1.1663,1.2475,1.295,1.2361,1.2919,1.3507,1.3294,1.3398,1.3537,1.3648,1.4101,1.4589,1.5102,1.5904,1.6697,0.0,0.0,1.9511,0.0,0.0,2.1785,2.2887,0.0,0.0,0.0,0.0,0.0,0.0,0.0,2.2091,2.2091,2.1719,2.1476,2.1476,2.1234,2.1084,2.1084,2.1663,2.1814,2.1476,2.142,2.1238,2.1004,2.0897,2.0925,2.0925,0.0,2.0925,2.0925,2.0925,2.0925,2.0925,2.0925,2.0925,2.0925,2.0925,2.0925,2.0925,2.0925,2.0686,2.0337,2.0028,1.9686,1.9304,1.8939,1.8781,1.8781,1.8781,1.8781,1.8781,1.8781,1.8781,1.8781,1.8781,1.8781,1.8781,1.8781,1.8781,1.8781,1.8781,1.8781,1.8781,1.8781,1.8781,1.8781,1.8781,1.8781,1.8781,1.8781,1.8781,1.8781,1.8781,1.8781,1.8781,1.8781,1.8781,1.878,1.8676,1.8383,1.8081,1.783,1.7814,1.779,1.7735,1.7366,1.7199,1.7191,1.6881,1.6689,1.6689,1.6689,1.6689,1.0865,1.1784,1.2594,1.2502,1.3404,1.4339,1.434,1.4222,1.4212,1.4411,1.4704,1.5102,0.0,0.0,1.7046,1.8168,0.0,2.0281,2.1254,2.1608,2.2045,0.0,0.0,0.0,0.0,0.0,0.0,0.0,0.0,0.0,2.1687,2.1354,2.1111,2.1111,2.1004,2.0925,2.0925,2.1234,2.1322,2.1111,2.1111,2.1032,2.0925,2.0925,2.0925,2.0925,0.0,2.0925,2.0925,2.0925,2.0925,2.0925,2.0925,2.0925,2.0925,2.0925,2.0925,2.0925,2.0925,2.0567,2.0083,1.9965,1.9511,1.9042,1.8875,1.8781,1.8781,1.8781,1.8781,1.8781,1.8781,1.8781,1.8781,1.8781,1.8781,1.8781,1.8781,1.8781,1.8781,1.8781,1.8781,1.8781,1.8781,1.8781,1.8781,1.8781,1.8781,1.8781,1.8781,1.8781,1.8781,1.8781,1.8781,1.8781,1.8781,1.8781,1.8781,1.8781,1.8676,1.851,1.8351,1.816,1.8057,1.8057,1.7723,1.7504,1.7278,1.7111,1.6921,1.6689,1.6689,1.6689,1.0404,1.1373,1.2479,1.3033,1.4061,1.5065,1.5428,1.5182,1.497,1.5451,1.5618,0.0,0.0,1.6945,0.0,1.8883,1.9884,2.0734,2.1309,2.1679,2.2069,2.2696,0.0,0.0,0.0,0.0,0.0,0.0,0.0,0.0,2.1278,2.1016,2.0925,2.0925,2.0925,2.0925,2.0925,2.0925,2.0925,2.0925,2.0925,2.0925,2.0925,2.0925,2.0925,2.0925,2.0925,2.0925,2.0925,2.0925,2.0925,2.0925,2.0925,2.0925,2.0925,2.0925,2.0925,2.0925,2.0925,2.0456,1.9917,1.9917,1.9391,1.8781,1.8781,1.8781,1.8781,1.8781,1.8781,1.8781,1.8781,1.8781,1.8781,1.8781,1.8781,1.8781,1.8781,1.8781,1.8781,1.8781,1.8781,1.8781,1.8781,1.8781,1.8781,1.8781,1.8781,1.8781,1.8781,1.8781,1.8781,1.8781,1.8781,1.8781,1.8781,1.8781,1.8781,1.8781,1.8781,1.8781,1.8781,1.8565,1.8422,1.8422,1.8073,1.7771,1.7517,1.748,1.7247,1.6976,1.6897,1.6816,1.132,1.1995,1.2738,1.3757,1.4404,1.4986,1.5701,1.5755,1.5793,1.6444,1.6889,1.7143,0.0,1.8332,1.9359,1.9773,2.0408,2.1012,2.1341,0.0,2.1624,0.0,0.0,0.0,0.0,0.0,0.0,0.0,0.0,0.0,2.0964,2.0933,2.0925,2.0925,2.0925,2.0925,2.0925,2.0925,2.0925,2.0925,2.0925,2.0925,2.0925,2.0925,2.0925,2.0925,2.0925,2.0925,2.0925,2.0925,2.0925,2.0925,2.0925,2.0925,2.0925,2.0925,2.0925,2.0925,2.0925,2.0456,1.9917,1.9917,1.9391,1.8781,1.8781,1.8781,1.8781,1.8781,1.8781,1.8781,1.8781,1.8781,1.8781,1.8781,1.8781,1.8781,1.8781,1.8781,1.8781,1.8781,1.8781,1.8781,1.8781,1.8781,1.8781,1.8781,1.8781,1.8781,1.8781,1.8781,1.8781,1.8781,1.8781,1.8781,1.8781,1.8781,1.8781,1.8781,1.8781,1.8781,1.8781,1.8804,1.8742,1.8742,1.8438,1.8247,1.8224,1.7942,1.7767,1.7691,1.7382,1.7239,1.0916,1.1816,1.2874,1.3672,1.4508,1.5412,1.6212,1.6721,1.7161,1.7604,1.7819,1.7914,0.0,0.0,1.9217,1.9821,2.0273,2.0798,2.1317,2.1396,0.0,0.0,0.0,0.0,0.0,0.0,0.0,0.0,0.0,0.0,2.0925,2.0925,2.0925,2.0925,2.0925,2.0925,2.0925,2.0925,2.0925,2.0925,2.0925,2.0925,2.0925,2.0925,2.0925,2.0925,2.0925,2.0925,2.0925,2.0925,2.0925,2.0925,2.0925,2.0925,2.0925,2.0925,2.0925,2.0925,2.0925,2.0456,1.9917,1.9917,1.9391,1.8781,1.8781,1.8781,1.8781,1.8781,1.8781,1.8781,1.8781,1.8781,1.8781,1.8781,1.8781,1.8781,1.8781,1.8781,1.8781,1.8781,1.8781,1.8781,1.8781,1.8781,1.8781,1.8781,1.8781,1.8781,1.8781,1.8781,1.8781,1.8781,1.8781,1.8781,1.8781,1.9363,1.9446,1.8827,1.8781,1.8781,1.8781,1.8781,1.8781,1.8781,1.8692,1.8518,1.8295,1.816,1.7985,1.7806,1.7687,1.752,1.0953,1.1868,1.2971,1.3535,1.4556,1.5692,1.6664,1.7278,1.7811,1.8494,1.8637,1.8637,1.8637,0.0,0.0,0.0,2.0257,2.0726,2.1167,0.0,0.0,0.0,0.0,0.0,0.0,0.0,0.0,0.0,0.0,0.0,0.0,2.0925,2.0925,2.0925,2.0925,2.0925,2.0925,2.0925,2.0925,2.0925,2.0925,2.0925,2.0925,2.0925,2.0925,2.0925,2.0925,2.0925,2.0925,2.0925,2.0925,2.0925,2.0925,2.0925,2.0925,2.0925,2.0925,2.0901,2.0798,2.0361,1.9893,1.9789,1.9312,1.8781,1.8781,1.8781,1.8781,1.8781,1.8781,1.8781,1.8781,1.8781,1.8781,1.8781,1.8781,1.8781,1.8781,1.8781,1.8781,1.8781,1.8781,1.8781,1.8781,1.8781,1.8781,1.8781,1.8781,1.8781,1.8781,1.9096,1.9409,1.9675,1.9729,1.9729,1.9729,2.0348,2.0439,1.9766,1.9729,1.9455,1.8827,1.9096,1.9271,1.9271,1.9546,1.9468,1.895,1.895,1.8649,1.8097,1.7993,1.7819,1.1687,1.2303,1.3121,1.3491,1.4621,1.5888,1.7043,1.7294,1.7691,1.9128,1.9423,1.9423,1.9368,1.9686,0.0,1.9917,2.0456,2.0917,0.0,0.0,0.0,0.0,0.0,0.0,0.0,0.0,0.0,0.0,0.0,0.0,0.0,2.0925,2.0917,2.0925,2.0925,2.0925,2.0925,2.0925,2.0925,2.0925,2.0925,2.0925,2.0925,2.0925,2.0925,2.0925,2.0925,2.0925,2.0925,2.0925,2.0925,2.0925,2.0925,2.0925,2.0925,2.0925,2.0925,2.0861,2.0519,2.0162,1.9853,1.9527,1.9129,1.8781,1.8781,1.8781,1.8781,1.8781,1.8781,1.8781,1.8781,1.8781,1.8781,1.8781,1.8781,1.8781,1.8781,1.8781,1.8781,1.8781,1.8781,1.8781,1.8827,1.8827,1.8781,1.8827,1.8827,1.8827,1.8827,1.972,2.0664,2.1606,2.1695,2.1695,2.1695,2.1695,2.1695,2.1695,2.1695,2.0844,1.8874,1.9766,2.0303,2.0294,2.1204,2.1248,2.0294,2.0294,1.9812,1.8819,1.847,1.8303,1.1886,1.2701,1.373,1.4515,1.562,1.6791,1.7791,1.8192,1.8557,1.928,1.9423,1.9296,1.9034,1.928,0.0,1.9877,2.0249,2.0639,0.0,0.0,0.0,0.0,0.0,0.0,0.0,0.0,0.0,0.0,0.0,0.0,0.0,2.1623,2.1674,2.0925,2.0925,2.0925,2.0925,2.0925,2.0925,2.0925,2.0925,2.0925,2.0925,2.0925,2.0925,2.0925,2.0925,2.0925,2.0925,2.0925,2.0925,2.0925,2.0925,2.0925,2.0925,2.0925,2.0766,2.0535,2.0424,2.0011,1.955,1.9455,1.9129,1.8781,1.8781,1.8781,1.8781,1.8781,1.8781,1.8781,1.8781,1.8781,1.8781,1.8781,1.8781,1.8781,1.8781,1.8781,1.8781,1.8781,1.8781,1.9004,1.972,1.9271,1.905,1.9766,1.9857,2.0076,2.0754,2.1114,2.1373,2.165,2.1695,2.1695,2.1695,2.2306,2.2394,2.1739,2.2306,2.181,1.994,2.0799,2.097,2.0294,2.1204,2.1561,2.1293,2.1293,2.0799,1.9849,1.974,1.9196,1.2477,1.3364,1.4426,1.5316,1.6348,1.7392,1.8306,1.8788,1.9105,1.9328,1.9423,1.9351,1.909,1.9225,0.0,1.9686,1.9955,2.0257,0.0,0.0,0.0,0.0,0.0,0.0,0.0,0.0,0.0,0.0,0.0,0.0,0.0,2.2146,2.1936,2.1096,2.0696,2.0504,2.0504,2.0639,2.071,2.071,2.1057,2.1332,2.1522,2.107,2.0925,2.0909,2.0774,2.071,2.0702,2.0559,2.0504,2.0504,2.0504,2.0504,2.0504,2.0504,2.0369,2.0162,2.0035,1.9717,1.9352,1.9201,1.901,1.8781,1.8781,1.8781,1.8781,1.8781,1.8781,1.8781,1.8781,1.8781,1.8781,1.8781,1.8781,1.892,1.9317,1.9409,1.95,1.9857,1.9948,2.0121,2.0754,2.0348,2.0167,2.0746,2.0836,2.1195,2.2129,2.2262,2.2403,2.2755,2.2799,2.2799,2.2799,2.3333,2.342,2.2853,2.3333,2.2965,2.1454,2.1952,2.1996,2.1409,2.235,2.2624,2.2262,2.2262,2.1774,2.0836,2.0836,2.0228,1.3192,1.4126,1.5044,1.5916,1.6881,1.7835,1.8639,1.909,1.9367,1.9367,0.0,1.9367,1.9367,1.9399,1.9423,1.9423,1.9694,0.0,0.0,0.0,0.0,0.0,0.0,0.0,0.0,0.0,0.0,0.0,0.0,0.0,0.0,2.2624,2.1942,2.1309,2.0482,2.0006,2.0006,2.0326,2.0536,2.0635,2.1459,2.2081,2.2474,2.1558,2.1073,2.0955,2.0546,2.0345,2.0321,2.0044,1.9917,1.9917,1.9917,1.9917,1.9917,1.9917,1.9893,1.9821,1.9527,1.9399,1.9272,1.8939,1.8781,1.8781,1.8781,1.8781,1.8781,1.8781,1.8781,1.8781,1.8781,1.8874,1.892,1.892,1.892,1.9225,2.0212,2.0439,2.0656,2.1516,2.1695,2.1739,2.1828,2.1739,2.1739,2.1828,2.1828,2.2183,2.3096,2.3236,2.3541,2.4411,2.4497,2.4497,2.4497,2.4497,2.4497,2.4497,2.4497,2.4133,2.328,2.3236,2.3193,2.3096,2.4003,2.409,2.3236,2.3236,2.2746,2.1828,2.1828,2.1329,1.2914,1.4104,1.534,1.6274,1.7523,1.8553,1.875,1.8891,1.8947,1.8947,1.8947,1.8947,1.8947,1.9177,1.9423,1.9423,0.0,0.0,0.0,0.0,0.0,0.0,0.0,0.0,0.0,0.0,0.0,0.0,0.0,0.0,2.2911,2.3439,2.3026,2.134,2.11,2.1013,2.1013,2.1088,2.1508,0.0,2.239,2.2577,2.2667,2.2797,2.2449,2.1718,2.0516,2.0028,2.002,1.9941,1.9917,1.9917,1.9917,1.9917,1.9917,1.9917,1.975,1.9519,1.9447,1.9185,1.8931,1.8805,1.8781,1.8781,1.8781,1.8781,1.8781,1.8781,1.8781,1.8781,1.8781,1.9409,1.9985,1.9985,1.9985,2.0257,2.1204,2.1382,2.1472,2.165,2.1695,2.1917,2.2658,2.2173,2.1961,2.2702,2.279,2.3149,2.409,2.4186,2.4272,2.4497,2.4497,2.4497,2.4497,2.4497,2.4497,2.4497,2.4497,2.4411,2.4229,2.4186,2.3864,2.3096,2.4003,2.4411,2.4186,2.4186,2.3734,2.279,2.279,2.2306,1.2745,1.3977,1.5353,1.69,1.8026,1.8781,1.8781,1.8781,1.8781,1.8781,1.8781,1.8781,1.8781,1.8978,1.9113,1.9113,0.0,0.0,0.0,0.0,0.0,0.0,0.0,0.0,0.0,0.0,0.0,0.0,0.0,2.4159,2.39,2.3991,2.3484,2.2181,2.1721,2.1499,2.1499,2.1637,2.196,2.2463,2.2917,2.3377,2.3864,2.3336,2.2817,2.2272,2.0895,2.0316,2.026,1.9621,1.9368,1.9368,1.9368,1.9368,1.9368,1.9368,1.9264,1.9113,1.9113,1.8986,1.8781,1.8781,1.8781,1.8781,1.8781,1.8781,1.8781,1.8781,1.9142,1.9546,1.9546,2.0257,2.106,2.1543,2.1284,2.1239,2.2173,2.235,2.2482,2.294,2.3028,2.3202,2.3681,2.3377,2.3202,2.3691,2.3767,2.396,2.4454,2.4497,2.4497,2.4497,2.4497,2.4497,2.4497,2.4497,2.4497,2.4497,2.4497,2.4497,2.4497,2.4497,2.4272,2.3777,2.4272,2.4497,2.4497,2.4497,2.4229,2.3767,2.3767,2.329,1.2438,1.377,1.5295,1.7409,1.8304,1.871,1.8765,1.8781,1.8781,1.8781,1.8781,1.8781,1.8781,1.8781,1.8781,0.0,0.0,0.0,0.0,0.0,0.0,0.0,0.0,0.0,0.0,0.0,0.0,0.0,0.0,2.4531,2.5042,2.4329,2.3654,2.3105,2.235,2.1961,2.1961,2.2205,2.2417,2.2608,2.3364,2.4231,2.5032,2.3631,2.2982,2.2842,2.1525,2.0951,2.0842,1.9578,1.905,1.905,1.8874,1.8781,1.8781,1.8781,1.8781,1.8781,1.8781,1.8781,1.8781,1.8781,1.8781,1.8827,1.9004,1.892,1.8874,1.9234,1.9766,2.0339,2.0475,2.1239,2.2129,2.2921,2.2624,2.2403,2.3193,2.3323,2.3594,2.4368,2.4497,2.4497,2.4497,2.4497,2.4497,2.4497,2.4497,2.4497,2.4497,2.4497,2.4497,2.4497,2.4497,2.4497,2.4497,2.4497,2.4497,2.4497,2.4497,2.4497,2.4497,2.4497,2.4497,2.4497,2.4497,2.4497,2.4497,2.4497,2.4497,2.4497,2.4497,2.409,1.1584,1.3244,1.5242,1.7114,1.7817,1.8243,1.8672,0.0,1.8781,0.0,1.8781,1.8781,1.8781,1.8781,1.8781,0.0,0.0,0.0,0.0,0.0,0.0,0.0,0.0,0.0,0.0,0.0,0.0,0.0,2.4002,2.4522,2.46,2.445,2.4021,2.3139,2.2965,2.2921,2.2921,2.2979,2.3368,2.4181,2.4321,2.445,2.46,2.4382,2.4027,2.3583,2.2167,2.1589,2.15,2.0501,2.0121,2.0031,1.9142,1.8781,1.8781,1.8781,1.8781,1.8781,1.8781,1.8781,1.8781,1.8781,1.8781,1.8958,1.9857,1.9492,1.9142,2.0844,2.0836,2.0484,2.1293,2.2217,2.2921,2.3052,2.3637,2.4143,2.4272,2.4315,2.4358,2.4497,2.4497,2.4497,2.4497,2.4497,2.4497,2.4497,2.4497,2.4497,2.4497,2.4497,2.4497,2.4497,2.4497,2.4497,2.4497,2.4497,2.4497,2.4497,2.4497,2.4497,2.4497,2.4497,2.4497,2.4497,2.4497,2.4497,2.4497,2.4497,2.4497,2.4497,2.4497,2.4454,1.1772,1.3189,1.4675,1.6311,1.7231,1.7846,1.8409,1.8684,1.8781,1.8781,1.8781,1.8781,1.8781,1.8781,0.0,0.0,0.0,0.0,0.0,0.0,0.0,0.0,0.0,0.0,0.0,0.0,0.0,0.0,2.4272,2.4497,2.4497,2.4497,2.4315,2.3907,2.3864,2.3864,2.3864,2.3864,2.409,2.4497,2.4497,2.4497,2.4497,2.4497,2.4385,2.4146,2.2964,2.2482,2.2394,2.1463,2.106,2.1015,2.0619,2.0439,2.0348,1.9849,1.9629,1.9538,1.9012,1.8781,1.8874,1.9455,1.9629,1.9812,2.0799,2.0799,2.0619,2.1472,2.1774,2.1943,2.2394,2.3193,2.3864,2.3864,2.4186,2.4497,2.4497,2.4497,2.4497,2.4497,2.4497,2.4497,2.4497,2.4497,2.4497,2.4497,2.4497,2.4497,2.4497,2.4497,2.4497,2.4497,2.4497,2.4497,2.4497,2.4497,2.4497,2.4497,2.4497,2.4497,2.4497,2.4497,2.4497,2.4497,2.4497,2.4497,2.4497,2.4497,2.4497,2.4497,2.4497,2.4497,1.1553,1.2572,1.3703,1.524,1.6314,1.7231,0.0,0.0,1.8716,0.0,1.8781,1.8781,1.8781,0.0,0.0,0.0,0.0,0.0,0.0,0.0,0.0,0.0,0.0,0.0,0.0,0.0,0.0,0.0,2.4497,2.4497,2.4497,2.4497,2.4497,2.4497,2.4497,2.4497,2.4497,2.4497,2.4497,2.4497,2.4497,2.4497,2.4497,2.4497,2.4497,2.4454,2.3777,2.3454,2.3367,2.2438,2.205,2.2041,2.1784,2.1695,2.1606,2.0926,2.0656,2.0574,1.9812,1.9546,1.9675,2.0393,2.0656,2.0836,2.1774,2.1872,2.1784,2.2271,2.2755,2.3139,2.341,2.4003,2.4497,2.4497,2.4497,2.4497,2.4497,2.4497,2.4497,2.4497,2.4497,2.4497,2.4497,2.4497,2.4497,2.4497,2.4497,2.4497,2.4497,2.4497,2.4497,2.4497,2.4497,2.4497,2.4497,2.4497,2.4497,2.4497,2.4497,2.4497,2.4497,2.4497,2.4497,2.4497,2.4497,2.4497,2.4497,2.4497,2.4497,2.4497,2.4497,2.4497,1.0119,1.096,1.2131,1.3871,1.5004,1.6075,0.0,0.0,1.8422,1.871,1.8781,1.8781,1.8781,0.0,0.0,0.0,0.0,0.0,0.0,0.0,0.0,0.0,0.0,0.0,0.0,0.0,0.0,0.0,2.4497,2.4497,2.4497,2.4497,2.4497,2.4497,2.4497,2.4497,2.4497,2.4497,2.4497,2.4497,2.4497,2.4497,2.4497,2.4497,2.4497,2.4497,2.4454,2.4411,2.4358,2.341,2.3052,2.2921,2.205,2.1695,2.1695,2.165,2.165,2.1606,2.1561,2.1561,2.1561,2.1606,2.165,2.1784,2.2746,2.2394,2.205,2.3831,2.3734,2.3323,2.4186,2.4454,2.4497,2.4497,2.4497,2.4497,2.4497,2.4497,2.4497,2.4497,2.4497,2.4497,2.4497,2.4497,2.4497,2.4497,2.4497,2.4497,2.4497,2.4497,2.4497,2.4497,2.4497,2.4497,2.4497,2.4497,2.4497,2.4497,2.4497,2.4497,2.4497,2.4497,2.4497,2.4497,2.4497,2.4497,2.4497,2.4497,2.4497,2.4497,2.4497,2.4497,0.9958,1.0514,1.1367,1.3062,1.4099,1.501,1.6198,1.7098,1.7739,1.8081,1.8327,1.8557,1.8742,0.0,0.0,0.0,0.0,0.0,0.0,0.0,0.0,0.0,0.0,0.0,0.0,0.0,0.0,0.0,0.0,2.4497,2.4497,2.4497,2.4497,2.4497,2.4497,2.4497,2.4497,2.4497,2.4497,2.4497,2.4497,2.4497,2.4497,2.4497,2.4497,2.4497,2.4497,2.4497,2.4454,2.4133,2.4003,2.396,2.3647,2.3517,2.342,2.2843,2.2614,2.2526,2.1917,2.1695,2.1784,2.2394,2.2614,2.279,2.3734,2.3777,2.3647,2.4315,2.4272,2.409,2.4401,2.4497,2.4497,2.4497,2.4497,2.4497,2.4497,2.4497,2.4497,2.4497,2.4497,2.4497,2.4497,2.4497,2.4497,2.4497,2.4497,2.4497,2.4497,2.4497,2.4497,2.4497,2.4497,2.4497,2.4497,2.4497,2.4497,2.4497,2.4497,2.4497,2.4497,2.4497,2.4497,2.4497,2.4497,2.4497,2.4497,2.4497,2.4497,2.4497,2.4497,2.4497,0.968,1.0104,1.0798,1.2328,1.3106,1.3867,1.5268,1.619,1.6946,1.7528,1.7882,1.8281,0.0,0.0,0.0,0.0,0.0,0.0,0.0,0.0,0.0,0.0,0.0,0.0,0.0,0.0,0.0,0.0,0.0,0.0,2.4497,2.4497,2.4497,2.4497,2.4497,2.4497,2.4497,2.4497,2.4497,2.4497,2.4497,2.4497,2.4497,2.4497,2.4497,2.4497,2.4497,2.4497,2.4497,2.4497,2.4497,2.4497,2.4497,2.4497,2.4411,2.382,2.3551,2.3464,2.2843,2.2633,2.2765,2.3377,2.3551,2.3681,2.4315,2.4497,2.4497,2.4497,2.4497,2.4497,2.4497,2.4497,2.4497,2.4497,2.4497,2.4497,2.4497,2.4497,2.4497,2.4497,2.4497,2.4497,2.4497,2.4497,2.4497,2.4497,2.4497,2.4497,2.4497,2.4497,2.4497,2.4497,2.4497,2.4497,2.4497,2.4497,2.4497,2.4497,2.4497,2.4497,2.4497,2.4497,2.4497,2.4497,2.4497,2.4497,2.4497,2.4497,2.4497,2.4497,2.4497,2.4497,0.0,0.0,0.0,0.0,0.0,0.0,1.4791,0.0,1.5943,1.6976,1.7512,1.8019,0.0,0.0,0.0,0.0,0.0,0.0,0.0,0.0,0.0,0.0,0.0,0.0,0.0,0.0,0.0,0.0,2.4497,2.4497,2.4497,2.4497,2.4497,2.4497,2.4497,2.4497,2.4497,2.4497,2.4497,2.4497,2.4497,2.4497,2.4497,2.4497,2.4497,2.4497,2.4497,2.4497,2.4497,2.4497,2.4497,2.4497,2.4497,2.4497,2.4497,2.4497,2.4497,2.4497,2.4497,2.4497,2.4497,2.4497,2.4497,2.4497,2.4497,2.4497,2.4497,2.4497,2.4497,2.4497,2.4497,2.4497,2.4497,2.4497,2.4497,2.4497,2.4497,2.4497,2.4497,2.4497,2.4497,2.4497,2.4497,2.4497,2.4497,2.4497,2.4497,2.4497,2.4497,2.4497,2.4497,2.4497,2.4497,2.4497,2.4497,2.4497,2.4497,2.4497,2.4497,2.4497,2.4497,2.4497,2.4497,2.4497,2.4497,2.4497,2.4497,2.4497,2.4497,2.4497,2.4497,2.4497,0.9697,0.0,0.0,0.0,0.0,0.0,0.0,0.0,1.448,1.5186,1.584,1.6766,0.0,0.0,0.0,0.0,0.0,0.0,0.0,0.0,0.0,0.0,0.0,0.0,0.0,0.0,0.0,0.0,2.4497,2.4497,2.4497,2.4497,2.4497,2.4497,2.4497,2.4497,2.4497,2.4497,2.4497,2.4497,2.4497,2.4497,2.4497,2.4497,2.4497,2.4497,2.4497,2.4497,2.4497,2.4497,2.4497,2.4497,2.4497,2.4497,2.4497,2.4497,2.4497,2.4497,2.4497,2.4497,2.4497,2.4497,2.4497,2.4497,2.4497,2.4497,2.4497,2.4497,2.4497,2.4497,2.4497,2.4497,2.4497,2.4497,2.4497,2.4497,2.4497,2.4497,2.4497,2.4497,2.4497,2.4497,2.4497,2.4497,2.4497,2.4497,2.4497,2.4497,2.4497,2.4497,2.4497,2.4497,2.4497,2.4497,2.4497,2.4497,2.4497,2.4497,2.4497,2.4497,2.4497,2.4497,2.4497,2.4497,2.4497,2.4497,2.4497,2.4497,2.4497,2.4497,2.4497,2.4497,1.059,1.0791,0.0,0.0,0.0,0.0,1.2274,1.288,0.0,0.0,1.4791,1.591,0.0,0.0,0.0,0.0,0.0,0.0,0.0,0.0,0.0,0.0,0.0,0.0,0.0,2.4497,2.4497,2.4497,2.4497,2.4497,2.4497,2.4497,2.4497,2.4497,2.4497,2.4497,2.4497,2.4497,2.4497,2.4497,2.4497,2.4497,2.4497,2.4497,2.4497,2.4497,2.4497,2.4497,2.4497,2.4497,2.4497,2.4497,2.4497,2.4497,2.4497,2.4497,2.4497,2.4497,2.4497,2.4497,2.4497,2.4497,2.4497,2.4497,2.4497,2.4497,2.4497,2.4497,2.4497,2.4497,2.4497,2.4497,2.4497,2.4497,2.4497,2.4497,2.4497,2.4497,2.4497,2.4497,2.4497,2.4497,2.4497,2.4497,2.4497,2.4497,2.4497,2.4497,2.4497,2.4497,2.4497,2.4497,2.4497,2.4497,2.4497,2.4497,2.4497,2.4497,2.4497,2.4497,2.4497,2.4497,2.4497,2.4497,2.4497,2.4497,2.4497,2.4497,2.4497,2.4497,2.4497,2.4497,1.1879,1.2223,0.0,0.0,0.0,0.0,1.2856,1.2985,1.313,0.0,0.0,1.5222,0.0,0.0,0.0,0.0,0.0,0.0,0.0,0.0,0.0,0.0,0.0,0.0,2.4425,2.4466,2.4497,2.4497,2.4497,2.4497,2.4497,2.4497,2.4497,2.4497,2.4497,2.4497,2.4497,2.4497,2.4497,2.4497,2.4497,2.4497,2.4497,2.4497,2.4497,2.4497,2.4497,2.4497,2.4497,2.4497,2.4497,2.4497,2.4497,2.4497,2.4497,2.4497,2.4497,2.4497,2.4497,2.4497,2.4497,2.4497,2.4497,2.4497,2.4497,2.4497,2.4497,2.4497,2.4497,2.4497,2.4497,2.4497,2.4497,2.4497,2.4497,2.4497,2.4497,2.4497,2.4497,2.4497,2.4497,2.4497,2.4497,2.4497,2.4497,2.4497,2.4497,2.4497,2.4497,2.4497,2.4497,2.4497,2.4497,2.4497,2.4497,2.4497,2.4497,2.4497,2.4497,2.4497,2.4497,2.4497,2.4497,2.4497,2.4497,2.4497,2.4497,2.4497,2.4497,2.4497,2.4497,2.4497,1.38,1.37,0.0,0.0,0.0,0.0,1.2251,1.2929,1.3755,0.0,1.322,1.4031,0.0,0.0,0.0,0.0,0.0,0.0,0.0,0.0,0.0,0.0,0.0,0.0,2.4002,2.4333,2.4497,2.4497,2.4497,2.4497,2.4497,2.4497,2.4497,2.4497,2.4497,2.4497,2.4497,2.4497,2.4497,2.4497,2.4497,2.4497,2.4497,2.4497,2.4497,2.4497,2.4497,2.4497,2.4497,2.4497,2.4497,2.4497,2.4497,2.4497,2.4497,2.4497,2.4497,2.4497,2.4497,2.4497,2.4497,2.4497,2.4497,2.4497,2.4497,2.4497,2.4497,2.4497,2.4497,2.4497,2.4497,2.4497,2.4497,2.4497,2.4497,2.4497,2.4497,2.4497,2.4497,2.4497,2.4497,2.4497,2.4497,2.4497,2.4497,2.4497,2.4497,2.4497,2.4497,2.4497,2.4497,2.4497,2.4497,2.4497,2.4497,2.4497,2.4497,2.4497,2.4497,2.4497,2.4497,2.4497,2.4497,2.4497,2.4497,2.4497,2.4497,2.4497,2.4497,2.4497,2.4497,2.4615,1.5049,0.0,0.0,1.4676,0.0,0.0,0.0,1.3506,1.3643,1.3427,1.3241,1.3608,1.5263,0.0,0.0,0.0,0.0,0.0,0.0,0.0,0.0,0.0,0.0,0.0,2.3536,2.3732,2.396,2.4188,2.4209,2.4312,2.4487,2.4497,2.4497,2.4497,2.4497,2.4497,2.4497,2.4497,2.4497,2.4497,2.4497,2.4497,2.4497,2.4497,2.4497,2.4497,2.4497,2.4497,2.4497,2.4497,2.4497,2.4497,2.4497,2.4497,2.4497,2.4497,2.4497,2.4497,2.4497,2.4497,2.4497,2.4497,2.4497,2.4497,2.4497,2.4497,2.4497,2.4497,2.4497,2.4497,2.4497,2.4497,2.4497,2.4497,2.4497,2.4497,2.4497,2.4497,2.4497,2.4497,2.4497,2.4497,2.4497,2.4497,2.4497,2.4497,2.4497,2.4497,2.4497,2.4497,2.4497,2.4497,2.4497,2.4497,2.4497,2.4497,2.4497,2.4497,2.4497,2.4497,2.4497,2.4497,2.4497,2.4497,2.4497,2.4497,2.4497,2.4497,2.4497,2.4497,2.4497,2.4658,0.0,0.0,0.0,0.0,0.0,1.5861,0.0,0.0,0.0,1.4051,0.0,0.0,0.0,0.0,0.0,0.0,0.0,0.0,0.0,0.0,0.0,0.0,0.0,0.0,0.0,2.2842,2.306,2.3743,2.3494,2.366,2.4332,2.4373,2.4404,2.4497,2.4497,2.4497,2.4497,2.4497,2.4497,2.4497,2.4497,2.4497,2.4497,2.4497,2.4497,2.4497,2.4497,2.4497,2.4497,2.4497,2.4497,2.4497,2.4497,2.4497,2.4497,2.4497,2.4497,2.4497,2.4497,2.4497,2.4497,2.4497,2.4497,2.4497,2.4497,2.4497,2.4497,2.4497,2.4497,2.4497,2.4497,2.4497,2.4497,2.4497,2.4497,2.4497,2.4497,2.4497,2.4497,2.4497,2.4497,2.4497,2.4497,2.4497,2.4497,2.4497,2.4497,2.4497,2.4497,2.4497,2.4497,2.4497,2.4497,2.4497,2.4497,2.4497,2.4497,2.4497,2.4497,2.4497,2.4497,2.4497,2.4497,2.4497,2.4497,2.4497,2.4497,2.4497,2.4497,2.4497,2.4497,2.4658,0.0,0.0,0.0,0.0,1.748,0.0,0.0,0.0,1.5439,1.433,0.0,0.0,0.0,0.0,0.0,0.0,0.0,0.0,0.0,0.0,0.0,0.0,0.0,0.0,0.0,2.159,2.188,2.3163,2.2128,2.217,2.3867,2.395,2.4136,2.4487,2.4497,2.4497,2.4497,2.4497,2.4497,2.4497,2.4497,2.4497,2.4497,2.4497,2.4497,2.4497,2.4497,2.4497,2.4497,2.4497,2.4497,2.4497,2.4497,2.4497,2.4497,2.4497,2.4497,2.4497,2.4497,2.4497,2.4497,2.4497,2.4497,2.4497,2.4497,2.4497,2.4497,2.4497,2.4497,2.4497,2.4497,2.4497,2.4497,2.4497,2.4497,2.4497,2.4497,2.4497,2.4497,2.4497,2.4497,2.4497,2.4497,2.4497,2.4497,2.4497,2.4497,2.4497,2.4497,2.4497,2.4497,2.4497,2.4497,2.4497,2.4497,2.4497,2.4497,2.4497,2.4497,2.4497,2.4497,2.4497,2.4497,2.4497,2.4497,2.4497,2.4497,2.4497,2.4497,2.4497,2.4497,2.4658,0.0,0.0,0.0,0.0,0.0,0.0,1.6023,0.0,1.5332,0.0,0.0,0.0,0.0,0.0,0.0,0.0,0.0,0.0,0.0,0.0,0.0,0.0,0.0,0.0,0.0,0.0,0.0,0.0,2.1197,2.1404,2.2987,2.3588,2.396,2.4146,2.4363,2.4497,2.4497,2.4497,2.4497,2.4497,2.4497,2.4497,2.4497,2.4497,2.4497,2.4497,2.4497,2.4497,2.4497,2.4497,2.4497,2.4497,2.4497,2.4497,2.4497,2.4497,2.4497,2.4497,2.4497,2.4497,2.4497,2.4497,2.4497,2.4497,2.4497,2.4497,2.4497,2.4497,2.4497,2.4497,2.4497,2.4497,2.4497,2.4497,2.4497,2.4497,2.4497,2.4497,2.4497,2.4497,2.4497,2.4497,2.4497,2.4497,2.4497,2.4497,2.4497,2.4497,2.4497,2.4497,2.4497,2.4497,2.4497,2.4497,2.4497,2.4497,2.4497,2.4497,2.4497,2.4497,2.4497,2.4497,2.4497,2.4497,2.4497,2.4583,2.4743,2.4583,2.4625,2.4914,2.4625,2.47,1.943,0.0,0.0,0.0,0.0,0.0,0.0,0.0,0.0,0.0,0.0,0.0,0.0,0.0,0.0,0.0,0.0,0.0,0.0,0.0,0.0,0.0,0.0,0.0,0.0,0.0,0.0,0.0,0.0,2.0281,2.2211,2.2946,2.3484,2.3909,2.4188,2.4373,2.4497,2.4497,2.4497,2.4497,2.4497,2.4497,2.4497,2.4497,2.4497,2.4497,2.4497,2.4497,2.4497,2.4497,2.4497,2.4497,2.4497,2.4497,2.4497,2.4497,2.4497,2.4497,2.4497,2.4497,2.4497,2.4497,2.4497,2.4497,2.4497,2.4497,2.4497,2.4497,2.4497,2.4497,2.4497,2.4497,2.4497,2.4497,2.4497,2.4497,2.4497,2.4497,2.4497,2.4497,2.4497,2.4497,2.4497,2.4497,2.4497,2.4497,2.4497,2.4497,2.4497,2.4497,2.4497,2.4497,2.4497,2.4497,2.4497,2.4497,2.4497,2.4497,2.4497,2.4497,2.4497,2.4497,2.4497,2.4497,2.4583,2.4658,2.4786,2.47,2.4828,2.5115,2.4786,2.4828,0.0,0.0,0.0,1.8282,0.0,0.0,0.0,0.0,1.7103,0.0,0.0,0.0,0.0,0.0,0.0,0.0,0.0,0.0,0.0,0.0,0.0,0.0,0.0,0.0,0.0,0.0,0.0,0.0,0.0,0.0,2.1662,2.1859,2.249,2.3878,2.3888,2.4105,2.4497,2.4497,2.4497,2.4497,2.4497,2.4497,2.4497,2.4497,2.4497,2.4497,2.4497,2.4497,2.4497,2.4497,2.4497,2.4497,2.4497,2.4497,2.4497,2.4497,2.4497,2.4497,2.4497,2.4497,2.4497,2.4497,2.4497,2.4497,2.4497,2.4497,2.4497,2.4497,2.4497,2.4497,2.4497,2.4497,2.4497,2.4497,2.4497,2.4497,2.4497,2.4497,2.4497,2.4497,2.4497,2.4497,2.4497,2.4497,2.4497,2.4497,2.4497,2.4497,2.4497,2.4497,2.4497,2.4497,2.4497,2.4497,2.4497,2.4497,2.4497,2.4497,2.4497,2.4497,2.4497,2.4497,2.4497,2.4497,2.4743,2.4786,2.4497,2.4946,2.5073,2.4903,2.4903,2.4988,0.0,0.0,2.1549,1.9485,0.0,0.0,0.0,0.0,0.0,0.0,0.0,0.0,0.0,0.0,0.0,0.0,0.0,0.0,0.0,0.0,0.0,0.0,0.0,0.0,0.0,0.0,0.0,0.0,1.7812,0.0,0.0,2.1311,2.2159,2.2946,2.3598,2.4084,2.4497,2.4497,2.4497,2.4497,2.4497,2.4497,2.4497,2.4497,2.4497,2.4497,2.4497,2.4497,2.4497,2.4497,2.4497,2.4497,2.4497,2.4497,2.4497,2.4497,2.4497,2.4497,2.4497,2.4497,2.4497,2.4497,2.4497,2.4497,2.4497,2.4497,2.4497,2.4497,2.4497,2.4497,2.4497,2.4497,2.4497,2.4497,2.4497,2.4497,2.4497,2.4497,2.4497,2.4497,2.4497,2.4497,2.4497,2.4497,2.4497,2.4497,2.4497,2.4497,2.4497,2.4497,2.4497,2.4497,2.4497,2.4497,2.4497,2.4497,2.4497,2.4497,2.4497,2.4497,2.4497,2.4497,2.4497,2.4497,2.4786,2.4903,2.4946,2.5115,2.5327,2.5559,2.5433,2.5391,2.2013,2.2211,0.0,2.0391,1.9876,0.0,1.7578,0.0,0.0,0.0,0.0,0.0,0.0,0.0,0.0,0.0,0.0,0.0,0.0,1.3047,0.0,0.0,0.0,0.0,0.0,0.0,1.5792,1.7317,1.7161,0.0,0.0,0.0,2.16,2.2232,2.3153,2.3846,2.4302,2.4425,2.4497,2.4497,2.4497,2.4497,2.4497,2.4497,2.4497,2.4497,2.4497,2.4497,2.4497,2.4497,2.4497,2.4497,2.4497,2.4497,2.4497,2.4497,2.4497,2.4497,2.4497,2.4497,2.4497,2.4497,2.4497,2.4497,2.4497,2.4497,2.4497,2.4497,2.4497,2.4497,2.4497,2.4497,2.4497,2.4497,2.4497,2.4497,2.4497,2.4497,2.4497,2.4497,2.4497,2.4497,2.4497,2.4497,2.4497,2.4497,2.4497,2.4497,2.4497,2.4497,2.4497,2.4497,2.4497,2.4497,2.4497,2.4497,2.4497,2.4497,2.4497,2.4497,2.4497,2.4497,2.454,2.4658,2.4861,2.5073,2.52,2.5695,2.5874,2.5822,2.6052,2.601]}]]